[[[{"header":{"parameterUnit":"kt","parameterCategory":2,"dx":1,"dy":1,"la1":29.587661999999998,"la2":31.0,"lo1":-88.76705300000003,"lo2":-86.6583820000003,"nx":115,"ny":88,"refTime":"2022-10-04T00:00:00:Z","depth":0,"parameterNumber":1,"parameterNumberName":"U-component_of_WINDS"},"data":[7.1149,7.1139,6.9965,6.961,6.9592,6.8412,6.7226,6.6168,6.6101,6.514,6.4244,6.4099,6.434,6.4278,6.5951,6.6315,6.5672,6.5463,6.5422,6.5462,6.5972,6.5907,6.5885,6.6412,6.628,6.6144,6.5895,6.5216,6.3952,6.4051,6.3669,6.2712,6.4133,6.4127,6.3332,6.4208,6.5617,6.5347,6.5763,6.6198,6.6561,6.6597,6.6521,6.6521,6.6521,6.6567,6.6567,6.6696,6.6696,6.6705,6.6669,6.666,6.6624,6.6379,6.5582,6.4829,6.4133,6.2792,6.1307,6.0039,5.9024,5.8118,5.7324,5.7324,5.7396,5.7394,5.8368,5.8323,5.7709,5.8649,6.1354,6.4389,6.5907,6.6087,6.6159,6.6324,6.6452,6.6812,6.7046,6.6921,6.6796,6.6885,6.7053,6.7096,6.7096,6.7089,6.7002,6.6877,6.6877,6.6929,6.706,6.706,6.706,6.7009,6.7422,6.7601,6.665,6.6686,6.7508,7.0532,7.3205,7.5176,7.5411,7.4113,7.4383,7.5031,7.5356,7.4615,7.3735,7.3013,7.3679,7.34,7.2516,7.2238,7.2996,7.0183,7.0233,7.0328,7.0504,7.0609,6.9337,6.872,6.8469,6.756,6.6233,6.521,6.6269,6.6714,6.6852,6.744,6.7441,6.7267,6.6748,6.7194,6.7497,6.7497,6.744,6.77,6.8273,6.83,6.8246,6.7861,6.6568,6.5397,6.5497,6.5678,6.5571,6.5718,6.5994,6.591,6.6246,6.6412,6.6252,6.6252,6.6578,6.6722,6.666,6.6939,6.6877,6.6751,6.6832,6.6832,6.6832,6.6787,6.6742,6.665,6.6686,6.665,6.6567,6.6071,6.5818,6.513,6.4181,6.2988,6.118,6.0131,5.901,5.7745,5.7311,5.7419,5.821,5.9908,5.9728,5.8319,5.9114,6.2249,6.4885,6.5824,6.6402,6.6449,6.6449,6.6624,6.6796,6.6742,6.6604,6.6567,6.6567,6.6696,6.6832,6.6877,6.6868,6.6823,6.6696,6.665,6.6751,6.6804,6.6849,6.6885,6.7984,6.899,6.8219,6.6557,6.6557,6.7099,7.0676,7.3226,7.3262,7.3443,7.3879,7.5032,7.5537,7.5898,7.6006,7.6187,7.5587,7.5241,7.4191,7.3576,7.3901,7.4703,6.9298,6.9384,6.9982,7.0316,7.0332,7.0202,6.9631,6.8941,6.8449,6.773,6.7276,6.8517,6.8456,6.7002,6.8319,6.8463,6.747,6.7712,6.8093,6.8095,6.7956,6.8504,6.8597,6.8684,6.9295,6.9142,6.8667,6.8539,6.7982,6.7641,6.7174,6.7185,6.6352,6.6175,6.6354,6.639,6.6521,6.664,6.6485,6.7641,6.946,6.9424,6.9315,6.9279,6.9183,6.8749,6.8579,6.8072,6.7518,6.6857,6.6774,6.6701,6.6774,6.6701,6.6593,6.6268,6.587,6.5066,6.4019,6.2944,6.1968,6.1101,5.9981,5.9511,5.9361,6.1896,6.3549,6.2466,6.1065,6.1318,6.4416,6.5318,6.6149,6.6618,6.6618,6.6593,6.6567,6.6696,6.6604,6.651,6.6463,6.6463,6.6557,6.6696,6.6696,6.6686,6.6686,6.6557,6.6557,6.6567,6.6624,6.6624,6.6614,6.746,6.9303,6.8761,6.7268,6.669,6.651,6.8929,7.0626,7.0879,7.207,7.4148,7.5555,7.5898,7.5934,7.6006,7.6151,7.6313,7.5645,7.4995,7.5356,7.559,7.5626,6.8592,6.8682,6.9298,6.9642,6.9728,7.0432,6.9974,6.8967,6.9125,6.9046,6.9122,7.0147,6.9878,6.8399,6.9516,6.9633,6.8673,6.906,6.8695,6.9048,6.926,6.9782,6.9613,7.0232,7.0121,6.9769,6.9715,6.9821,6.9669,6.8916,6.8404,6.857,6.8261,6.7789,6.7903,6.8122,6.8171,6.8327,6.8315,6.9326,7.0712,7.1168,7.1348,7.1254,7.1146,7.0387,7.0026,6.9592,6.8749,6.799,6.7701,6.7593,6.7557,6.7268,6.6943,6.6546,6.6366,6.5752,6.4921,6.4127,6.326,6.2538,6.1888,6.1852,6.3152,6.5968,6.6907,6.5679,6.5066,6.5571,6.6329,6.6366,6.6582,6.6727,6.6835,6.6654,6.651,6.651,6.651,6.6463,6.6367,6.6415,6.651,6.651,6.651,6.6546,6.6582,6.6654,6.669,6.8568,6.9026,6.9822,6.8965,6.793,6.946,6.9713,6.9086,6.846,6.9399,6.8604,6.7846,6.9074,7.059,7.3443,7.5681,7.5501,7.5428,7.5753,7.6006,7.6042,7.5681,7.5537,7.5862,7.6006,7.6006,6.7898,6.7931,6.8413,6.8649,6.8948,6.9761,6.9915,6.9849,6.98,6.9782,6.9916,7.0645,7.0719,7.0193,7.0486,7.0564,7.0406,7.0382,7.0468,7.153,7.1024,7.1252,7.1574,7.2273,7.1759,7.1899,7.1757,7.0951,7.0923,7.0191,6.9517,6.9825,6.9655,6.959,6.9624,6.9908,7.0284,7.0495,7.0958,7.1153,7.1709,7.1565,7.1348,7.1601,7.1601,7.1384,7.1204,7.1132,7.1096,7.0987,7.0843,7.0662,7.0229,6.9651,6.7918,6.7196,6.6546,6.6149,6.5788,6.5066,6.4307,6.3657,6.2763,6.3008,6.4885,6.7701,6.9362,6.8785,6.846,6.8893,6.846,6.8315,6.8315,6.8424,6.7918,6.734,6.7184,6.71,6.7124,6.7206,6.7084,6.6761,6.6823,6.651,6.651,6.6871,6.6979,6.7088,6.846,7.1709,7.3061,7.4309,7.1926,6.9737,7.1015,7.1521,7.0893,7.1601,7.3334,7.2901,7.0915,7.0085,6.9615,7.2215,7.5067,7.4959,7.5248,7.5645,7.6006,7.6006,7.6006,7.6006,7.6006,7.6006,7.6006,6.7151,6.7151,6.7495,6.7866,6.8264,6.8948,6.9036,6.8771,6.9156,6.9471,6.9813,7.015,7.0515,7.0678,7.0874,7.0955,7.0921,7.1036,7.1309,7.1589,7.1651,7.2091,7.2316,7.2435,7.2611,7.2546,7.2135,7.1863,7.1725,7.1091,7.0671,7.0887,7.0037,7.0198,7.0639,7.1153,7.1944,7.3012,7.3718,7.4005,7.422,7.4273,7.4165,7.4309,7.4309,7.3623,7.2937,7.2757,7.2143,7.1457,7.1384,7.1601,7.207,7.1673,7.0337,6.7268,6.6799,6.6799,6.6582,6.586,6.5679,6.5607,6.6004,6.6293,6.8279,6.9543,7.0771,7.1926,7.189,7.1709,7.0987,7.0373,7.0301,7.0265,6.9254,6.8207,6.8001,6.7867,6.7911,6.8061,6.7938,6.7651,6.712,6.6703,6.6763,6.7916,6.8587,6.8831,7.1023,7.3695,7.5176,7.597,7.3515,7.1565,7.2555,7.335,7.2555,7.2612,7.4706,7.514,7.4417,7.3262,7.2576,7.3443,7.4634,7.5104,7.5645,7.5934,7.6006,7.6006,7.6006,7.6006,7.6006,7.6006,7.6006,6.6286,6.6384,6.6577,6.6866,6.7434,6.7958,6.7958,6.7714,6.8232,6.8682,6.9091,6.9642,6.9982,7.0283,7.0481,7.053,7.0645,7.076,7.1036,7.1195,7.1399,7.171,7.194,7.2167,7.2242,7.2282,7.2396,7.237,7.2232,7.193,7.1653,7.1884,7.1414,7.1363,7.1496,7.1493,7.3059,7.4266,7.4738,7.4974,7.5245,7.5245,7.5392,7.5392,7.5411,7.5158,7.4509,7.4381,7.3984,7.3045,7.2829,7.2937,7.3768,7.3623,7.2648,6.8929,6.799,6.7593,6.7304,6.7196,6.7196,6.7449,6.911,7.0735,7.1709,7.2323,7.2757,7.3659,7.4056,7.3806,7.3249,7.1916,7.1102,7.0803,7.0215,6.9533,6.9265,6.9124,6.8945,6.9192,6.9905,6.9426,6.8117,6.7853,6.8918,7.0071,7.0986,7.1591,7.303,7.4634,7.5862,7.597,7.449,7.3948,7.4687,7.4687,7.3928,7.3443,7.4815,7.5645,7.514,7.4995,7.5176,7.5212,7.5104,7.5428,7.5934,7.6006,7.6006,7.6006,7.6006,7.6006,7.6006,7.6006,7.6006,6.5326,6.5527,6.5496,6.5894,6.6352,6.6642,6.6866,6.7151,6.7621,6.7898,6.8023,6.9123,6.9642,6.978,7.0316,7.0481,7.0563,7.053,7.076,7.0955,7.1116,7.1354,7.1589,7.1821,7.1974,7.2091,7.2316,7.2425,7.2499,7.2197,7.227,7.252,7.2488,7.2621,7.2726,7.2904,7.3455,7.4264,7.4788,7.5055,7.5356,7.5275,7.5449,7.5656,7.5768,7.5663,7.5627,7.5573,7.5465,7.5465,7.5501,7.5645,7.5753,7.5862,7.4887,7.3334,7.1565,7.0229,6.9254,6.8929,6.8929,6.9566,7.1529,7.2865,7.3768,7.4417,7.467,7.5212,7.5392,7.5339,7.5189,7.3608,7.2153,7.1776,7.1286,7.096,7.071,7.0383,7.0189,7.0675,7.1455,7.1255,7.0068,7.0037,7.102,7.1953,7.2495,7.3249,7.4256,7.5826,7.5898,7.6006,7.5934,7.5826,7.579,7.5537,7.4959,7.4634,7.5753,7.6006,7.6006,7.579,7.5428,7.5176,7.5356,7.5609,7.5898,7.6006,7.6006,7.6006,7.6006,7.6006,7.6006,7.6006,7.6006,6.4921,6.5023,6.5326,6.5596,6.5695,6.5527,6.5795,6.6384,6.6866,6.7246,6.7714,6.8355,6.898,6.9557,6.9982,7.0233,7.053,7.0563,7.0678,7.0955,7.0955,7.1116,7.1309,7.1545,7.1589,7.1667,7.1898,7.2126,7.2126,7.2351,7.2499,7.2572,7.2757,7.2866,7.2863,7.3143,7.3497,7.3932,7.4343,7.4634,7.5015,7.5252,7.5428,7.56,7.5768,7.5898,7.5952,7.597,7.5934,7.5898,7.5898,7.5934,7.5934,7.5609,7.4634,7.319,7.2034,7.189,7.0987,7.0626,7.1153,7.1591,7.1694,7.3013,7.4744,7.5465,7.5844,7.5952,7.5934,7.568,7.5363,7.4884,7.3872,7.3738,7.3327,7.2781,7.2437,7.1858,7.1678,7.2661,7.334,7.3191,7.2715,7.2923,7.285,7.333,7.386,7.4762,7.5681,7.5898,7.597,7.6006,7.597,7.5934,7.588,7.6006,7.6006,7.6006,7.6006,7.6006,7.6006,7.597,7.5428,7.5031,7.5573,7.6006,7.6042,7.6042,7.6151,7.6151,7.6295,7.6295,7.6006,7.6006,7.6006,6.4303,6.4541,6.4819,6.5053,6.5093,6.4921,6.5194,6.5795,6.6189,6.6674,6.7151,6.7746,6.8445,6.9123,6.9609,7.015,7.0448,7.0563,7.0645,7.076,7.0793,7.0955,7.1036,7.1116,7.1229,7.1275,7.1511,7.1744,7.1821,7.1974,7.2201,7.2276,7.2316,7.2167,7.2201,7.2419,7.2964,7.3359,7.3721,7.4102,7.4663,7.4918,7.5252,7.5635,7.5768,7.5898,7.6006,7.6006,7.6006,7.6006,7.6006,7.6006,7.6006,7.6006,7.5067,7.3948,7.3443,7.3587,7.3154,7.2901,7.3338,7.3573,7.3806,7.4167,7.5209,7.5807,7.5788,7.5676,7.5392,7.5311,7.5252,7.4857,7.4663,7.4608,7.444,7.3988,7.3776,7.321,7.3006,7.3876,7.4239,7.3952,7.3968,7.3785,7.3981,7.4489,7.4625,7.5425,7.5512,7.5605,7.5898,7.5898,7.5788,7.5843,7.5952,7.6006,7.6006,7.6006,7.6006,7.6115,7.6042,7.6006,7.597,7.6837,7.6692,7.6692,7.8409,7.9476,7.803,7.6927,7.7414,7.7595,7.7361,7.7072,7.6746,6.3569,6.3977,6.3946,6.4156,6.4303,6.4819,6.5194,6.5527,6.5795,6.609,6.6481,6.7151,6.7774,6.856,6.9265,6.9898,7.0365,7.053,7.053,7.0645,7.0645,7.053,7.0645,7.0841,7.0921,7.1002,7.1275,7.1545,7.1555,7.1744,7.1821,7.1974,7.194,7.194,7.194,7.1974,7.2126,7.2503,7.2592,7.325,7.3927,7.4257,7.4857,7.5311,7.5656,7.5843,7.5952,7.6006,7.6006,7.6006,7.6006,7.6006,7.6006,7.6006,7.5826,7.5465,7.5645,7.5753,7.5826,7.5862,7.5555,7.5393,7.5177,7.523,7.5588,7.5712,7.5676,7.5217,7.4743,7.4653,7.4653,7.4555,7.4491,7.442,7.442,7.4286,7.4378,7.4122,7.3827,7.4163,7.4239,7.4304,7.4463,7.468,7.5014,7.5193,7.5369,7.5275,7.5122,7.524,7.562,7.5564,7.5217,7.5449,7.5862,7.5916,7.6006,7.6006,7.6115,7.6439,7.6476,7.6151,7.7126,7.8786,7.9328,8.0159,8.1573,8.2845,8.1175,7.9581,7.9545,7.9059,7.8789,7.8464,7.8083,6.319,6.3357,6.3735,6.3811,6.3675,6.3781,6.4273,6.4921,6.5225,6.5695,6.6286,6.677,6.7463,6.829,6.8948,6.9524,7.0283,7.053,7.053,7.053,7.053,7.053,7.053,7.0645,7.0726,7.0726,7.1036,7.1342,7.1388,7.1633,7.1787,7.1821,7.1821,7.1787,7.1898,7.2042,7.2194,7.2459,7.2618,7.2974,7.3393,7.4033,7.4734,7.4918,7.5564,7.5843,7.5952,7.6006,7.6006,7.6006,7.6006,7.6006,7.6006,7.6006,7.6006,7.597,7.597,7.597,7.597,7.597,7.5898,7.5879,7.5934,7.5879,7.5656,7.5392,7.5414,7.4978,7.4555,7.4304,7.4399,7.4645,7.4672,7.4555,7.4555,7.4618,7.4743,7.4527,7.4369,7.4239,7.4434,7.4527,7.4743,7.4978,7.5134,7.5049,7.5049,7.4805,7.4707,7.4978,7.5275,7.5038,7.4769,7.5217,7.5752,7.5862,7.6006,7.6078,7.6547,7.6854,7.7051,7.6259,7.6801,7.9524,8.1761,8.3444,8.3986,8.4045,8.325,8.2253,8.1422,8.0592,8.036,8.0086,7.9596,6.2976,6.2976,6.3357,6.3493,6.3327,6.3327,6.3781,6.4438,6.4747,6.5225,6.5695,6.6189,6.7025,6.7958,6.8503,6.9265,7.0116,7.0365,7.053,7.053,7.053,7.053,7.053,7.053,7.053,7.0645,7.0841,7.1036,7.1229,7.1354,7.1555,7.171,7.1633,7.171,7.1821,7.2008,7.2084,7.2276,7.2351,7.2611,7.3008,7.3732,7.4193,7.461,7.5414,7.564,7.5843,7.5952,7.6006,7.6006,7.6006,7.6006,7.6006,7.6006,7.6006,7.6006,7.6006,7.6006,7.6006,7.6006,7.5952,7.5824,7.5768,7.5768,7.5543,7.5275,7.5122,7.5157,7.4989,7.468,7.4555,7.4734,7.4882,7.4831,7.4831,7.4953,7.4831,7.4427,7.4269,7.4239,7.4434,7.459,7.4892,7.5157,7.5014,7.4866,7.4527,7.4304,7.4463,7.468,7.4743,7.4555,7.4527,7.4831,7.5752,7.5916,7.6006,7.6475,7.6956,7.7812,7.8627,7.7833,7.8812,8.0792,8.3205,8.4007,8.4583,8.4995,8.4864,8.4166,8.33,8.2339,8.1955,8.1752,8.1824,6.3096,6.3096,6.3006,6.3113,6.3327,6.3327,6.3569,6.3946,6.423,6.4541,6.4952,6.5496,6.6481,6.7434,6.8141,6.8859,6.9642,7.02,7.0481,7.0563,7.053,7.053,7.053,7.053,7.053,7.0563,7.076,7.0841,7.0955,7.1116,7.1195,7.1511,7.1511,7.1667,7.1821,7.1898,7.194,7.194,7.2016,7.2282,7.2687,7.315,7.3563,7.4385,7.4846,7.5204,7.5543,7.5732,7.5843,7.5879,7.5843,7.5843,7.5788,7.5879,7.5952,7.6006,7.6006,7.5952,7.5843,7.5788,7.5898,7.5898,7.5696,7.5471,7.5298,7.5086,7.5356,7.5732,7.5252,7.5074,7.5074,7.4857,7.4769,7.4743,7.4805,7.4805,7.4555,7.4269,7.4269,7.4239,7.4304,7.4369,7.4555,7.4769,7.468,7.459,7.4239,7.4239,7.4434,7.4399,7.4334,7.4334,7.4304,7.468,7.5676,7.6475,7.6832,7.7294,7.7946,7.8912,8.012,8.1641,8.2403,8.3801,8.3708,8.4245,8.4817,8.4853,8.4919,8.5293,8.5164,8.4213,8.3683,8.3102,8.3343,6.4472,6.4352,6.3365,6.2976,6.3113,6.3083,6.322,6.3599,6.3946,6.4156,6.4541,6.5023,6.5992,6.7056,6.7714,6.8592,6.9557,7.0015,7.0266,7.0481,7.053,7.053,7.053,7.053,7.053,7.053,7.0645,7.0841,7.0841,7.0841,7.0921,7.1422,7.1388,7.1545,7.1821,7.1864,7.1864,7.1864,7.194,7.2091,7.2322,7.2939,7.3461,7.3932,7.4574,7.5098,7.5324,7.5369,7.5369,7.5428,7.5392,7.5392,7.5428,7.56,7.5768,7.5952,7.5898,7.5824,7.5543,7.5428,7.5449,7.5471,7.5399,7.5191,7.505,7.4672,7.4769,7.5788,7.5334,7.5392,7.5471,7.5252,7.4892,7.4743,7.4653,7.4463,7.4269,7.4304,7.4239,7.4239,7.4239,7.4239,7.4304,7.4463,7.4399,7.4304,7.4239,7.4239,7.4304,7.4304,7.4304,7.4304,7.4304,7.4527,7.5276,7.6085,7.748,7.8245,7.9004,8.01,8.1893,8.3527,8.4262,8.4449,8.4423,8.477,8.4919,8.4699,8.4533,8.4659,8.4775,8.4811,8.4876,8.4394,8.4226,6.6387,6.5788,6.504,6.4412,6.3844,6.3814,6.3623,6.331,6.3463,6.3705,6.4021,6.4438,6.5124,6.609,6.7246,6.8141,6.8948,6.9417,6.9931,7.0233,7.0316,7.0399,7.0448,7.053,7.053,7.053,7.0645,7.0841,7.076,7.0645,7.076,7.1149,7.1149,7.1388,7.1623,7.171,7.171,7.1864,7.2016,7.2276,7.2572,7.2972,7.3359,7.36,7.4257,7.4672,7.4892,7.4978,7.5134,7.5205,7.5098,7.5014,7.4928,7.5169,7.56,7.5898,7.5788,7.5485,7.5265,7.5134,7.5252,7.5311,7.524,7.4955,7.475,7.4484,7.4618,7.5217,7.5062,7.5003,7.5038,7.5074,7.4892,7.4743,7.4463,7.4304,7.4239,7.4239,7.4239,7.4239,7.4239,7.4239,7.4304,7.4369,7.4369,7.4239,7.4239,7.4239,7.4239,7.4239,7.4239,7.4375,7.4575,7.5121,7.5995,7.7365,7.9495,8.0385,8.1187,8.1959,8.3714,8.4176,8.4242,8.442,8.4699,8.4931,8.499,8.4798,8.4357,8.425,8.4036,8.4278,8.4481,8.4171,8.4103,6.8185,6.7109,6.7045,6.6297,6.528,6.516,6.4502,6.3604,6.3425,6.3323,6.3855,6.3826,6.423,6.5124,6.6577,6.756,6.8297,6.8925,6.9417,6.9846,6.9931,7.0066,7.0365,7.0481,7.0481,7.053,7.053,7.053,7.053,7.053,7.0726,7.0955,7.1036,7.1116,7.1466,7.1589,7.1555,7.171,7.2201,7.2611,7.2972,7.3114,7.3359,7.3634,7.4002,7.4293,7.4582,7.4734,7.4892,7.5024,7.4953,7.4707,7.4463,7.4769,7.5334,7.5414,7.5298,7.5014,7.5024,7.4928,7.4953,7.5049,7.5049,7.4928,7.4672,7.4427,7.4304,7.4269,7.4645,7.4769,7.4555,7.4519,7.4427,7.4334,7.4304,7.4304,7.4239,7.4239,7.4239,7.4239,7.4239,7.4239,7.4239,7.4239,7.4239,7.4239,7.4239,7.4239,7.4239,7.4239,7.4239,7.4887,7.5156,7.7329,7.8698,8.0806,8.2346,8.2868,8.343,8.3914,8.4583,8.4716,8.465,8.4512,8.4825,8.5139,8.5158,8.4954,8.4356,8.4144,8.4211,8.4176,8.4176,8.3967,8.379,6.81,6.7775,6.7319,6.6835,6.6626,6.6596,6.6387,6.5998,6.501,6.4562,6.4492,6.3975,6.4186,6.5053,6.5826,6.677,6.8238,6.851,6.8925,6.9244,6.9417,6.9676,7.0015,7.0099,7.0266,7.0481,7.0481,7.053,7.0448,7.053,7.0645,7.0841,7.0955,7.1116,7.1433,7.1511,7.1898,7.2126,7.2499,7.2684,7.3078,7.3359,7.3601,7.3669,7.4006,7.4269,7.4334,7.4427,7.4527,7.4527,7.4463,7.4399,7.4334,7.468,7.4769,7.4582,7.4491,7.4427,7.4463,7.4463,7.4555,7.4707,7.459,7.4555,7.4491,7.4427,7.4239,7.4304,7.4399,7.4334,7.4304,7.4369,7.4304,7.4239,7.4239,7.4239,7.4239,7.4239,7.4239,7.4239,7.4239,7.4239,7.4239,7.4239,7.4239,7.4239,7.4239,7.4239,7.4239,7.4239,7.4475,7.5156,7.716,7.9582,8.1434,8.3349,8.3815,8.4001,8.4313,8.4583,8.4847,8.5167,8.4912,8.4716,8.4988,8.5261,8.5369,8.5266,8.4859,8.456,8.4385,8.4417,8.4552,8.4417,8.4176,6.862,6.8956,6.8605,6.8306,6.8032,6.7942,6.7613,6.6955,6.6267,6.605,6.5772,6.506,6.5038,6.5763,6.5869,6.6577,6.7746,6.8206,6.851,6.8869,6.8925,6.9189,6.959,6.9931,7.0099,7.0266,7.0266,7.0266,7.0349,7.0481,7.0645,7.076,7.0921,7.1036,7.1275,7.1657,7.2016,7.2557,7.3555,7.4053,7.3463,7.4612,7.4466,7.4287,7.4138,7.4239,7.4239,7.4239,7.4239,7.4239,7.4239,7.4239,7.4304,7.4399,7.4463,7.4369,7.4304,7.4304,7.4239,7.4239,7.4269,7.4427,7.4334,7.4334,7.4399,7.4399,7.4239,7.4239,7.4239,7.4239,7.4239,7.4239,7.4239,7.4239,7.4239,7.4239,7.4239,7.4239,7.4239,7.4239,7.4239,7.4239,7.4239,7.4239,7.4239,7.4239,7.4239,7.4239,7.4239,7.4304,7.4399,7.6296,7.9521,8.1418,8.2722,8.3922,8.4342,8.4381,8.4516,8.4752,8.4912,8.523,8.5167,8.4976,8.5167,8.5406,8.5539,8.5478,8.5355,8.5104,8.4847,8.4686,8.4853,8.4919,8.4788,6.9121,6.9773,6.9926,6.9702,6.9378,6.9289,6.872,6.7763,6.7523,6.7543,6.7476,6.6496,6.6515,6.709,6.6787,6.7336,6.8426,6.8482,6.841,6.842,6.851,6.878,6.9101,6.9417,6.9623,6.9794,6.9846,6.9931,7.0099,7.0383,7.0715,7.0999,7.1264,7.1797,7.2108,7.2109,7.2597,7.3181,7.4118,7.4544,7.4157,7.4884,7.5123,7.438,7.4239,7.4239,7.4239,7.4239,7.4239,7.4239,7.4239,7.4239,7.4304,7.4304,7.4304,7.4239,7.4239,7.4239,7.4239,7.4239,7.4239,7.4239,7.4239,7.4304,7.4304,7.4239,7.4239,7.4239,7.4239,7.4239,7.4239,7.4239,7.4239,7.4239,7.4239,7.4239,7.4239,7.4239,7.4239,7.4239,7.4239,7.4239,7.4239,7.4239,7.4239,7.4239,7.4239,7.4239,7.4239,7.4369,7.524,7.8469,8.1533,8.2712,8.3612,8.414,8.4449,8.4381,8.4381,8.4516,8.5104,8.5355,8.5478,8.5355,8.5416,8.5539,8.5539,8.5539,8.5416,8.5355,8.5104,8.4883,8.5076,8.5203,8.514,6.8362,6.9062,6.9773,7.0177,7.0665,7.0605,7.0395,7.0066,6.9169,6.8777,6.8654,6.7906,6.8027,6.8771,6.9064,6.9788,7.0145,6.9706,6.8582,6.8152,6.8023,6.8297,6.86,6.8747,6.8836,6.8836,6.9156,6.9722,6.9979,7.0082,7.1151,7.2373,7.2591,7.3094,7.407,7.4077,7.3657,7.3956,7.4366,7.4298,7.4318,7.4701,7.4908,7.4345,7.4239,7.4239,7.4239,7.4239,7.4239,7.4239,7.4239,7.4239,7.4239,7.4239,7.4239,7.4239,7.4239,7.4239,7.4239,7.4239,7.4239,7.4239,7.4239,7.4239,7.4239,7.4239,7.4239,7.4239,7.4239,7.4239,7.4239,7.4239,7.4239,7.4239,7.4239,7.4239,7.4239,7.4239,7.4239,7.4239,7.4239,7.4239,7.4239,7.4239,7.4239,7.4239,7.4239,7.4239,7.4239,7.4863,7.7668,8.0719,8.2182,8.3364,8.3575,8.3967,8.4037,8.3967,8.3931,8.4481,8.523,8.523,8.5167,8.5293,8.5539,8.5539,8.5539,8.6249,8.6322,8.5575,8.5607,8.6166,8.6013,8.5525,8.5545,6.8351,6.8362,6.9121,6.9773,7.0448,7.0783,7.0934,7.0784,7.0246,7.0126,7.0062,6.9525,6.9654,7.0442,7.0305,7.0584,7.0745,7.009,6.8906,6.8035,6.7838,6.8023,6.8238,6.8238,6.8206,6.8329,6.8723,6.9747,7.0614,7.1173,7.2082,7.3882,7.4187,7.4592,7.4421,7.4423,7.4315,7.4254,7.5277,7.5413,7.4873,7.5647,7.621,7.4591,7.4239,7.4239,7.4274,7.4274,7.4239,7.4239,7.4239,7.4239,7.4239,7.4239,7.4239,7.4239,7.4239,7.4239,7.4239,7.4239,7.4239,7.4239,7.4239,7.4239,7.4239,7.4239,7.4239,7.4239,7.4239,7.4239,7.4239,7.4239,7.4239,7.4239,7.4239,7.4239,7.4239,7.4239,7.4239,7.4239,7.4239,7.4239,7.4239,7.4239,7.4239,7.4239,7.4239,7.4239,7.4239,7.4833,7.8235,8.1631,8.2832,8.3502,8.361,8.361,8.3754,8.3825,8.3861,8.4481,8.523,8.5068,8.4876,8.523,8.5539,8.5539,8.6911,8.7636,8.8168,8.7214,8.6802,8.7488,8.7922,8.8256,8.8157,6.8962,6.8681,6.9142,6.9763,7.0369,7.0834,7.1082,7.0934,7.0904,7.0935,7.1144,7.1001,7.1228,7.1744,7.1288,7.113,7.1508,7.0151,6.9131,6.8164,6.8064,6.7935,6.8354,6.8418,6.8354,6.8608,6.9075,7.0313,7.1644,7.2422,7.3461,7.5202,7.5632,7.5537,7.5007,7.5343,7.4691,7.4438,7.6501,7.66,7.5612,7.7126,7.7478,7.5788,7.5436,7.5225,7.4873,7.4415,7.4239,7.4239,7.4239,7.4239,7.4239,7.4239,7.4239,7.4239,7.4239,7.4239,7.4239,7.4239,7.4239,7.4239,7.4239,7.4239,7.4239,7.4239,7.4239,7.4239,7.4239,7.4239,7.4239,7.4239,7.4239,7.4239,7.4239,7.4239,7.4239,7.4239,7.4239,7.4239,7.4239,7.4239,7.4239,7.4239,7.4239,7.4239,7.4239,7.4239,7.4239,7.4239,7.8107,8.255,8.3575,8.3931,8.3861,8.3682,8.3754,8.3825,8.3967,8.4449,8.5104,8.5167,8.5131,8.5293,8.573,8.738,8.9014,8.9745,8.958,8.8552,8.7777,8.8499,8.9438,9.0991,9.1106,7.0694,7.1125,7.1231,7.1369,7.1355,7.1608,7.1215,7.0962,7.0934,7.0934,7.1205,7.2,7.2149,7.254,7.2179,7.2489,7.2404,7.0372,6.9611,6.9034,6.8614,6.8708,6.9641,6.9738,6.977,6.9899,7.1122,7.2152,7.3009,7.3321,7.463,7.6329,7.6966,7.7152,7.7077,7.6722,7.6017,7.5582,7.6676,7.6884,7.6879,7.797,7.8569,7.7759,7.7654,7.7055,7.6105,7.4978,7.4345,7.4274,7.4239,7.4345,7.4239,7.4239,7.4239,7.4239,7.438,7.438,7.4239,7.4486,7.445,7.445,7.4415,7.4239,7.438,7.431,7.4239,7.4239,7.4239,7.4239,7.4239,7.4239,7.4239,7.4239,7.4239,7.4239,7.4239,7.4239,7.4239,7.4239,7.4239,7.4239,7.4239,7.4239,7.4239,7.4239,7.4304,7.4304,7.4304,7.454,7.7642,8.234,8.3861,8.4278,8.4001,8.3754,8.3896,8.3967,8.4176,8.4583,8.5167,8.5293,8.5355,8.6166,8.7349,8.8958,9.0704,9.0998,9.0712,9.0106,9.0088,9.0196,9.0521,9.2363,9.3157,7.0002,6.9571,6.9267,6.9197,6.9386,7.0376,7.0552,7.0477,7.0813,7.1205,7.1472,7.1567,7.1679,7.1943,7.1846,7.1667,7.1518,7.0212,6.9611,6.9419,6.9289,6.9899,7.0897,7.1219,7.1219,7.1316,7.1831,7.2932,7.4131,7.4677,7.6,7.7681,7.8383,7.8364,7.8163,7.8,7.7645,7.722,7.8323,7.8605,7.8006,7.9343,7.9625,7.878,7.7865,7.7302,7.6527,7.5084,7.4732,7.5436,7.5542,7.5154,7.438,7.4239,7.4239,7.431,7.5119,7.5154,7.4732,7.5964,7.6351,7.5823,7.5583,7.5616,7.5506,7.4697,7.4239,7.431,7.4239,7.4239,7.4239,7.4239,7.4239,7.4274,7.4239,7.4239,7.4239,7.431,7.4239,7.4239,7.4239,7.4239,7.4239,7.4239,7.4239,7.4304,7.4369,7.4334,7.4434,7.4972,7.6864,8.1653,8.4381,8.4548,8.4378,8.4245,8.4245,8.4245,8.4449,8.4976,8.5293,8.5293,8.5427,8.6229,8.8438,9.0399,9.2081,9.312,9.2602,9.2457,9.2717,9.2832,9.3121,9.4277,9.4313,6.9335,6.8606,6.825,6.8083,6.8192,6.9549,7.0156,7.0079,7.0691,7.1085,7.1193,7.0887,7.0979,7.1046,7.0639,7.0384,7.0395,6.993,6.958,6.9323,7.0286,7.1605,7.2024,7.2121,7.1895,7.1638,7.2314,7.3513,7.5175,7.5956,7.7256,7.8853,7.9279,7.9149,7.8588,7.9012,7.8924,7.8559,8.0045,8.0399,7.966,8.054,8.0646,7.9731,7.8217,7.7266,7.702,7.5999,7.607,7.7055,7.7126,7.6633,7.6136,7.5753,7.5542,7.5506,7.6316,7.6598,7.614,7.7478,7.8146,7.7302,7.7096,7.7131,7.7161,7.6132,7.5568,7.5295,7.4521,7.4239,7.4239,7.4239,7.4239,7.431,7.5225,7.5718,7.5471,7.4838,7.4662,7.5154,7.4697,7.438,7.4304,7.4399,7.4463,7.4369,7.4463,7.4618,7.4778,7.5345,7.7624,8.199,8.4912,8.4905,8.484,8.4716,8.4619,8.4583,8.4847,8.5293,8.5355,8.5391,8.5633,8.7065,9.036,9.2153,9.3729,9.4256,9.4661,9.4349,9.4385,9.4199,9.4849,9.4771,9.4662,6.9585,6.9529,6.9642,6.9242,6.8982,7.008,7.0279,7.0109,7.0602,7.0632,7.0308,7.0511,7.0502,7.0149,6.9998,6.9862,6.9771,6.9965,6.9514,6.9482,7.1799,7.299,7.2217,7.2153,7.1573,7.0994,7.2764,7.4391,7.5302,7.6576,7.8407,7.9019,7.9374,7.9641,7.9274,7.9597,7.9661,7.9306,8.0434,8.1209,8.1033,8.1209,8.1596,8.2687,8.0153,7.8639,7.8639,7.8428,7.8428,7.8534,7.8569,7.892,7.9482,7.899,7.7794,7.7161,7.8041,7.8358,7.8463,7.8921,7.9027,7.871,7.8603,7.8672,7.8675,7.8596,7.8522,7.8427,7.6457,7.4802,7.4626,7.4345,7.4415,7.4626,7.6598,7.797,7.8146,7.6034,7.5999,7.7231,7.5999,7.4304,7.4498,7.484,7.4778,7.459,7.4645,7.4953,7.5169,7.618,7.9158,8.2332,8.5547,8.5742,8.5406,8.5293,8.504,8.504,8.5104,8.5355,8.5478,8.5586,8.5791,8.9519,9.2818,9.407,9.4834,9.4081,9.4009,9.4831,9.5307,9.5416,9.5156,9.4605,9.4025,6.7999,6.7916,6.7637,6.7296,6.7334,6.8927,6.9092,6.8532,6.9409,7.0344,7.0756,7.0378,7.0718,7.1762,7.1132,7.0857,7.0924,7.1218,7.0575,6.9931,7.2797,7.3441,7.2282,7.2153,7.1766,7.167,7.241,7.3124,7.3613,7.4932,7.5816,7.6596,7.819,7.9098,7.9381,8.062,8.1394,8.1438,8.2049,8.2511,8.2511,8.2511,8.2793,8.2969,8.135,8.0329,8.0223,8.0223,7.9801,7.9097,7.966,8.0118,8.0117,7.9413,7.8886,7.9132,7.9731,7.9801,7.9097,8.054,8.1315,8.0363,8.0148,8.0183,8.0363,8.1281,8.1634,8.1631,8.0435,7.9203,7.7126,7.5506,7.526,7.6774,7.8217,7.8956,7.9484,7.8674,7.8498,7.7618,7.607,7.507,7.5014,7.5369,7.5014,7.5074,7.5275,7.5507,7.5676,7.5898,8.0057,8.3871,8.5892,8.6217,8.5953,8.5719,8.5478,8.5355,8.5329,8.5416,8.5539,8.5707,8.7153,9.081,9.3925,9.5068,9.538,9.4482,9.4158,9.4759,9.5586,9.4814,9.3679,9.3446,9.2582,6.637,6.6535,6.606,6.5889,6.6234,6.7722,6.8375,6.8053,6.9349,7.0682,7.1389,7.0874,7.1354,7.2437,7.2104,7.1693,7.1888,7.2954,7.2668,7.1831,7.3376,7.3505,7.2282,7.167,7.1477,7.1477,7.1477,7.1542,7.1992,7.3512,7.437,7.4859,7.6925,7.8438,7.9552,8.0916,8.2176,8.2873,8.3244,8.3391,8.3356,8.2899,8.2899,8.3075,8.1385,8.0646,8.1068,8.0997,8.0575,7.9625,8.0928,8.1634,8.1246,8.0611,8.054,8.1209,8.1631,8.1244,8.0611,8.2124,8.2758,8.2089,8.1768,8.1768,8.1983,8.2687,8.3215,8.3286,8.3321,8.2124,7.9238,7.6774,7.7196,7.9907,7.9766,8.0012,8.0963,8.0364,7.9237,7.7613,7.577,7.492,7.5252,7.562,7.5507,7.5712,7.5788,7.606,7.6255,7.6359,7.9056,8.4926,8.5673,8.6384,8.6125,8.5837,8.5599,8.5416,8.5416,8.5539,8.5599,8.6021,8.8396,9.1272,9.3977,9.5457,9.5704,9.5583,9.5366,9.5712,9.45,9.3236,9.2223,9.1282,9.0452,6.4971,6.5406,6.5755,6.5968,6.6339,6.752,6.849,6.9297,7.0545,7.1315,7.1841,7.2147,7.235,7.2136,7.2301,7.2084,7.2601,7.4471,7.4696,7.3505,7.3827,7.3183,7.1895,7.0607,7.0028,7.0221,7.0028,7.028,7.0748,7.2771,7.4115,7.496,7.6163,7.7748,7.9737,8.0154,8.1333,8.2506,8.2863,8.311,8.318,8.1948,8.1948,8.2899,8.047,7.9625,8.0961,8.0997,8.0963,8.0927,8.234,8.333,8.2936,8.2934,8.318,8.3075,8.3251,8.3286,8.318,8.3215,8.3321,8.311,8.3251,8.311,8.3075,8.3251,8.3465,8.343,8.3324,8.2373,7.9731,7.8815,7.9766,8.2406,8.1351,8.1175,8.195,8.0716,7.8062,7.585,7.5151,7.4973,7.4743,7.5334,7.6042,7.6186,7.6255,7.6411,7.6699,7.6834,7.9655,8.4267,8.6237,8.642,8.6273,8.6011,8.5719,8.5502,8.5599,8.5719,8.5837,8.604,8.8239,9.1005,9.3704,9.3441,9.359,9.5239,9.5387,9.4353,9.2762,9.1333,9.0246,8.9242,8.8342,6.4916,6.5323,6.5728,6.5995,6.6444,6.7649,6.8529,6.8962,7.0112,7.138,7.2731,7.3121,7.3855,7.4717,7.4884,7.4434,7.3698,7.3441,7.2732,7.1444,7.138,7.1122,7.0479,6.9223,6.903,6.9738,6.903,6.8608,6.895,7.0626,7.1601,7.2121,7.4668,7.6407,7.7331,7.8565,7.9411,8.0047,8.0259,8.0787,8.1702,8.135,8.1843,8.2652,8.0364,7.9484,8.0926,8.0997,8.0574,8.0012,8.2021,8.2903,8.2054,8.2793,8.3391,8.3391,8.3356,8.3391,8.3391,8.3391,8.3356,8.3356,8.3356,8.3391,8.3391,8.3391,8.3575,8.3719,8.3647,8.3363,8.2481,8.1987,8.1528,8.0538,8.0183,8.0148,8.0328,7.9792,7.8397,7.6516,7.5471,7.5121,7.5252,7.6096,7.6411,7.6291,7.6513,7.6749,7.6931,7.7125,7.8683,8.2442,8.5089,8.631,8.6147,8.6147,8.6068,8.5895,8.5895,8.6031,8.6144,8.6273,8.7696,9.0566,9.1645,9.1168,9.1988,9.3974,9.3887,9.2869,9.1277,8.9777,8.8865,8.7514,8.7312,6.4916,6.5323,6.5862,6.65,6.7101,6.8036,6.8997,6.9939,7.0834,7.2386,7.3956,7.4439,7.5263,7.6378,7.5308,7.4342,7.3473,7.2539,7.1348,7.0092,6.9996,6.9706,6.9191,6.8289,6.8386,6.8997,6.8257,6.7931,6.8297,6.9695,7.0578,7.1195,7.3353,7.5098,7.6116,7.7167,7.8079,7.8605,7.8745,7.9203,8.0153,8.0259,8.0681,8.1491,7.9238,7.8428,7.9414,7.9449,7.9027,7.8041,8.0857,8.1807,8.0646,8.223,8.3039,8.2335,8.1913,8.1702,8.1702,8.1667,8.1702,8.1702,8.1845,8.1846,8.1916,8.2022,8.2053,8.2391,8.3071,8.353,8.3196,8.2367,8.1415,7.9835,7.9153,7.901,7.9231,7.8611,7.8085,7.7381,7.6061,7.5311,7.5732,7.6255,7.6513,7.6374,7.6699,7.6931,7.7016,7.7016,7.8683,8.2478,8.5143,8.6274,8.5707,8.5853,8.6439,8.6237,8.6292,8.6527,8.658,8.6706,8.6653,8.9281,8.9605,8.9223,8.892,9.069,9.0726,8.9907,8.945,8.8262,8.8165,8.7401,8.6856,6.4916,6.5323,6.5968,6.697,6.8334,6.8403,6.9784,7.1994,7.2624,7.3809,7.5112,7.584,7.6177,7.5791,7.328,7.2056,7.2024,7.1799,7.0961,6.9835,6.9802,6.9126,6.7903,6.7838,6.7963,6.8092,6.8023,6.8297,6.8803,7.0266,7.1094,7.1429,7.2611,7.4195,7.5695,7.6044,7.6919,7.8076,7.8217,7.8498,7.8639,7.8569,7.8534,7.8639,7.7231,7.6527,7.6738,7.6633,7.6668,7.6598,7.9413,8.04,7.9308,8.1455,8.2089,8.0575,7.9449,7.885,7.8956,7.9027,7.8991,7.899,7.9511,7.9465,7.9851,7.9715,7.9576,7.8877,8.2388,8.3277,8.0909,7.9869,7.9442,7.9428,7.8556,7.852,7.9596,7.7474,7.676,7.7315,7.6708,7.6115,7.6006,7.6006,7.613,7.6426,7.6749,7.7016,7.7016,7.7016,7.9486,8.3719,8.5325,8.5342,8.3926,8.4913,8.6162,8.6198,8.6348,8.721,8.7161,8.7161,8.7026,8.7284,8.7713,8.7638,8.6999,8.7022,8.7641,8.7694,8.7396,8.7301,8.7454,8.7037,8.6825,6.4916,6.5323,6.5862,6.6867,6.8403,6.7939,6.9678,7.2571,7.2159,7.2914,7.4517,7.4723,7.431,7.3151,7.1412,7.0575,7.0414,6.948,6.8772,6.8482,6.845,6.8225,6.7995,6.8238,6.842,6.851,6.8915,6.9405,6.9831,7.1173,7.1837,7.2145,7.3008,7.3844,7.4466,7.467,7.5049,7.5471,7.5471,7.5999,7.6879,7.6034,7.5999,7.6914,7.5682,7.5401,7.6492,7.6562,7.6562,7.6598,7.8358,7.9484,7.9766,7.9203,7.9343,8.0047,7.9308,7.8745,7.8745,7.8745,7.8814,7.9123,7.9324,7.9551,7.9442,7.8301,7.8261,7.9554,7.9532,7.9165,7.7773,7.712,7.6856,7.7104,7.6816,7.6782,7.7342,7.6783,7.6223,7.6419,7.667,7.6513,7.6113,7.6006,7.6113,7.6338,7.6749,7.7016,7.7016,7.7162,7.8282,8.2114,8.0982,7.9767,7.9474,8.2952,8.5741,8.5874,8.6341,8.7269,8.7221,8.7221,8.7173,8.5396,8.6595,8.6941,8.7013,8.694,8.7333,8.71,8.7087,8.7124,8.7014,8.7136,8.7063,6.4916,6.5323,6.5995,6.7077,6.8187,6.7684,6.906,7.1668,7.1387,7.2056,7.3212,7.2764,7.1734,7.035,6.9513,6.9094,6.9062,6.8225,6.7838,6.7838,6.7931,6.8023,6.8023,6.842,6.878,6.9068,6.9491,7.0016,7.0673,7.1497,7.2213,7.2725,7.3324,7.3805,7.4002,7.4204,7.4239,7.4239,7.4239,7.4697,7.5366,7.4732,7.4662,7.5401,7.4697,7.4732,7.5471,7.5612,7.5612,7.5718,7.709,7.7865,7.783,7.7442,7.7374,7.7689,7.7231,7.6914,7.6982,7.7046,7.7112,7.7374,7.7638,7.7792,7.7932,7.6996,7.6926,7.8336,7.769,7.6785,7.6468,7.6239,7.6149,7.6166,7.6323,7.6498,7.6672,7.6549,7.6462,7.6344,7.6686,7.6834,7.6498,7.6166,7.6166,7.6338,7.6712,7.7016,7.7016,7.7016,7.7807,7.9048,7.8245,7.7429,7.8762,8.1792,8.2914,8.3806,8.5538,8.6053,8.5574,8.5685,8.609,8.3401,8.5427,8.7011,8.7011,8.6559,8.5885,8.7184,8.721,8.7161,8.7125,8.7221,8.6658,6.4916,6.5431,6.6171,6.7273,6.81,6.7513,6.8338,7.0097,7.0427,7.1105,7.1541,7.0382,6.9094,6.7935,6.7903,6.7903,6.7903,6.7838,6.7838,6.7931,6.8114,6.8206,6.8329,6.8478,6.9013,6.9557,6.9915,7.0592,7.1429,7.1769,7.24,7.3324,7.3566,7.3908,7.4239,7.4239,7.4239,7.4239,7.4239,7.4239,7.4239,7.4239,7.4239,7.4239,7.4239,7.4239,7.4345,7.4239,7.4239,7.4345,7.5612,7.5718,7.4662,7.5929,7.614,7.4486,7.4375,7.4334,7.4498,7.4582,7.4814,7.4672,7.5227,7.5479,7.5467,7.5461,7.5555,7.6151,7.6571,7.6498,7.6149,7.6498,7.665,7.6338,7.6563,7.6883,7.6834,7.6883,7.6931,7.7016,7.6968,7.7016,7.6883,7.6462,7.6271,7.6476,7.6798,7.7016,7.7016,7.7016,7.7271,7.7162,7.7052,7.7926,7.9303,7.8894,8.0189,8.2075,8.458,8.4064,8.2517,8.3327,8.5427,8.2554,8.3769,8.5795,8.5344,8.4697,8.3621,8.5528,8.6753,8.7074,8.6743,8.6338,8.5396,6.5052,6.5617,6.5145,6.5839,6.7141,6.6776,6.8271,7.0701,6.995,6.9322,6.8869,6.8482,6.8128,6.7838,6.7838,6.7838,6.7838,6.7838,6.7931,6.8147,6.8206,6.8329,6.851,6.8925,6.9276,6.9676,7.074,7.154,7.2179,7.2975,7.3668,7.3971,7.4108,7.4174,7.4239,7.4239,7.4239,7.4239,7.4239,7.4239,7.4239,7.4239,7.4239,7.4239,7.4239,7.4239,7.4239,7.4239,7.4239,7.4239,7.4591,7.4626,7.4274,7.4792,7.4828,7.4375,7.4427,7.4582,7.4582,7.461,7.4769,7.5085,7.5265,7.5463,7.5456,7.3335,7.2777,7.5225,7.5656,7.5712,7.588,7.613,7.6166,7.6113,7.6166,7.611,7.6219,7.6426,7.6627,7.6931,7.7016,7.6943,7.6968,7.6834,7.6749,7.6798,7.6931,7.7016,7.7016,7.7016,7.7016,7.7016,7.7016,7.7497,7.8114,7.96,8.0933,8.097,8.0631,7.9821,7.9269,7.8974,8.0115,8.388,8.4228,8.2753,8.0601,8.0864,8.2555,8.3567,8.5491,8.619,8.4088,8.2975,8.1742,6.4469,6.4966,6.4737,6.4943,6.5622,6.6293,6.7579,6.8993,6.8715,6.8265,6.7871,6.7838,6.7838,6.7838,6.7838,6.7838,6.7838,6.7838,6.7931,6.8055,6.8297,6.851,6.869,6.9013,6.9417,6.9898,7.0867,7.1608,7.2213,7.3115,7.377,7.3975,7.4174,7.4239,7.4239,7.4239,7.4239,7.4204,7.2848,7.211,7.2127,7.2092,7.2092,7.2127,7.3535,7.4239,7.4239,7.4239,7.4239,7.4239,7.4239,7.4239,7.4239,7.3728,7.3234,7.2987,7.2679,7.2518,7.2604,7.2604,7.2759,7.31,7.3122,7.3314,7.3537,7.1719,7.1592,7.3912,7.4846,7.4989,7.442,7.4455,7.4365,7.4068,7.4466,7.4398,7.4,7.461,7.5668,7.6639,7.5831,7.5465,7.6797,7.7016,7.7016,7.7016,7.7016,7.7016,7.7016,7.7074,7.7037,7.6979,7.7167,7.7357,7.7643,7.9158,7.9747,7.9409,7.8136,7.7468,7.7452,7.7612,7.9041,8.1792,8.1449,7.9496,7.7982,7.8899,8.0533,8.1682,8.3878,8.4135,8.2743,8.1547,8.0605,6.3326,6.3592,6.4161,6.4215,6.4222,6.5631,6.6398,6.6738,6.7018,6.7227,6.7227,6.7227,6.7227,6.7227,6.7227,6.7227,6.7259,6.7259,6.7318,6.7442,6.7893,6.8192,6.8248,6.8652,6.9098,6.9648,7.0101,7.0764,7.1521,7.2315,7.3007,7.3388,7.3756,7.3993,7.4204,7.4239,7.4134,7.3887,7.1314,7.0024,7.0261,7.0261,7.0085,6.9804,7.262,7.4063,7.3641,7.3993,7.4063,7.367,7.3635,7.3424,7.3001,7.2025,7.138,7.1193,7.0533,7.006,7.0234,7.0198,7.0348,7.0531,7.0531,7.0536,7.0503,7.0216,7.0574,7.1884,7.2915,7.3452,7.2746,7.2439,7.2215,7.1899,7.2394,7.2236,7.0798,7.2368,7.4432,7.6614,7.4304,7.3653,7.6358,7.7016,7.7016,7.6979,7.6614,7.6541,7.6479,7.6627,7.6681,7.7076,7.7071,7.7017,7.7342,7.7532,7.771,7.7365,7.7296,7.7223,7.7446,7.7446,7.7549,7.7406,7.7798,7.7578,7.7147,7.7121,7.8459,8.0348,8.1034,8.1302,8.1166,8.0432,7.9643,6.1933,6.1853,6.1432,6.2299,6.3946,6.3966,6.5083,6.6897,6.4878,0.0,0.0,6.4265,6.4265,6.4297,6.4265,6.4297,6.4297,6.4297,6.4645,6.5191,6.5476,6.5939,6.6504,6.6753,6.6987,6.7293,6.8037,6.8539,6.8922,6.973,7.0846,7.2134,7.2303,7.2937,7.4169,7.4239,7.357,7.2373,7.181,7.2127,7.3394,7.3394,7.2197,6.9663,7.262,7.3042,7.0578,7.2866,7.3107,7.0763,7.0587,6.9422,6.7102,6.7946,6.9181,7.0561,7.0526,7.0475,7.0475,7.0475,7.0531,7.0531,7.0531,6.9961,6.8659,6.7702,6.7875,6.9464,6.8231,6.8892,7.2312,7.1462,7.0812,7.1403,7.1535,7.0667,6.8545,7.0338,7.3345,7.5946,7.4104,7.3327,7.6249,7.676,7.7016,7.6797,7.5784,7.5063,7.4926,7.4157,7.449,7.6903,7.5233,7.451,7.6453,7.7186,7.7195,7.7239,7.7328,7.7452,7.7459,7.7276,7.7084,7.6928,7.7147,7.7111,7.7016,7.7011,7.7586,7.7794,7.7867,7.7926,7.7937,7.6159,7.4965,5.9559,5.9249,5.8965,6.0042,0.0,6.2219,6.3329,6.4736,6.3784,6.3437,6.3492,6.3492,6.3492,6.3492,6.3492,6.3643,6.3761,6.3761,6.3986,6.4375,6.4789,6.5388,6.594,6.6325,6.6634,6.6856,6.7291,6.7714,6.806,6.8597,6.9406,7.0397,7.0657,7.0719,7.0719,7.1493,7.1529,7.0754,6.9196,6.8773,6.9487,6.9487,6.8818,6.741,7.0261,0.0,0.0,0.0,0.0,0.0,0.0,0.0,0.0,6.3105,0.0,6.7749,6.2161,5.8361,5.7735,5.8415,6.0195,6.3188,6.3496,6.2782,6.1161,6.4146,6.4579,6.1061,6.3832,6.6948,6.9709,6.8916,6.8423,6.9082,6.9191,6.8792,6.7906,6.8821,7.1582,7.5482,7.2884,7.0484,7.217,7.3587,7.4633,7.4633,7.4027,7.3741,7.3997,7.2202,7.1988,7.5577,7.3097,7.2247,7.648,7.7495,7.7409,7.7158,7.6263,7.5277,7.4532,7.6185,7.7121,7.5822,7.6406,7.6545,7.5534,7.5251,7.5705,7.6672,7.7131,7.6961,7.5381,7.4058,7.3319,5.7263,5.6878,5.7065,5.8177,5.969,6.0427,6.1164,6.1881,6.2493,6.2751,6.2751,6.2751,6.2719,6.2751,6.2751,6.2837,6.3156,6.3188,6.3292,6.3559,6.4096,6.4573,6.4995,6.5601,6.6042,6.6333,6.6543,6.6787,6.7198,6.7532,6.8032,6.8665,6.9048,6.8677,6.7797,0.0,0.0,0.0,6.6354,6.5544,6.5791,6.5791,6.5544,6.5016,6.7973,0.0,6.8783,6.9311,6.9372,6.8928,6.8917,0.0,0.0,0.0,0.0,0.0,0.0,0.0,0.0,0.0,0.0,0.0,5.3652,5.3473,5.3497,6.0519,6.2223,5.581,6.1564,6.6379,6.7385,6.6452,6.6102,6.6885,6.7002,6.7139,6.7591,6.7589,6.9416,7.4515,7.0892,6.7892,6.8186,6.9984,7.1589,7.1667,7.1891,7.2377,7.2855,7.0397,6.9754,7.2357,7.0758,7.0637,7.5683,7.7093,7.7521,7.6414,7.4355,7.2165,7.1359,7.3984,7.5281,7.4437,7.5185,7.5393,7.2871,7.235,7.2874,7.4928,7.6055,7.5866,7.3015,7.2341,7.2564,5.6061,5.5648,5.6419,5.7516,5.8789,5.8515,5.8652,5.9224,5.9589,5.964,5.964,5.9804,5.9854,5.9854,5.9854,5.9935,6.021,6.045,6.0812,6.1243,6.1579,6.1992,6.2532,6.2919,6.3334,6.3636,6.4159,6.4539,6.4751,6.5097,6.5977,6.7456,6.7551,6.8149,6.9135,6.6777,6.484,6.3538,6.5791,6.7621,6.8994,6.9029,6.7692,6.5228,6.7973,6.8361,6.5756,6.8185,6.8385,6.5914,6.585,6.5571,6.481,6.3493,5.87,0.0,5.045,0.0,0.0,0.0,0.0,0.0,0.0,0.0,0.0,5.7984,6.3268,6.3961,6.5658,6.6796,6.6966,6.5518,6.5139,6.6524,6.6705,6.6796,6.6973,6.706,6.7599,6.8883,6.8218,6.774,6.7818,6.8113,6.8481,6.8739,6.9809,7.0363,6.9427,6.8823,6.8558,6.8967,6.8707,6.8739,7.034,7.4573,7.6911,7.4056,7.1342,6.9041,6.8934,6.956,7.0536,7.2354,7.3245,7.2678,6.9598,6.9115,6.9305,6.9872,7.2021,7.2758,7.0154,6.9333,7.0001,5.4051,5.3667,5.4782,5.5265,5.5282,5.5401,5.5566,5.5842,5.639,5.6581,5.666,5.6754,5.691,5.6988,5.702,5.7066,5.7329,5.7406,5.7751,5.8196,5.8702,5.9368,5.9971,6.0521,6.1502,6.2784,6.3033,6.3511,6.4373,6.4597,6.503,6.5637,6.585,6.4115,6.0809,6.3503,6.4594,6.3925,6.5263,6.6319,6.6988,6.6988,6.6354,6.5016,6.6319,6.6354,6.4981,6.6284,6.647,6.5319,6.5268,6.5342,6.5362,5.7607,5.0414,0.0,0.0,0.0,0.0,0.0,0.0,0.0,0.0,0.0,0.0,0.0,5.1665,4.1044,5.3117,6.2055,6.3511,6.0877,5.9789,6.1516,5.9258,5.9328,6.3712,6.3757,6.4578,6.718,6.7628,6.778,6.7855,6.7965,6.8073,6.814,6.8804,6.9057,6.8521,6.8404,6.8404,6.8404,6.8404,6.8404,6.8404,7.0967,7.2304,7.0818,6.937,6.8404,6.8404,6.8404,6.8786,7.0023,7.0455,7.0066,6.8739,6.8404,6.8404,6.859,6.963,6.9964,6.8702,6.8404,6.8702,5.2348,5.2058,5.2666,5.256,5.2062,5.2579,5.3004,5.3256,5.3607,5.3739,5.3739,5.3825,5.347,5.2609,5.2429,5.2603,5.303,5.4145,5.5011,5.5655,5.6682,5.7488,5.8066,5.8684,5.9933,6.1586,6.1691,6.2229,6.3255,6.3535,6.2799,6.1193,6.1403,5.8769,5.3692,5.9156,6.3045,6.4911,6.4911,6.4911,6.4911,6.4911,6.4911,6.4911,6.4968,6.4968,6.4968,6.5025,6.4961,6.4792,6.5165,6.5184,6.4502,5.2342,0.0,0.0,0.0,0.0,0.0,0.0,0.0,0.0,0.0,3.5555,2.5871,0.0,3.7266,0.0,4.0555,5.6612,6.079,5.6628,0.0,0.0,5.3176,5.1867,5.5005,5.8938,6.2929,6.6914,6.6969,6.6418,6.5751,6.7181,6.8316,6.841,6.7959,6.755,6.7328,6.7847,6.8404,6.8404,6.8404,6.8404,6.8404,6.8404,6.8553,6.8404,6.8442,6.8404,6.8404,6.8404,6.8404,6.8404,6.8404,6.8404,6.8442,6.8404,6.8404,6.8404,6.8404,6.8404,6.8404,6.8404,6.8442,5.1489,5.1596,4.9746,4.9635,5.0655,5.0876,5.1576,5.2695,5.1591,5.1219,5.1219,5.1187,4.91,4.5362,4.4486,0.0,4.6141,5.0659,5.3298,5.4621,5.6318,5.7154,5.7222,5.7784,5.8357,5.9061,5.9389,5.9724,6.027,6.0544,5.7576,5.18,5.1912,5.2427,5.3235,5.3833,5.7714,6.477,6.4876,6.4911,6.4911,6.4911,6.4911,6.4911,6.5025,6.5102,6.5102,6.5213,6.4595,6.3285,6.4722,6.4395,6.1327,0.0,0.0,0.0,0.0,0.0,0.0,0.0,0.0,0.0,0.0,0.0,0.0,0.0,0.0,1.5608,3.5266,0.0,6.1084,5.4729,0.0,0.0,0.0,4.7158,3.7339,5.2407,6.4636,6.7449,0.0,0.0,5.9779,6.4661,6.8373,6.8404,6.6659,6.5025,6.4097,6.6548,6.8404,6.8404,6.8404,6.8404,6.8145,6.7996,6.7959,6.833,6.8404,6.8293,6.8404,6.8404,6.8404,6.8404,6.8404,6.8404,6.8404,6.8113,6.8404,6.833,6.8404,6.8404,6.8182,6.8182,6.8182,4.6084,4.1569,4.0056,4.1083,4.3734,4.2994,4.4895,4.8525,4.7124,4.6172,4.5373,4.4668,4.1972,3.8005,3.6855,0.0,0.0,0.0,4.4191,4.6385,4.8248,5.0207,5.1932,5.2349,5.3789,5.604,5.6256,5.7336,5.9285,5.9795,5.1595,3.5793,0.0,4.2377,3.9496,4.7578,5.4302,5.9173,6.206,6.396,6.4876,6.4911,6.4968,6.4989,6.4274,6.3833,6.3833,6.2966,6.0503,5.6179,5.9756,5.4806,0.0,0.0,0.0,0.0,0.0,0.0,0.0,0.0,0.0,0.0,0.0,2.2009,1.6225,0.0,0.0,0.0,2.828,4.0349,4.9637,4.7611,0.0,0.0,0.0,0.0,0.0,0.0,0.0,6.3842,5.5301,5.0323,5.5233,6.146,6.5477,6.5508,6.1349,5.9603,6.3094,0.0,6.8404,6.8404,6.8404,6.7773,6.5774,6.3837,6.3948,6.7773,6.6845,6.6108,6.7959,6.8404,6.8404,6.8404,6.8404,6.8404,6.8404,6.513,6.3585,6.7524,6.8404,6.7704,6.5811,6.5991,6.643,3.9326,0.0,0.0,0.0,0.0,3.6102,3.8378,4.274,4.0994,3.9554,3.8186,3.6976,0.0,0.0,0.0,0.0,0.0,0.0,3.7576,3.9963,4.3566,4.6399,4.8449,4.8806,5.0272,5.2846,5.2881,5.3327,5.4193,5.2511,4.2279,2.445,0.0,0.0,0.0,0.0,4.9344,5.4232,5.9314,6.2447,6.3629,6.3664,6.3685,6.385,6.2435,6.1672,6.1637,5.8886,5.4923,4.971,4.8367,0.0,0.0,0.0,0.0,0.0,0.0,0.0,0.0,0.0,0.0,0.0,0.0,0.0,0.0,0.0,0.0,0.0,0.0,0.0,3.8931,4.0188,3.9877,0.0,0.0,0.0,0.0,0.0,0.0,0.0,0.0,0.0,5.1173,5.6001,5.9046,0.0,0.0,5.5555,6.016,6.3577,6.5991,6.6919,6.7036,0.0,6.399,6.0902,6.0679,6.6259,6.5167,6.3577,6.3792,6.6362,6.7619,6.4994,6.672,6.7068,6.3725,5.8988,5.8485,6.3851,6.4572,6.3189,6.1963,6.2483,6.3106,0.0,0.0,0.0,0.0,3.2636,0.0,0.0,0.0,3.3112,3.1315,0.0,2.8641,0.0,0.0,0.0,0.0,2.0615,3.0326,0.0,0.0,4.4436,4.8188,4.8064,4.8361,4.8826,4.9091,4.8975,4.6955,4.2937,3.5731,0.0,0.0,0.0,0.0,0.0,0.0,4.1923,5.083,5.7096,6.0388,6.0564,6.0564,6.0616,6.0735,5.9397,5.8593,5.8344,5.2745,4.8124,4.4809,2.9053,0.0,0.0,0.0,0.0,0.0,0.0,0.0,0.0,0.0,0.0,0.0,0.0,0.0,0.0,0.0,0.0,0.0,0.0,0.0,0.0,3.3257,0.0,0.0,0.0,0.0,0.0,0.0,0.0,0.0,0.0,3.7992,4.7497,4.7497,4.8165,5.355,0.0,0.0,0.0,0.0,6.0123,6.3317,6.3733,6.3775,6.3798,6.1131,6.0173,6.3549,0.0,0.0,5.4057,6.1331,6.5143,5.7691,6.2882,6.4431,5.2089,4.9577,5.1396,5.7465,5.5618,5.3904,5.6055,5.7095,5.7654,0.0,0.0,0.0,0.0,0.0,0.0,0.0,0.0,0.0,2.5331,2.3985,2.2634,0.0,0.0,0.0,0.0,0.0,0.0,0.0,0.0,3.4254,3.7203,3.6914,4.005,4.1122,4.0164,3.8234,3.4106,0.0,0.0,0.0,0.0,0.0,0.0,0.0,0.0,3.7102,4.3473,5.1534,5.6181,5.7217,5.7337,5.7437,5.7632,5.7195,5.4587,4.9506,4.6414,4.2312,0.0,0.0,0.0,0.0,0.0,0.0,0.0,0.0,0.0,0.0,0.0,0.0,0.0,0.0,0.0,0.0,0.0,0.0,0.0,0.0,0.0,0.0,0.0,3.2897,0.0,0.0,0.0,0.0,0.0,0.0,0.0,0.0,0.0,3.5391,4.0404,4.6086,5.2956,5.2028,5.0653,5.0677,0.0,0.0,0.0,0.0,0.0,0.0,0.0,5.6936,6.0051,6.2223,5.9201,4.6118,4.3588,4.6931,5.7824,0.0,0.0,4.5232,4.1029,4.1463,4.8043,4.6454,4.4156,4.5076,4.5747,4.5281,0.0,0.0,0.0,0.0,0.0,0.0,0.0,0.0,0.0,1.9564,1.8263,0.0,0.0,0.0,0.0,0.0,0.0,0.0,0.0,0.0,0.0,0.0,3.0159,3.3772,0.0,0.0,0.0,0.0,0.0,0.0,0.0,0.0,0.0,0.0,0.0,0.0,3.3752,3.8123,4.7563,5.3059,5.4128,5.4257,5.4396,5.4568,5.4658,5.1214,4.3953,0.0,0.0,0.0,0.0,0.0,0.0,0.0,0.0,0.0,0.0,0.0,0.0,0.0,0.0,0.0,0.0,0.0,0.0,0.0,0.0,0.0,0.0,0.0,0.0,0.0,3.3596,0.0,0.0,0.0,0.0,0.0,0.0,0.0,0.0,0.0,0.0,3.6282,4.3969,5.1248,4.9711,4.815,4.8894,4.9005,5.2075,0.0,0.0,0.0,0.0,0.0,0.0,0.0,0.0,0.0,0.0,0.0,0.0,0.0,0.0,5.1453,3.8727,3.5613,3.5861,3.8871,0.0,0.0,0.0,0.0,0.0,0.0,0.0,0.0,0.0,0.0,0.0,0.0,0.0,0.0,0.0,1.2531,0.0,0.0,0.8679,0.0,0.0,0.0,0.0,0.0,0.0,0.0,0.0,0.0,0.0,0.0,0.0,0.0,0.0,0.0,0.0,0.0,0.0,0.0,0.0,0.0,0.0,3.1646,3.4845,4.5493,5.1051,5.1217,5.1344,5.1464,5.1582,5.1623,4.8623,4.228,0.0,0.0,0.0,0.0,0.0,0.0,0.0,0.0,0.0,0.0,0.0,0.0,0.0,0.0,0.0,0.0,0.0,0.0,0.0,0.0,0.0,0.0,0.0,0.0,0.0,0.0,2.6339,3.0391,3.297,0.0,0.0,0.0,0.0,0.0,0.0,0.0,0.0,0.0,4.8039,4.7088,4.6569,4.8819,4.9116,5.1475,5.7841,5.9005,5.8462,5.6315,5.2425,5.0244,0.0,0.0,0.0,0.0,0.0,0.0,0.0,0.0,0.0,0.0,0.0,0.0,0.0,0.0,0.0,0.0,0.0,0.0,0.0,0.0,0.0,0.0,0.0,0.0,0.0,0.0,0.0,0.0,0.0,0.0,0.0,0.0,0.0,0.0,0.0,0.0,0.0,0.0,0.0,0.0,0.0,0.0,0.0,0.0,0.0,0.0,0.0,0.0,0.0,0.0,0.0,0.0,0.0,0.0,3.0027,3.3153,4.2736,4.7746,4.7752,4.7951,4.8107,4.8182,4.8299,4.6023,0.0,0.0,0.0,0.0,0.0,0.0,0.0,0.0,0.0,0.0,0.0,0.0,0.0,0.0,0.0,0.0,0.0,0.0,0.0,0.0,0.0,0.0,0.0,0.0,0.0,0.0,0.0,0.0,3.5566,3.5696,3.1255,0.0,0.0,0.0,0.0,0.0,0.0,0.0,0.0,0.0,0.0,4.9064,5.2093,5.2433,5.2335,5.2019,5.2085,5.239,5.3211,5.127,4.8774,4.6148,0.0,0.0,0.0,0.0,0.0,0.0,0.0,0.0,0.0,0.0,0.0,0.0,0.0,0.0,0.0,0.0,0.0,0.0,0.0,0.0,0.0,0.0,0.0,0.0,0.0,0.0,0.0,0.0,0.0,0.0,0.0,0.0,0.0,0.0,0.0,0.0,0.0,0.0,0.0,0.0,0.0,0.0,0.0,0.0,0.0,0.0,0.0,0.0,0.0,0.0,0.0,0.0,0.0,2.9384,3.2576,4.1682,4.6416,4.6491,4.6683,4.6796,4.6796,4.691,4.4273,0.0,0.0,0.0,0.0,0.0,0.0,0.0,0.0,0.0,0.0,0.0,0.0,0.0,0.0,0.0,0.0,0.0,0.0,0.0,0.0,0.0,0.0,0.0,0.0,0.0,0.0,0.0,0.0,3.3191,3.507,3.2712,0.0,0.0,0.0,0.0,0.0,0.0,0.0,0.0,0.0,0.0,4.8321,5.1624,5.3079,0.0,0.0,5.2064,5.2633,5.2294,5.0682,4.7108,4.0197,4.0324,0.0,0.0,0.0,0.0,0.0,0.0,0.0,0.0,0.0,0.0,0.0,0.0,0.0,0.0,0.0,0.0,0.0,0.0,0.0,0.0,0.0,0.0,0.0,0.0,0.0,0.0,0.0,0.0,0.0,0.0,0.0,0.0,0.0,0.0,0.0,0.0,0.0,0.0,0.0,0.0,0.0,0.0,0.0,0.0,0.0,0.0,0.0,0.0,0.0,0.0,0.0,0.0,2.9576,3.3006,4.2178,4.7038,4.7154,4.7231,4.7342,4.7342,4.7342,4.3631,0.0,0.0,0.0,0.0,0.0,0.0,0.0,0.0,0.0,0.0,0.0,0.0,0.0,0.0,0.0,0.0,0.0,0.0,0.0,0.0,0.0,0.0,0.0,0.0,0.0,0.0,0.0,0.0,0.0,0.0,0.0,0.0,0.0,0.0,0.0,0.0,0.0,0.0,0.0,0.0,0.0,4.5608,4.9154,5.1842,5.3577,0.0,5.6607,5.7156,5.2694,5.0663,4.6102,3.5618,0.0,0.0,0.0,0.0,0.0,0.0,0.0,0.0,0.0,0.0,0.0,0.0,0.0,0.0,0.0,0.0,0.0,0.0,0.0,0.0,0.0,0.0,0.0,0.0,0.0,0.0,0.0,0.0,0.0,0.0,0.0,0.0,0.0,0.0,0.0,0.0,0.0,0.0,0.0,0.0,0.0,0.0,0.0,0.0,0.0,0.0,0.0,0.0,0.0,0.0,0.0,0.0,0.0,0.0,3.4381,4.4652,5.0033,5.0076,5.016,5.0278,5.0396,5.0513,0.0,0.0,0.0,0.0,0.0,0.0,0.0,0.0,0.0,0.0,0.0,0.0,0.0,0.0,0.0,0.0,0.0,0.0,0.0,0.0,0.0,0.0,0.0,0.0,0.0,0.0,0.0,1.4006,0.0,0.0,0.0,0.0,0.0,0.0,0.0,0.0,0.0,0.0,0.0,0.0,0.0,0.0,4.8395,5.5321,5.277,4.9434,0.0,0.0,5.6115,4.8678,5.2428,5.2629,0.0,0.0,0.0,0.0,0.0,0.0,0.0,0.0,0.0,0.0,0.0,0.0,0.0,0.0,0.0,0.0,0.0,0.0,0.0,0.0,0.0,0.0,0.0,0.0,0.0,0.0,0.0,0.0,0.0,0.0,0.0,0.0,0.0,0.0,0.0,0.0,0.0,0.0,0.0,0.0,0.0,0.0,0.0,0.0,0.0,0.0,0.0,0.0,0.0,0.0,0.0,0.0,0.0,0.0,2.9096,3.5001,4.2992,4.8558,5.1224,5.1451,5.1528,5.1612,5.1653,4.6917,0.0,0.0,0.0,0.0,0.0,0.0,0.0,0.0,0.0,0.0,0.0,0.0,0.0,0.0,0.0,0.0,0.0,0.0,0.0,0.0,0.0,0.0,0.0,0.0,0.0,0.0,0.0,0.0,0.0,0.0,0.0,0.0,0.0,0.0,0.0,0.0,0.0,0.0,0.0,0.0,0.0,0.0,5.3835,5.2547,0.0,0.0,0.0,4.8811,4.3869,0.0,0.0,0.0,0.0,0.0,0.0,0.0,0.0,0.0,0.0,0.0,0.0,0.0,0.0,0.0,0.0,0.0,0.0,0.0,0.0,0.0,0.0,0.0,0.0,0.0,0.0,0.0,0.0,0.0,0.0,0.0,0.0,0.0,0.0,0.0,0.0,0.0,0.0,0.0,0.0,0.0,0.0,0.0,0.0,0.0,0.0,0.0,0.0,0.0,0.0,0.0,0.0,0.0,0.0,0.0,0.0,0.0,3.5219,4.0828,4.6443,5.1903,5.2224,5.2188,5.223,5.2265,4.774,0.0,0.0,0.0,0.0,0.0,0.0,0.0,0.0,0.0,0.0,0.0,0.0,0.0,0.0,0.0,0.0,0.0,0.0,0.0,0.0,0.0,0.0,0.0,0.0,0.0,0.0,0.0,0.0,0.0,0.0,0.0,0.0,0.0,0.0,0.0,0.0,0.0,0.0,0.0,0.0,0.0,4.8321,4.8894,5.1146,4.9279,0.0,0.0,3.7938,3.9339,4.5288,0.0,0.0,0.0,0.0,0.0,0.0,0.0,0.0,0.0,0.0,0.0,0.0,0.0,0.0,0.0,0.0,0.0,0.0,0.0,0.0,0.0,0.0,0.0,0.0,0.0,0.0,0.0,0.0,0.0,0.0,0.0,0.0,0.0,0.0,0.0,0.0,0.0,0.0,0.0,0.0,0.0,0.0,0.0,0.0,0.0,0.0,0.0,0.0,0.0,0.0,0.0,0.0,0.0,0.0,0.0,0.0,3.7079,4.7716,5.3982,5.5201,5.5307,5.5352,5.5476,5.5615,5.0111,0.0,0.0,0.0,0.0,0.0,0.0,0.0,0.0,0.0,0.0,0.0,0.0,0.0,0.0,0.0,0.0,0.0,0.0,0.0,0.0,0.0,0.0,0.0,0.0,0.0,0.0,0.0,0.0,0.0,0.0,0.0,0.0,0.0,0.0,0.0,0.0,0.0,0.0,0.0,0.0,0.0,4.4493,4.8411,4.7407,0.0,0.0,0.0,0.0,3.7874,4.4938,0.0,0.0,0.0,0.0,0.0,0.0,0.0,0.0,0.0,0.0,0.0,0.0,0.0,0.0,0.0,0.0,0.0,0.0,0.0,0.0,0.0,0.0,0.0,0.0,0.0,0.0,0.0,0.0,0.0,0.0,0.0,0.0,0.0,0.0,0.0,0.0,0.0,0.0,0.0,0.0,0.0,0.0,0.0,0.0,0.0,0.0,0.0,0.0,0.0,0.0,0.0,0.0,0.0,0.0,0.0,0.0,4.1611,4.8288,5.3172,5.6171,5.6314,5.6368,5.6545,5.6675,5.0797,0.0,0.0,0.0,0.0,0.0,0.0,0.0,0.0,0.0,0.0,0.0,0.0,0.0,0.0,0.0,0.0,0.0,0.0,0.0,0.0,0.0,0.0,0.0,0.0,0.0,0.0,0.0,0.0,0.0,0.0,0.0,0.0,0.0,0.0,0.0,0.0,0.0,0.0,0.0,0.0,3.9135,4.405,5.0545,0.0,0.0,0.0,0.0,0.0,0.0,4.3651,4.6462,0.0,0.0,0.0,0.0,0.0,0.0,0.0,0.0,0.0,0.0,0.0,0.0,0.0,0.0,0.0,0.0,0.0,0.0,0.0,0.0,0.0,0.0,0.0,0.0,0.0,0.0,0.0,0.0,0.0,0.0,0.0,0.0,0.0,0.0,0.0,0.0,0.0,0.0,0.0,0.0,0.0,0.0,0.0,0.0,0.0,0.0,0.0,0.0,0.0,0.0,0.0,0.0,0.0,0.0,0.0,4.4556,4.6161,4.9978,5.6145,5.6323,5.6493,5.6675,5.6502,5.0549,3.8588,0.0,0.0,0.0,0.0,0.0,0.0,0.0,0.0,0.0,0.0,0.0,0.0,0.0,0.0,0.0,0.0,0.0,0.0,0.0,0.0,0.0,0.0,0.0,0.0,0.0,0.0,0.0,0.0,0.0,0.0,0.0,0.0,0.0,0.0,0.0,0.0,0.0,0.0,0.0,3.6725,4.3004,0.0,0.0,0.0,0.0,0.0,0.0,0.0,0.0,4.9522,0.0,0.0,0.0,0.0,0.0,0.0,0.0,0.0,0.0,0.0,0.0,0.0,0.0,0.0,0.0,0.0,0.0,0.0,0.0,0.0,0.0,0.0,0.0,0.0,0.0,0.0,0.0,0.0,0.0,0.0,0.0,0.0,0.0,0.0,0.0,0.0,0.0,0.0,0.0,0.0,0.0,0.0,0.0,0.0,0.0,0.0,0.0,0.0,0.0,0.0,0.0,0.0,0.0,0.0,0.0,0.0,4.3526,4.9902,5.6038,5.6323,5.6404,5.6413,5.5341,4.9036,3.7019,0.0,0.0,0.0,0.0,0.0,0.0,0.0,0.0,0.0,0.0,0.0,0.0,0.0,0.0,0.0,0.0,0.0,0.0,0.0,0.0,0.0,0.0,0.0,0.0,0.0,0.0,0.0,0.0,0.0,0.0,0.0,0.0,0.0,0.0,0.0,0.0,0.0,0.0,2.1345,2.8547,0.0,0.0,0.0,0.0,0.0,0.0,0.0,0.0,3.7617,0.0,0.0,0.0,0.0,0.0,0.0,0.0,0.0,0.0,0.0,0.0,0.0,0.0,0.0,0.0,0.0,0.0,0.0,0.0,0.0,0.0,0.0,0.0,0.0,0.0,0.0,0.0,0.0,0.0,0.0,0.0,0.0,0.0,0.0,0.0,0.0,0.0,0.0,0.0,0.0,0.0,0.0,0.0,0.0,0.0,0.0,0.0,0.0,0.0,0.0,0.0,0.0,0.0,0.0,0.0,0.0,0.0,0.0,4.9119,5.3728,5.4778,5.4905,5.4061,4.9504,4.3112,0.0,0.0,0.0,0.0,0.0,0.0,0.0,0.0,0.0,0.0,0.0,0.0,0.0,0.0,0.0,0.0,0.0,0.0,0.0,0.0,0.0,0.0,0.0,0.0,0.0,0.0,0.0,0.0,0.0,0.0,0.0,0.0,0.0,0.0,0.0,0.0,0.0,0.0,0.0,0.0,0.0,0.0,0.0,0.0,0.0,0.0,0.0,0.0,0.0,0.0,0.0,0.0,0.0,0.0,0.0,0.0,0.0,0.0,0.0,0.0,0.0,0.0,0.0,0.0,0.0,0.0,0.0,0.0,0.0,0.0,0.0,0.0,0.0,0.0,0.0,0.0,0.0,0.0,0.0,0.0,0.0,0.0,0.0,0.0,0.0,0.0,0.0,0.0,0.0,0.0,0.0,0.0,0.0,0.0,0.0,0.0,0.0,0.0,0.0,0.0,0.0,0.0,0.0,0.0,0.0,0.0,0.0,0.0,4.6591,5.1093,5.2219,5.2413,5.1742,4.4475,3.8325,0.0,0.0,0.0,0.0,0.0,0.0,0.0,0.0,0.0,0.0,0.0,0.0,0.0,0.0,0.0,0.0,0.0,0.0,0.0,0.0,0.0,0.0,0.0,0.0,0.0,0.0,0.0,0.0,0.0,0.0,0.0,0.0,0.0,0.0,0.0,0.0,0.0,0.0,0.0,0.0,0.0,0.0,0.0,0.0,0.0,0.0,0.0,0.0,2.0038,0.0,0.0,0.0,0.0,0.0,0.0,0.0,0.0,0.0,0.0,0.0,0.0,0.0,0.0,0.0,0.0,0.0,0.0,0.0,0.0,0.0,0.0,0.0,0.0,0.0,0.0,0.0,0.0,0.0,0.0,0.0,0.0,0.0,0.0,0.0,0.0,0.0,0.0,0.0,0.0,0.0,0.0,0.0,0.0,0.0,0.0,0.0,0.0,0.0,0.0,0.0,0.0,0.0,0.0,0.0,0.0,0.0,0.0,0.0,4.0739,4.9573,4.8567,4.8641,4.9793,4.4142,3.8696,0.0,0.0,0.0,0.0,0.0,0.0,0.0,0.0,0.0,0.0,0.0,0.0,0.0,0.0,0.0,0.0,0.0,0.0,0.0,0.0,0.0,0.0,0.0,0.0,0.0,0.0,0.0,0.0,0.0,0.0,0.0,0.0,0.0,0.0,0.0,0.0,0.0,0.0,0.0,0.0,0.0,0.0,0.0,0.0,0.0,0.0,0.0,0.0,0.0,0.0,0.0,0.0,0.0,0.0,0.0,0.0,0.0,0.0,0.0,0.0,0.0,0.0,0.0,0.0,0.0,0.0,0.0,0.0,0.0,0.0,0.0,0.0,0.0,0.0,0.0,0.0,0.0,0.0,0.0,0.0,0.0,0.0,0.0,0.0,0.0,0.0,0.0,0.0,0.0,0.0,0.0,0.0,0.0,0.0,0.0,0.0,0.0,0.0,0.0,0.0,0.0,0.0,0.0,0.0,0.0,0.0,0.0,0.0,3.6261,4.4004,4.6231,4.6536,4.4824,3.7842,3.3115,0.0,0.0,0.0,0.0,0.0,0.0,0.0,0.0,0.0,0.0,0.0,0.0,0.0,0.0,0.0,0.0,0.0,0.0,0.0,0.0,0.0,0.0,0.0,0.0,0.0,0.0,0.0,0.0,0.0,0.0,0.0,0.0,0.0,0.0,0.0,0.0,0.0,0.0,0.0,0.0,0.0,0.0,0.0,0.0,0.0,0.0,0.0,0.0,0.0,0.0,0.0,0.0,0.0,0.0,0.0,0.0,0.0,0.0,0.0,0.0,0.0,0.0,0.0,0.0,0.0,0.0,0.0,0.0,0.0,0.0,0.0,0.0,0.0,0.0,0.0,0.0,0.0,0.0,0.0,0.0,0.0,0.0,0.0,0.0,0.0,0.0,0.0,0.0,0.0,0.0,0.0,0.0,0.0,0.0,0.0,0.0,0.0,0.0,0.0,0.0,0.0,0.0,0.0,0.0,0.0,0.0,0.0,0.0,0.0,3.7814,4.3818,4.4884,4.0519,3.3448,2.8187,0.0,0.0,0.0,0.0,0.0,0.0,0.0,0.0,0.0,0.0,0.0,0.0,0.0,0.0,0.0,0.0,0.0,0.0,0.0,0.0,0.0,0.0,0.0,0.0,0.0,0.0,0.0,0.0,0.0,0.0,0.0,0.0,0.0,0.0,0.0,0.0,0.0,0.0,0.0,0.0,0.0,0.0,0.0,0.0,0.0,0.0,0.0,0.0,0.0,0.0,0.0,0.0,0.0,0.0,0.0,0.0,0.0,0.0,0.0,0.0,0.0,0.0,0.0,0.0,0.0,0.0,0.0,0.0,0.0,0.0,0.0,0.0,0.0,0.0,0.0,0.0,0.0,0.0,0.0,0.0,0.0,0.0,0.0,0.0,0.0,0.0,0.0,0.0,0.0,0.0,0.0,0.0,0.0,0.0,0.0,0.0,0.0,0.0,0.0,0.0,0.0,0.0,0.0,0.0,0.0,0.0,0.0,0.0,0.0,3.1608,4.0885,4.3373,3.8647,3.3872,2.6003,0.0,0.0,0.0,0.0,0.0,0.0,0.0,0.0,0.0,0.0,0.0,0.0,0.0,0.0,0.0,0.0,0.0,0.0,0.0,0.0,0.0,0.0,0.0,0.0,0.0,0.0,0.0,0.0,0.0,0.0,0.0,0.0,0.0,0.0,0.0,0.0,0.0,0.0,0.0,0.0,0.0,0.0,0.0,0.0,0.0,0.0,0.0,0.0,0.0,0.0,0.0,0.0,0.0,0.0,0.0,0.0,0.0,0.0,0.0,0.0,0.0,0.0,0.0,0.0,0.0,0.0,0.0,0.0,0.0,0.0,0.0,0.0,0.0,0.0,0.0,0.0,0.0,0.0,0.0,0.0,0.0,0.0,0.0,0.0,0.0,0.0,0.0,0.0,0.0,0.0,0.0,0.0,0.0,0.0,0.0,0.0,0.0,0.0,0.0,0.0,0.0,0.0,0.0,0.0,0.0,0.0,0.0,0.0,0.0,2.118,3.0146,3.4891,3.4333,2.7533,2.3147,2.1529,0.0,0.0,0.0,0.0,0.0,0.0,0.0,0.0,0.0,0.0,0.0,0.0,0.0,0.0,0.0,0.0,0.0,0.0,0.0,0.0,0.0,0.0,0.0,0.0,0.0,0.0,0.0,0.0,0.0,0.0,0.0,0.0,0.0,0.0,0.0,0.0,0.0,0.0,0.0,0.0,0.0,0.0,0.0,0.0,0.0,0.0,0.0,0.0,0.0,0.0,0.0,0.0,0.0,0.0,0.0,0.0,0.0,0.0,0.0,0.0,0.0,0.0,0.0,0.0,0.0,0.0,0.0,0.0,0.0,0.0,0.0,0.0,0.0,0.0,0.0,0.0,0.0,0.0,0.0,0.0,0.0,0.0,0.0,0.0,0.0,0.0,0.0,0.0,0.0,0.0,0.0,0.0,0.0,0.0,0.0,0.0,0.0,0.0,0.0,0.0,0.0,0.0,0.0,0.0,0.0,0.0,0.0,0.0,1.7582,2.5918,3.016,2.9335,2.3898,2.1112,0.0,0.0,0.0,0.0,0.0,0.0,0.0,0.0,0.0,0.0,0.0,0.0,0.0,0.0,0.0,0.0,0.0,0.0,0.0,0.0,0.0,0.0,0.0,0.0,0.0,0.0,0.0,0.0,0.0,0.0,0.0,0.0,0.0,0.0,0.0,0.0,0.0,0.0,0.0,0.0,0.0,0.0,0.0,0.0,0.0,0.0,0.0,0.0,0.0,0.0,0.0,0.0,0.0,0.0,0.0,0.0,0.0,0.0,0.0,0.0,0.0,0.0,0.0,0.0,0.0,0.0,0.0,0.0,0.0,0.0,0.0,0.0,0.0,0.0,0.0,0.0,0.0,0.0,0.0,0.0,0.0,0.0,0.0,0.0,0.0,0.0,0.0,0.0,0.0,0.0,0.0,0.0,0.0,0.0,0.0,0.0,0.0,0.0,0.0,0.0,0.0,0.0,0.0,0.0,0.0,0.0,0.0,0.0,1.4295,2.3327,2.9851,3.0233,2.4556,2.4169,1.9821,0.0,0.0,0.0,0.0,0.0,0.0,0.0,0.0,0.0,0.0,0.0,0.0,0.0,0.0,0.0,0.0,0.0,0.0,0.0,0.0,0.0,0.0,0.0,0.0,0.0,0.0,0.0,0.0,0.0,0.0,0.0,0.0,0.0,0.0,0.0,0.0,0.0,0.0,0.0,0.0,0.0,0.0,0.0,0.0,0.0,0.0,0.0,0.0,0.0,0.0,0.0,0.0,0.0,0.0,0.0,0.0,0.0,0.0,0.0,0.0,0.0,0.0,0.0,0.0,0.0,0.0,0.0,0.0,0.0,0.0,0.0,0.0,0.0,0.0,0.0,0.0,0.0,0.0,0.0,0.0,0.0,0.0,0.0,0.0,0.0,0.0,0.0,0.0,0.0,0.0,0.0,0.0,0.0,0.0,0.0,0.0,0.0,0.0,0.0,0.0,0.0,0.0,0.0,0.0,0.0,0.0,0.0,0.0,0.0,1.416,0.0,2.3614,0.0,2.1906,1.8419,0.0,0.0,0.0,0.0,0.0,0.0,0.0,0.0,0.0,0.0,0.0,0.0,0.0,0.0,0.0,0.0,0.0,0.0,0.0,0.0,0.0,0.0,0.0,0.0,0.0,0.0,0.0,0.0,0.0,0.0,0.0,0.0,0.0,0.0,0.0,0.0,0.0,0.0,0.0,0.0,0.0,0.0,0.0,0.0,0.0,0.0,0.0,0.0,0.0,0.0,0.0,0.0,0.0,0.0,0.0,0.0,0.0,0.0,0.0,0.0,0.0,0.0,0.0,0.0,0.0,0.0,0.0,0.0,0.0,0.0,0.0,0.0,0.0,0.0,0.0,0.0,0.0,0.0,0.0,0.0,0.0,0.0,0.0,0.0,0.0,0.0,0.0,0.0,0.0,0.0,0.0,0.0,0.0,0.0,0.0,0.0,0.0,0.0,0.0,0.0,0.0,0.0,0.0,0.0,0.0,0.0,0.0,0.0,0.0,1.2854,1.3939,1.867,2.6724,2.0841,1.8402,0.0,0.0,0.0,0.0,0.0,0.0,0.0,0.0,0.0,0.0,0.0,0.0,0.0,0.0,0.0,0.0,0.0,0.0,0.0,0.0,0.0,0.0,0.0,0.0,0.0,0.0,0.0,0.0,0.0,0.0,0.0,0.0,0.0,0.0,0.0,0.0,0.0,0.0,0.0,0.0,0.0,0.0,0.0,0.0,0.0,0.0,0.0,0.0,0.0,0.0,0.0,0.0,0.0,0.0,0.0,0.0,0.0,0.0,0.0,0.0,0.0,0.0,0.0,0.0,0.0,0.0,0.0,0.0,0.0,0.0,0.0,0.0,0.0,0.0,0.0,0.0,0.0,0.0,0.0,0.0,0.0,0.0,0.0,0.0,0.0,0.0,0.0,0.0,0.0,0.0,0.0,0.0,0.0,0.0,0.0,0.0,0.0,0.0,0.0,0.0,0.0,0.0,0.0,0.0,0.0,0.0,0.0,0.0,0.0,1.8069,1.597,1.617,1.9266,2.079,1.9487,0.0,0.0,0.0,0.0,0.0,0.0,0.0,0.0,0.0,0.0,0.0,0.0,0.0,0.0,0.0,0.0,0.0,0.0,0.0,0.0,0.0,0.0,0.0,0.0,0.0,0.0,0.0,0.0,0.0,0.0,0.0,0.0,0.0,0.0,0.0,0.0,0.0,0.0,0.0,0.0,0.0,0.0,0.0,0.0,0.0,0.0,0.0,0.0,0.0,0.0,0.0,0.0,0.0,0.0,0.0,0.0,0.0,0.0,0.0,0.0,0.0,0.0,0.0,0.0,0.0,0.0,0.0,0.0,0.0,0.0,0.0,0.0,0.0,0.0,0.0,0.0,0.0,0.0,0.0,0.0,0.0,0.0,0.0,0.0,0.0,0.0,0.0,0.0,0.0,0.0,0.0,0.0,0.0,0.0,0.0,0.0,0.0,0.0,0.0,0.0,0.0,0.0,0.0,0.0,0.0,0.0,0.0,0.0,0.0,0.0,1.5944,1.7278,1.6053,1.6379,1.7079,1.8051,0.0,0.0,0.0,0.0,0.0,0.0,0.0,0.0,0.0,0.0,0.0,0.0,0.0,0.0,0.0,0.0,0.0,0.0,0.0,0.0,0.0,0.0,0.0,0.0,0.0,0.0,0.0,0.0,0.0,0.0,0.0,0.0,0.0,0.0,0.0,0.0,0.0,0.0,0.0,0.0,0.0,0.0,0.0,0.0,0.0,0.0,0.0,0.0,0.0,0.0,0.0,0.0,0.0,0.0,0.0,0.0,0.0,0.0,0.0,0.0,0.0,0.0,0.0,0.0,0.0,0.0,0.0,0.0,0.0,0.0,0.0,0.0,0.0,0.0,0.0,0.0,0.0,0.0,0.0,0.0,0.0,0.0,0.0,0.0,0.0,0.0,0.0,0.0,0.0,0.0,0.0,0.0,0.0,0.0,0.0,0.0,0.0,0.0,0.0,0.0,0.0,0.0,0.0,0.0,0.0,0.0,0.0,0.0,0.0,0.0,1.6329,1.4542,1.5177,1.6121,0.0,0.0,0.0,0.0,0.0,0.0,0.0,0.0,0.0,0.0,0.0,0.0,0.0,0.0,0.0,0.0,0.0,0.0,0.0,0.0,0.0,0.0,0.0,0.0,0.0,0.0,0.0,0.0,0.0,0.0,0.0,0.0,0.0,0.0,0.0,0.0,0.0,0.0,0.0,0.0,0.0,0.0,0.0,0.0,0.0,0.0,0.0,0.0,0.0,0.0,0.0,0.0,0.0,0.0,0.0,0.0,0.0,0.0,0.0,0.0,0.0,0.0,0.0,0.0,0.0,0.0,0.0,0.0,0.0,0.0,0.0,0.0,0.0,0.0,0.0,0.0,0.0,0.0,0.0,0.0,0.0,0.0,0.0,0.0,0.0,0.0,0.0,0.0,0.0,0.0,0.0,0.0,0.0,0.0,0.0,0.0,0.0,0.0,0.0,0.0,0.0,0.0,0.0,0.0,0.0,0.0,0.0,0.0,0.0,0.0,0.0,1.4536,1.4415,1.6319,0.0,1.476,0.0,0.0,0.0,0.0,0.0,0.0,0.0,0.0,0.0,0.0,0.0,0.0,0.0,0.0,0.0,0.0,0.0,0.0,0.0,0.0,0.0,0.0,0.0,0.0,0.0,0.0,0.0,0.0,0.0,0.0,0.0,0.0,0.0,0.0,0.0,0.0,0.0,0.0,0.0,0.0,0.0,0.0,0.0,0.0,0.0,0.0,0.0,0.0,0.0,0.0,0.0,0.0,0.0,0.0,0.0,0.0,0.0,0.0,0.0,0.0,0.0,0.0,0.0,0.0,0.0,0.0,0.0,0.0,0.0,0.0,0.0,0.0,0.0,0.0,0.0,0.0,0.0,0.0,0.0,0.0,0.0,0.0,0.0,0.0,0.0,0.0,0.0,0.0,0.0,0.0,0.0,0.0,0.0,0.0,0.0,0.0,0.0,0.0,0.0,0.0,0.0,0.0,0.0,0.0,0.0,0.0,0.0,0.0,0.0,0.0,0.0,0.0,1.8377,1.809,1.3112,0.0,0.0,0.0,0.0,0.0,0.0,0.0,0.0,0.0,0.0,0.0,0.0,0.0,0.0,0.0,0.0,0.0,0.0,0.0,0.0,0.0,0.0,0.0,0.0,0.0,0.0,0.0,0.0,0.0,0.0,0.0,0.0,0.0,0.0,0.0,0.0,0.0,0.0,0.0,0.0,0.0,0.0,0.0,0.0,0.0,0.0,0.0,0.0,0.0,0.0,0.0,0.0,0.0,0.0,0.0,0.0,0.0,0.0,0.0,0.0,0.0,0.0,0.0,0.0,0.0,0.0,0.0,0.0,0.0,0.0,0.0,0.0,0.0,0.0,0.0,0.0,0.0,0.0,0.0,0.0,0.0,0.0,0.0,0.0,0.0,0.0,0.0,0.0,0.0,0.0,0.0,0.0,0.0,0.0,0.0,0.0,0.0,0.0,0.0,0.0,0.0,0.0,0.0,0.0,0.0,0.0,0.0,0.0,0.0,0.0,1.785,1.3585,1.7331,1.6813,1.142,0.0,0.0,0.0,0.0,0.0,0.0,0.0,0.0,0.0,0.0,0.0,0.0,0.0,0.0,0.0,0.0,0.0,0.0,0.0,0.0,0.0,0.0,0.0,0.0,0.0,0.0,0.0,0.0,0.0,0.0,0.0,0.0,0.0,0.0,0.0,0.0,0.0,0.0,0.0,0.0,0.0,0.0,0.0,0.0,0.0,0.0,0.0,0.0,0.0,0.0,0.0,0.0,0.0,0.0,0.0,0.0,0.0,0.0,0.0,0.0,0.0,0.0,0.0,0.0,0.0,0.0,0.0,0.0,0.0,0.0,0.0,0.0,0.0,0.0,0.0,0.0,0.0,0.0,0.0,0.0,0.0,0.0,0.0,0.0,0.0,0.0,0.0,0.0,0.0,0.0,0.0,0.0,0.0,0.0,0.0,0.0,0.0,0.0,0.0,0.0,0.0,0.0,0.0,0.0,0.0,0.0,0.0,0.0,0.0,0.0,0.0,0.0,0.0,0.0,1.1271,0.0,0.0,0.0,0.0,0.0,0.0,0.0,0.0,0.0,0.0,0.0,0.0,0.0,0.0,0.0,0.0,0.0,0.0,0.0,0.0,0.0,0.0,0.0,0.0,0.0,0.0,0.0,0.0,0.0,0.0,0.0,0.0,0.0,0.0,0.0,0.0,0.0,0.0,0.0,0.0,0.0,0.0,0.0,0.0,0.0,0.0,0.0,0.0,0.0,0.0,0.0,0.0,0.0,0.0,0.0,0.0,0.0,0.0,0.0,0.0,0.0,0.0,0.0,0.0,0.0,0.0,0.0,0.0,0.0,0.0,0.0,0.0,0.0,0.0,0.0,0.0,0.0,0.0,0.0,0.0,0.0,0.0,0.0,0.0,0.0,0.0,0.0,0.0,0.0,0.0,0.0,0.0,0.0,0.0,0.0,0.0,0.0,0.0,0.0,0.0,0.0,0.0,0.0,0.0,0.0,0.0,0.0,0.0,0.0,0.0,0.0,0.0,0.0,0.0,0.0,0.0,0.0,0.0,0.0,0.0,0.0,0.0,0.0,0.0,0.0,0.0,0.0,0.0,0.0,0.0,0.0,0.0,0.0,0.0,0.0,0.0,0.0,0.0,0.0,0.0,0.0,0.0,0.0,0.0,0.0,0.0,0.0,0.0,0.0,0.0,0.0,0.0,0.0,0.0,0.0,0.0,0.0,0.0,0.0,0.0,0.0,0.0,0.0,0.0,0.0,0.0,0.0,0.0,0.0,0.0,0.0,0.0,0.0,0.0,0.0,0.0,0.0,0.0,0.0,0.0,0.0,0.0,0.0,0.0,0.0,0.0,0.0,0.0,0.0,0.0,0.0,0.0,0.0,0.0,0.0,0.0,0.0,0.0,0.0,0.0,0.0,0.0,0.0,0.0,0.0,0.0,0.0,0.0,0.0,0.0,0.0,0.0,0.0,0.0,0.0,0.0,0.0,0.0,0.0,0.0,0.0,0.0,0.0,0.0,0.0,0.0,0.0,0.0,0.0,0.0,0.0,0.0,0.0,0.0,0.0,0.0,0.0,0.0,0.0,0.0,0.0,0.0,0.0,0.0,0.0,0.0,0.0,0.0,0.0,0.0,0.0,0.0,0.0,0.0,0.0,0.0,0.0,0.0,0.0,0.0,0.0,0.0,0.0,0.0,0.0,0.0,0.0,0.0,0.0,0.0,0.0,0.0,0.0,0.0,0.0,0.0,0.0,0.0,0.0,0.0,0.0,0.0,0.0,0.0,0.0,0.0,0.0,0.0,0.0,0.0,0.0,0.0,0.0,0.0,0.0,0.0,0.0,0.0,0.0,0.0,0.0,0.0,0.0,0.0,0.0,0.0,0.0,0.0,0.0,0.0,0.0,0.0,0.0,0.0,0.0,0.0,0.0,0.0,0.0,0.0,0.0,0.0,0.0,0.0,0.0,0.0,0.0,0.0,0.0,0.0,0.0,0.0,0.0,0.0,0.0,0.0,0.0,0.0,0.0,0.0,0.0,0.0,0.0,0.0,0.0,0.0,0.0,0.0,0.0,0.0,0.0,0.0,0.0,0.0,0.0,0.0,0.0,0.0,0.0,0.0,0.0,0.0,0.0,0.0,0.0,0.0,0.0,0.0,0.0,0.0,0.0,0.0,0.0,0.0,0.0,0.0,0.0,0.0,0.0,0.0,0.0,0.0,0.0,0.0,0.0,0.0,0.0,0.0,0.0,0.0,0.0,0.0,0.0,0.0,0.0,0.0,0.0,0.0,0.0,0.0,0.0,0.0,0.0,0.0,0.0,0.0,0.0,0.0,0.0,0.0,0.0,0.0,0.0,0.0,0.0,0.0,0.0,0.0,0.0,0.0,0.0,0.0,0.0,0.0,0.0,0.0,0.0,0.0,0.0,0.0,0.0,0.0,0.0,0.0,0.0,0.0,0.0,0.0,0.0,0.0,0.0,0.0,0.0,0.0,0.0,0.0,0.0,0.0,0.0,0.0,0.0,0.0,0.0,0.0,0.0,0.0,0.0,0.0,0.0,0.0,0.0,0.0,0.0,0.0,0.0,0.0,0.0,0.0,0.0,0.0,0.0,0.0,0.0,0.0,0.0,0.0,0.0,0.0,0.0,0.0,0.0,0.0,0.0,0.0,0.0,0.0,0.0,0.0,0.0,0.0,0.0,0.0,0.0,0.0,0.0,0.0,0.0,0.0,0.0,0.0,0.0,0.0,0.0,0.0,0.0,0.0,0.0,0.0,0.0,0.0,0.0,0.0,0.0,0.0,0.0,0.0,0.0,0.0,0.0,0.0,0.0,0.0,0.0,0.0,0.0,0.0,0.0,0.0,0.0,0.0,0.0,0.0,0.0,0.0,0.0,0.0,0.0,0.0,0.0,0.0,0.0,0.0,0.0,0.0,0.0,0.0,0.0,0.0,0.0,0.0,0.0,0.0,0.0,0.0,0.0,0.0,0.0,0.0,0.0,0.0,0.0,0.0,0.0,0.0,0.0,0.0,0.0,0.0,0.0,0.0,0.0,0.0,0.0,0.0,0.0,0.0,0.0,0.0,0.0,0.0,0.0,0.0,0.0,0.0,0.0,0.0,0.0,0.0,0.0,0.0,0.0,0.0,0.0,0.0,0.0,0.0,0.0,0.0,0.0,0.0,0.0,0.0,0.0,0.0,0.0,0.0,0.0,0.0,0.0,0.0,0.0,0.0,0.0,0.0,0.0,0.0,0.0,0.0,0.0,0.0,0.0,0.0,0.0,0.0,0.0,0.0,0.0,0.0,0.0,0.0,0.0,0.0,0.0,0.0,0.0,0.0,0.0,0.0,0.0,0.0,0.0,0.0,0.0,0.0,0.0,0.0,0.0,0.0,0.0,0.0,0.0,0.0,0.0,0.0,0.0,0.0,0.0,0.0,0.0,0.0,0.0,0.0,0.0,0.0,0.0,0.0,0.0,0.0,0.0,0.0,0.0,0.0,0.0,0.0,0.0,0.0,0.0,0.0,0.0,0.0,0.0,0.0,0.0,0.0,0.0,0.0,0.0,0.0,0.0,0.0,0.0,0.0,0.0,0.0,0.0,0.0,0.0,0.0,0.0,0.0,0.0,0.0,0.0,0.0,0.0,0.0,0.0,0.0,0.0,0.0,0.0,0.0,0.0,0.0,0.0,0.0,0.0,0.0,0.0,0.0,0.0,0.0,0.0,0.0,0.0,0.0,0.0,0.0,0.0,0.0,0.0,0.0,0.0,0.0,0.0,0.0,0.0,0.0,0.0,0.0,0.0,0.0,0.0,0.0,0.0,0.0,0.0,0.0,0.0,0.0,0.0,0.0,0.0,0.0,0.0,0.0,0.0,0.0,0.0,0.0,0.0,0.0,0.0,0.0,0.0,0.0,0.0,0.0,0.0,0.0,0.0,0.0,0.0,0.0,0.0,0.0,0.0,0.0,0.0,0.0,0.0,0.0,0.0,0.0,0.0,0.0,0.0,0.0,0.0,0.0,0.0,0.0,0.0,0.0,0.0,0.0,0.0,0.0,0.0,0.0,0.0,0.0,0.0,0.0,0.0,0.0,0.0,0.0,0.0,0.0,0.0,0.0,0.0,0.0,0.0,0.0,0.0,0.0,0.0,0.0,0.0,0.0,0.0,0.0,0.0,0.0,0.0,0.0,0.0,0.0,0.0,0.0,0.0,0.0,0.0,0.0,0.0,0.0,0.0,0.0,0.0,0.0,0.0,0.0,0.0,0.0,0.0,0.0,0.0,0.0,0.0,0.0,0.0,0.0,0.0,0.0,0.0,0.0,0.0,0.0,0.0,0.0,0.0,0.0,0.0,0.0,0.0,0.0,0.0,0.0,0.0,0.0,0.0,0.0,0.0,0.0,0.0,0.0,0.0,0.0,0.0,0.0,0.0,0.0,0.0,0.0,0.0,0.0,0.0,0.0,0.0,0.0,0.0,0.0,0.0,0.0,0.0,0.0,0.0,0.0,0.0,0.0,0.0,0.0,0.0,0.0,0.0,0.0,0.0,0.0,0.0,0.0,0.0,0.0,0.0,0.0,0.0,0.0,0.0,0.0,0.0,0.0,0.0,0.0,0.0,0.0,0.0,0.0,0.0,0.0,0.0,0.0,0.0,0.0,0.0,0.0,0.0,0.0,0.0,0.0,0.0,0.0,0.0,0.0,0.0,0.0,0.0,0.0,0.0,0.0,0.0,0.0,0.0,0.0,0.0,0.0,0.0,0.0,0.0,0.0,0.0,0.0,0.0,0.0,0.0,0.0,0.0,0.0,0.0,0.0,0.0,0.0,0.0,0.0,0.0,0.0,0.0,0.0,0.0,0.0,0.0,0.0,0.0,0.0,0.0,0.0,0.0,0.0]}],[{"header":{"parameterUnit":"kt","parameterCategory":2,"dx":1,"dy":1,"la1":29.587661999999998,"la2":31.0,"lo1":-88.76705300000003,"lo2":-86.6583820000003,"nx":115,"ny":88,"refTime":"2022-10-04T00:00:00:Z","depth":0,"parameterNumber":2,"parameterNumberName":"V-component_of_WINDS"},"data":[-3.6644,-3.6247,-3.5457,-3.4896,-3.4508,-3.3552,-3.2607,-3.1916,-3.1352,-3.0722,-3.0128,-2.972,-2.9832,-3.0144,-3.0055,-2.9525,-2.8725,-2.8634,-2.777,-2.7283,-2.7834,-2.73,-2.6954,-2.6664,-2.5443,-2.473,-2.431,-2.3737,-2.3435,-2.2368,-2.1613,-2.1594,-2.1303,-2.0836,-2.0578,-2.0708,-2.1162,-2.0761,-2.0577,-2.0714,-2.0827,-2.0838,-2.1454,-2.1454,-2.1454,-2.1308,-2.1308,-2.1029,-2.1029,-2.0872,-2.0861,-2.1018,-2.1006,-2.077,-2.0521,-2.013,-2.0067,-1.9648,-1.9183,-1.8786,-1.8469,-1.8185,-1.78,-1.78,-1.7822,-1.7959,-1.8403,-1.8669,-1.8473,-1.8774,-1.9787,-2.0766,-2.1255,-2.1314,-2.1337,-2.1071,-2.0793,-2.0267,-2.0019,-2.03,-2.0581,-2.0289,-1.9862,-1.9716,-1.9716,-1.9873,-2.0165,-2.0446,-2.0446,-2.0143,-1.9705,-1.9705,-1.9705,-2.0008,-2.0613,-2.1315,-2.1175,-2.1186,-2.1609,-2.2747,-2.3609,-2.4426,-2.4685,-2.4618,-2.4528,-2.4379,-2.4485,-2.4064,-2.3072,-2.2322,-2.235,-2.2091,-2.1998,-2.2258,-2.3016,-3.8305,-3.8133,-3.7394,-3.6898,-3.6366,-3.552,-3.4638,-3.3951,-3.3134,-3.2304,-3.1805,-3.2143,-3.2358,-3.2246,-3.1807,-3.1448,-3.1011,-3.0595,-3.0622,-3.0228,-3.0228,-2.9324,-2.8912,-2.8629,-2.7769,-2.6883,-2.588,-2.522,-2.4777,-2.3516,-2.2775,-2.2738,-2.2308,-2.1602,-2.1734,-2.1685,-2.1419,-2.1048,-2.1048,-2.1152,-2.1198,-2.1018,-2.1267,-2.1086,-2.0727,-2.0592,-2.0592,-2.0592,-2.0738,-2.0884,-2.1175,-2.1186,-2.1175,-2.1308,-2.0991,-2.091,-2.0692,-2.0544,-2.0163,-1.9584,-1.9248,-1.8889,-1.8484,-1.8345,-1.838,-1.8773,-1.9321,-1.9263,-1.8808,-1.9065,-2.0226,-2.1082,-2.1387,-2.1575,-2.143,-2.143,-2.1006,-2.0581,-2.0884,-2.132,-2.1308,-2.1308,-2.1029,-2.0592,-2.0446,-2.0603,-2.0749,-2.1029,-2.1175,-2.0727,-2.0424,-2.0278,-2.0289,-2.1109,-2.2084,-2.2001,-2.1465,-2.1465,-2.164,-2.2794,-2.3793,-2.3804,-2.3863,-2.4362,-2.4742,-2.4543,-2.4661,-2.4696,-2.4755,-2.4014,-2.3723,-2.3392,-2.3198,-2.3301,-2.3913,-3.9808,-3.9656,-3.8592,-3.798,-3.7791,-3.674,-3.5862,-3.5127,-3.4501,-3.4324,-3.4464,-3.4535,-3.4318,-3.3406,-3.3137,-3.2839,-3.2363,-3.2297,-3.2115,-3.1753,-3.1148,-3.0859,-3.0184,-2.9509,-2.9236,-2.8816,-2.7569,-2.6653,-2.6096,-2.4954,-2.3788,-2.3298,-2.2685,-2.2142,-2.172,-2.1732,-2.1454,-2.1332,-2.1442,-2.1815,-2.2234,-2.2223,-2.2188,-2.2176,-2.1979,-2.1841,-2.1623,-2.1463,-2.1451,-2.1401,-2.1535,-2.1512,-2.1535,-2.1512,-2.1477,-2.1372,-2.1244,-2.1141,-2.0801,-2.03,-1.9985,-1.9706,-1.9344,-1.9193,-1.9287,-1.9962,-2.0648,-2.0296,-1.9694,-1.9776,-2.093,-2.1223,-2.1493,-2.1646,-2.1646,-2.1477,-2.1308,-2.1029,-2.132,-2.161,-2.1755,-2.1755,-2.1465,-2.1029,-2.1029,-2.1186,-2.1186,-2.1465,-2.1465,-2.1308,-2.1006,-2.1006,-2.1163,-2.1757,-2.2351,-2.2176,-2.1857,-2.1669,-2.161,-2.2396,-2.2948,-2.303,-2.3417,-2.4271,-2.4732,-2.4661,-2.4672,-2.4696,-2.4743,-2.4612,-2.4579,-2.4367,-2.4485,-2.4379,-2.439,-4.1011,-4.0861,-3.9808,-3.9201,-3.9049,-3.7845,-3.701,-3.6477,-3.6176,-3.6327,-3.6753,-3.6516,-3.5797,-3.4851,-3.466,-3.4339,-3.4052,-3.387,-3.3319,-3.2934,-3.2665,-3.2355,-3.1541,-3.1086,-3.0489,-3.0156,-2.9413,-2.8564,-2.7619,-2.6627,-2.5405,-2.4619,-2.3671,-2.3176,-2.272,-2.2299,-2.215,-2.2036,-2.2197,-2.2525,-2.2805,-2.3124,-2.3182,-2.298,-2.2945,-2.27,-2.2584,-2.2444,-2.2338,-2.2091,-2.1998,-2.1962,-2.1951,-2.1857,-2.1751,-2.1622,-2.1563,-2.1364,-2.1094,-2.0836,-2.0555,-2.032,-2.0109,-2.0097,-2.0519,-2.1434,-2.1739,-2.1341,-2.1141,-2.1305,-2.1552,-2.1563,-2.1634,-2.1681,-2.1716,-2.1657,-2.161,-2.161,-2.161,-2.1755,-2.2045,-2.19,-2.161,-2.161,-2.161,-2.1622,-2.1634,-2.1657,-2.1669,-2.2279,-2.2095,-2.235,-2.2408,-2.1908,-2.2234,-2.2315,-2.2281,-2.2244,-2.2549,-2.2291,-2.2044,-2.2443,-2.2936,-2.3863,-2.459,-2.4532,-2.4508,-2.4614,-2.4696,-2.4708,-2.459,-2.4543,-2.4649,-2.4696,-2.4696,-4.2222,-4.2242,-4.131,-4.0842,-4.0411,-3.9068,-3.8556,-3.8519,-3.8293,-3.8482,-3.8159,-3.7365,-3.6814,-3.6346,-3.6108,-3.5954,-3.568,-3.5475,-3.5134,-3.4695,-3.4258,-3.3605,-3.3185,-3.2937,-3.2137,-3.1824,-3.1201,-3.0483,-2.9377,-2.8359,-2.7384,-2.6803,-2.5525,-2.4472,-2.4143,-2.3901,-2.3858,-2.3587,-2.3398,-2.3291,-2.33,-2.3253,-2.3182,-2.3265,-2.3265,-2.3194,-2.3136,-2.3112,-2.31,-2.3065,-2.3018,-2.296,-2.2819,-2.2631,-2.2068,-2.1833,-2.1622,-2.1493,-2.1376,-2.1141,-2.0895,-2.0684,-2.0242,-2.0472,-2.1082,-2.1998,-2.2537,-2.235,-2.2244,-2.2385,-2.2244,-2.2197,-2.2197,-2.2232,-2.2068,-2.188,-2.1992,-2.2126,-2.2297,-2.265,-2.2772,-2.2662,-2.2359,-2.161,-2.161,-2.1728,-2.1763,-2.1798,-2.2244,-2.33,-2.3563,-2.4145,-2.337,-2.2491,-2.2732,-2.2894,-2.2864,-2.3265,-2.3828,-2.3687,-2.3042,-2.2772,-2.2619,-2.3464,-2.4391,-2.4356,-2.445,-2.4579,-2.4696,-2.4696,-2.4696,-2.4696,-2.4696,-2.4696,-2.4696,-4.3401,-4.3401,-4.2793,-4.2202,-4.1628,-4.0411,-4.026,-4.0711,-4.0129,-3.9505,-3.8897,-3.8287,-3.7691,-3.7383,-3.7092,-3.6937,-3.6919,-3.6782,-3.6334,-3.5693,-3.514,-3.4579,-3.4107,-3.3585,-3.3474,-3.3252,-3.2874,-3.2184,-3.1934,-3.0543,-2.9092,-2.846,-2.7412,-2.6246,-2.571,-2.6073,-2.6008,-2.5497,-2.4845,-2.4582,-2.4295,-2.4133,-2.4098,-2.4145,-2.4145,-2.3922,-2.3699,-2.364,-2.3441,-2.3218,-2.3194,-2.3265,-2.3417,-2.3288,-2.2854,-2.1857,-2.1704,-2.1704,-2.1634,-2.1399,-2.1341,-2.1317,-2.1446,-2.154,-2.2185,-2.2596,-2.2995,-2.337,-2.3358,-2.33,-2.3065,-2.2866,-2.2842,-2.2831,-2.2502,-2.2162,-2.2424,-2.2708,-2.3053,-2.3435,-2.3559,-2.3459,-2.2784,-2.1996,-2.1693,-2.256,-2.2949,-2.2697,-2.3077,-2.3945,-2.4426,-2.4684,-2.3886,-2.3253,-2.34,-2.3656,-2.34,-2.3593,-2.4274,-2.4414,-2.418,-2.3804,-2.3581,-2.3863,-2.425,-2.4403,-2.4579,-2.4672,-2.4696,-2.4696,-2.4696,-2.4696,-2.4696,-2.4696,-2.4696,-4.4711,-4.4566,-4.4276,-4.3839,-4.296,-4.2054,-4.2054,-4.2518,-4.1608,-4.0861,-4.0091,-3.9201,-3.8592,-3.7962,-3.7673,-3.7501,-3.7365,-3.7228,-3.6782,-3.6472,-3.5988,-3.5363,-3.4893,-3.4422,-3.4264,-3.409,-3.3759,-3.3363,-3.3299,-3.2591,-3.1156,-3.0328,-2.9581,-2.8291,-2.8163,-2.8885,-2.8228,-2.7398,-2.5734,-2.5633,-2.5542,-2.5542,-2.5226,-2.5226,-2.5049,-2.4602,-2.4389,-2.4168,-2.4039,-2.3734,-2.3663,-2.3699,-2.3969,-2.3922,-2.3605,-2.2396,-2.2091,-2.1962,-2.1868,-2.1833,-2.1833,-2.1915,-2.2455,-2.2983,-2.33,-2.3499,-2.364,-2.3933,-2.4062,-2.4338,-2.4331,-2.3888,-2.3446,-2.3862,-2.4177,-2.3942,-2.4019,-2.4309,-2.4924,-2.5355,-2.5616,-2.5269,-2.3621,-2.2868,-2.3394,-2.4128,-2.4269,-2.3781,-2.3905,-2.425,-2.4649,-2.4684,-2.4203,-2.4027,-2.4087,-2.4087,-2.3842,-2.3863,-2.4309,-2.4579,-2.4414,-2.4367,-2.4426,-2.4438,-2.4403,-2.4508,-2.4672,-2.4696,-2.4696,-2.4696,-2.4696,-2.4696,-2.4696,-2.4696,-2.4696,-4.6168,-4.5882,-4.5861,-4.5287,-4.4545,-4.411,-4.3839,-4.3401,-4.2665,-4.2222,-4.2094,-4.011,-3.9201,-3.8879,-3.798,-3.7673,-3.7519,-3.7501,-3.7228,-3.6937,-3.6627,-3.6161,-3.5693,-3.5224,-3.491,-3.4579,-3.4107,-3.3965,-3.3807,-3.3283,-3.3126,-3.2668,-3.1519,-3.0826,-3.087,-3.1322,-3.0802,-2.8693,-2.6852,-2.621,-2.65,-2.6841,-2.6348,-2.5866,-2.5536,-2.5133,-2.4755,-2.4555,-2.452,-2.452,-2.4532,-2.4579,-2.4614,-2.4649,-2.4332,-2.3828,-2.3253,-2.2819,-2.2502,-2.2396,-2.2396,-2.2771,-2.3241,-2.3675,-2.3969,-2.418,-2.4262,-2.4438,-2.4496,-2.5025,-2.5706,-2.5166,-2.4493,-2.489,-2.5594,-2.5827,-2.5736,-2.5966,-2.6592,-2.713,-2.7429,-2.6996,-2.5503,-2.4801,-2.5324,-2.5304,-2.4785,-2.4331,-2.4307,-2.4637,-2.4661,-2.4696,-2.4672,-2.4637,-2.4626,-2.4543,-2.4356,-2.425,-2.4614,-2.4696,-2.4696,-2.4626,-2.4508,-2.4426,-2.4485,-2.4567,-2.4661,-2.4696,-2.4696,-2.4696,-2.4696,-2.4696,-2.4696,-2.4696,-2.4696,-4.6736,-4.6594,-4.6168,-4.5718,-4.5574,-4.5882,-4.5431,-4.4566,-4.3839,-4.3254,-4.2518,-4.1479,-4.043,-3.9353,-3.8592,-3.8133,-3.7501,-3.7519,-3.7383,-3.6937,-3.6937,-3.6627,-3.6334,-3.5866,-3.5693,-3.5537,-3.5067,-3.4596,-3.4596,-3.4123,-3.3807,-3.3648,-3.3157,-3.2824,-3.3014,-3.2948,-3.2339,-3.0246,-2.8166,-2.7165,-2.7118,-2.7018,-2.6525,-2.6031,-2.5536,-2.5027,-2.4862,-2.4684,-2.4672,-2.4661,-2.4661,-2.4672,-2.4672,-2.4567,-2.425,-2.3781,-2.3405,-2.3358,-2.3065,-2.2948,-2.3291,-2.3781,-2.3468,-2.4076,-2.5009,-2.4885,-2.4826,-2.4862,-2.4672,-2.5322,-2.6134,-2.7256,-2.6705,-2.6293,-2.687,-2.7574,-2.7625,-2.7225,-2.7694,-2.8622,-2.9074,-2.8831,-2.8277,-2.7628,-2.6515,-2.5967,-2.5252,-2.4834,-2.459,-2.4661,-2.4684,-2.4696,-2.4684,-2.4672,-2.4838,-2.4696,-2.4696,-2.4696,-2.4696,-2.4696,-2.4696,-2.4684,-2.4508,-2.4379,-2.4555,-2.4696,-2.4708,-2.4708,-2.4743,-2.4743,-2.479,-2.479,-2.4696,-2.4696,-2.4696,-4.7582,-4.7323,-4.6878,-4.6617,-4.643,-4.6736,-4.6288,-4.5431,-4.4855,-4.413,-4.3401,-4.2538,-4.133,-4.011,-3.9183,-3.8287,-3.7655,-3.7519,-3.7365,-3.7228,-3.7246,-3.6937,-3.6782,-3.6627,-3.6489,-3.6316,-3.5849,-3.538,-3.5224,-3.491,-3.4438,-3.4281,-3.4107,-3.4422,-3.4438,-3.4155,-3.3252,-3.1707,-3.016,-2.9003,-2.8287,-2.7824,-2.7018,-2.6043,-2.5536,-2.5027,-2.4696,-2.4696,-2.4696,-2.4696,-2.4696,-2.4696,-2.4696,-2.4696,-2.4391,-2.4027,-2.3863,-2.391,-2.3769,-2.3687,-2.4183,-2.4439,-2.4338,-2.4457,-2.553,-2.5181,-2.5358,-2.5689,-2.6513,-2.6854,-2.7018,-2.7988,-2.8287,-2.7895,-2.8017,-2.8773,-2.869,-2.847,-2.8574,-2.9473,-2.9995,-2.9691,-2.9137,-2.8139,-2.7293,-2.6561,-2.606,-2.5603,-2.5817,-2.5664,-2.5027,-2.5027,-2.5358,-2.5193,-2.4862,-2.4696,-2.4696,-2.4696,-2.4696,-2.4731,-2.4708,-2.4696,-2.4684,-2.4966,-2.4919,-2.4919,-2.5287,-2.544,-2.4977,-2.481,-2.5153,-2.5212,-2.495,-2.4856,-2.4751,-4.8558,-4.821,-4.8187,-4.7908,-4.7582,-4.6878,-4.6288,-4.5882,-4.5431,-4.4999,-4.4421,-4.3401,-4.235,-4.0992,-3.9789,-3.8745,-3.7809,-3.7501,-3.7501,-3.7365,-3.7365,-3.7501,-3.7365,-3.7074,-3.6919,-3.6765,-3.6316,-3.5866,-3.5676,-3.538,-3.5224,-3.491,-3.4893,-3.4893,-3.4893,-3.491,-3.4596,-3.3617,-3.232,-3.1093,-3.0056,-2.9438,-2.7988,-2.6854,-2.5866,-2.5193,-2.4862,-2.4696,-2.4696,-2.4696,-2.4696,-2.4696,-2.4696,-2.4696,-2.4637,-2.452,-2.4579,-2.4614,-2.4637,-2.4649,-2.4732,-2.4861,-2.479,-2.4989,-2.5475,-2.5701,-2.5689,-2.7006,-2.8504,-2.8844,-2.8844,-2.8993,-2.9155,-2.9128,-2.9128,-2.9262,-2.8924,-2.8638,-2.9081,-2.9776,-2.9995,-2.9833,-2.9332,-2.8667,-2.7674,-2.7182,-2.669,-2.6841,-2.7157,-2.6829,-2.5854,-2.6019,-2.7006,-2.6348,-2.5015,-2.485,-2.4696,-2.4696,-2.4731,-2.4837,-2.4848,-2.4743,-2.506,-2.5599,-2.5775,-2.6045,-2.6112,-2.6121,-2.5984,-2.5857,-2.5846,-2.5497,-2.5221,-2.5116,-2.5183,-4.8927,-4.8835,-4.8466,-4.8304,-4.842,-4.8281,-4.7559,-4.6736,-4.631,-4.5574,-4.4711,-4.3985,-4.2772,-4.1439,-4.0411,-3.9335,-3.7962,-3.7501,-3.7501,-3.7501,-3.7501,-3.7501,-3.7501,-3.7365,-3.7211,-3.7211,-3.6782,-3.6351,-3.6178,-3.552,-3.5207,-3.5224,-3.5224,-3.5207,-3.5067,-3.4943,-3.4628,-3.3981,-3.3094,-3.249,-3.1532,-3.0099,-2.8314,-2.7824,-2.6019,-2.5193,-2.4862,-2.4696,-2.4696,-2.4696,-2.4696,-2.4696,-2.4696,-2.4696,-2.4696,-2.4684,-2.4684,-2.4684,-2.4684,-2.4684,-2.5027,-2.5205,-2.5039,-2.5205,-2.5866,-2.6513,-2.6336,-2.7661,-2.8993,-2.9833,-2.9494,-2.8654,-2.8477,-2.8993,-2.8993,-2.883,-2.8504,-2.9169,-2.967,-2.9995,-2.9508,-2.9169,-2.8504,-2.7661,-2.7346,-2.7687,-2.7687,-2.8341,-2.8491,-2.7661,-2.6841,-2.7497,-2.8328,-2.7006,-2.5346,-2.5015,-2.4696,-2.4719,-2.5241,-2.5157,-2.5408,-2.4778,-2.4954,-2.6031,-2.6763,-2.7113,-2.7289,-2.7105,-2.6849,-2.6726,-2.6456,-2.6186,-2.5917,-2.6022,-2.6055,-4.9202,-4.9202,-4.8835,-4.872,-4.8812,-4.8812,-4.8281,-4.7464,-4.7041,-4.631,-4.5574,-4.4855,-4.3526,-4.2054,-4.1161,-3.9789,-3.8268,-3.7809,-3.7501,-3.7501,-3.7501,-3.7501,-3.7501,-3.7501,-3.7501,-3.7365,-3.7074,-3.6782,-3.6489,-3.6161,-3.5676,-3.5363,-3.552,-3.5363,-3.5224,-3.4927,-3.4769,-3.4281,-3.4123,-3.3474,-3.2505,-3.073,-2.96,-2.864,-2.6336,-2.5676,-2.5193,-2.4862,-2.4696,-2.4696,-2.4696,-2.4696,-2.4696,-2.4696,-2.4696,-2.4696,-2.4696,-2.4696,-2.4696,-2.4696,-2.4862,-2.537,-2.5536,-2.5536,-2.6196,-2.6841,-2.7157,-2.717,-2.7851,-2.8667,-2.8993,-2.8314,-2.7811,-2.8164,-2.8164,-2.7838,-2.8164,-2.9318,-2.9818,-2.9995,-2.9508,-2.9006,-2.8001,-2.717,-2.7674,-2.8178,-2.9169,-2.9833,-2.9332,-2.8667,-2.8504,-2.8993,-2.9169,-2.8164,-2.5346,-2.485,-2.4696,-2.5218,-2.5936,-2.6603,-2.7266,-2.6421,-2.637,-2.7033,-2.784,-2.8312,-2.8506,-2.8233,-2.7779,-2.7347,-2.7066,-2.6952,-2.7025,-2.7156,-2.7776,-4.9296,-4.9296,-4.9226,-4.9088,-4.8812,-4.8812,-4.8558,-4.8187,-4.7745,-4.7323,-4.6758,-4.5861,-4.4421,-4.296,-4.1757,-4.0561,-3.9201,-3.8115,-3.7673,-3.7519,-3.7501,-3.7501,-3.7501,-3.7501,-3.7501,-3.7519,-3.7228,-3.7074,-3.6937,-3.6627,-3.6472,-3.5849,-3.5849,-3.5537,-3.5224,-3.5067,-3.4893,-3.4893,-3.4736,-3.409,-3.3126,-3.1996,-3.1036,-2.9114,-2.7798,-2.6816,-2.6196,-2.5524,-2.5193,-2.5205,-2.5193,-2.5193,-2.5358,-2.5205,-2.4862,-2.4696,-2.4696,-2.4862,-2.5193,-2.5358,-2.5027,-2.5027,-2.5511,-2.6171,-2.6664,-2.7144,-2.65,-2.5524,-2.7018,-2.751,-2.751,-2.7988,-2.8328,-2.8504,-2.8341,-2.8341,-2.8993,-2.9818,-2.9818,-2.9995,-2.9833,-2.967,-2.8993,-2.8328,-2.8667,-2.9006,-2.9995,-2.9995,-2.9508,-2.9494,-2.9656,-2.9656,-2.9833,-2.8667,-2.5689,-2.5218,-2.5708,-2.6238,-2.7029,-2.7944,-2.8964,-2.9111,-2.8776,-2.9265,-2.9643,-2.9833,-3.0035,-3.0048,-2.9863,-2.8539,-2.8083,-2.8177,-2.8203,-2.8614,-2.9309,-5.0371,-5.0277,-4.9506,-4.9202,-4.9088,-4.9065,-4.895,-4.8581,-4.8187,-4.7908,-4.7323,-4.6594,-4.5143,-4.3547,-4.2518,-4.1011,-3.9353,-3.8611,-3.8152,-3.7673,-3.7501,-3.7501,-3.7501,-3.7501,-3.7501,-3.7501,-3.7365,-3.7074,-3.7074,-3.7074,-3.6919,-3.6195,-3.6178,-3.5866,-3.5224,-3.505,-3.505,-3.505,-3.4893,-3.4579,-3.3916,-3.2475,-3.1372,-3.0246,-2.8626,-2.7333,-2.7044,-2.669,-2.669,-2.6525,-2.6513,-2.6513,-2.6525,-2.6031,-2.5536,-2.4862,-2.5027,-2.537,-2.6196,-2.6525,-2.6348,-2.6171,-2.6146,-2.6626,-2.7131,-2.8477,-2.8328,-2.5358,-2.6677,-2.6513,-2.6171,-2.7018,-2.8001,-2.8504,-2.8844,-2.9332,-2.9818,-2.9833,-2.9995,-2.9995,-2.9995,-2.9995,-2.9833,-2.9332,-2.9494,-2.9833,-2.9995,-2.9995,-2.9833,-2.9833,-2.9833,-2.9833,-2.9833,-2.9169,-2.7398,-2.6943,-2.6868,-2.7324,-2.8365,-2.9352,-3.0415,-3.0815,-3.0461,-3.0946,-3.1564,-3.1063,-2.9863,-3.1037,-3.2027,-3.0813,-2.9813,-2.9825,-2.964,-3.0093,-3.0448,-5.1867,-5.1399,-5.0815,-5.0324,-4.988,-4.9857,-4.9484,-4.902,-4.8697,-4.8443,-4.8025,-4.7464,-4.6453,-4.4999,-4.3254,-4.1757,-4.0411,-3.9675,-3.8763,-3.8133,-3.798,-3.7827,-3.7655,-3.7501,-3.7501,-3.7501,-3.7365,-3.7074,-3.7228,-3.7365,-3.7228,-3.6644,-3.6644,-3.6178,-3.571,-3.5363,-3.5363,-3.505,-3.4736,-3.4281,-3.3648,-3.268,-3.1707,-3.1241,-2.9438,-2.8477,-2.8001,-2.7661,-2.7346,-2.7372,-2.7333,-2.7674,-2.8014,-2.7359,-2.6031,-2.5027,-2.5358,-2.6361,-2.7208,-2.7346,-2.7018,-2.6854,-2.6829,-2.7282,-2.7948,-2.8965,-2.883,-2.7006,-2.732,-2.7484,-2.7497,-2.751,-2.8001,-2.8504,-2.9332,-2.9833,-2.9995,-2.9995,-2.9995,-2.9995,-2.9995,-2.9995,-2.9833,-2.967,-2.967,-2.9995,-2.9995,-2.9995,-2.9995,-2.9995,-2.9995,-2.9861,-2.9564,-2.9213,-2.8413,-2.8541,-2.8346,-2.9457,-3.0354,-3.0236,-3.1508,-3.1682,-3.1288,-3.1354,-3.1037,-3.0284,-2.9888,-3.0654,-3.2381,-3.213,-3.1838,-3.1301,-3.0749,-3.1261,-3.1445,-5.3512,-5.2668,-5.2381,-5.1797,-5.1002,-5.0909,-5.0394,-4.9693,-4.9553,-4.9251,-4.8997,-4.8535,-4.7745,-4.6453,-4.4276,-4.2833,-4.1648,-4.06,-3.9675,-3.8916,-3.8763,-3.8439,-3.7809,-3.7673,-3.7673,-3.7501,-3.7501,-3.7501,-3.7501,-3.7501,-3.7211,-3.6937,-3.6782,-3.6627,-3.6022,-3.5693,-3.5676,-3.5363,-3.4438,-3.3474,-3.268,-3.2361,-3.1897,-3.1256,-3.0275,-2.9452,-2.8816,-2.8314,-2.8001,-2.7864,-2.7838,-2.8491,-2.9332,-2.8328,-2.6677,-2.6336,-2.6664,-2.7674,-2.7864,-2.8014,-2.7838,-2.7687,-2.7687,-2.8014,-2.8477,-2.9318,-2.9833,-2.9818,-2.8654,-2.8328,-2.8993,-2.8979,-2.9318,-2.9656,-2.9833,-2.9833,-2.9995,-2.9995,-2.9995,-2.9995,-2.9995,-2.9995,-2.9995,-2.9995,-2.9995,-2.9995,-2.9995,-2.9995,-2.9995,-2.9995,-2.9995,-2.9499,-2.9227,-2.8528,-2.7868,-2.9411,-3.0175,-3.181,-3.1401,-3.075,-3.0577,-3.0208,-3.0392,-3.0551,-2.9208,-2.8281,-2.87,-2.9876,-3.217,-3.2511,-3.1695,-3.1682,-3.1682,-3.2232,-3.2584,-5.4656,-5.4395,-5.2832,-5.2217,-5.2054,-5.203,-5.1867,-5.1563,-5.0792,-5.0441,-5.016,-4.909,-4.793,-4.6617,-4.5453,-4.3985,-4.1816,-4.1369,-4.06,-3.9978,-3.9675,-3.922,-3.8611,-3.8458,-3.8152,-3.7673,-3.7673,-3.7501,-3.7655,-3.7501,-3.7365,-3.7074,-3.6937,-3.6627,-3.6005,-3.5849,-3.5067,-3.4596,-3.3807,-3.3316,-3.2536,-3.1897,-3.1431,-3.1271,-3.0465,-2.9818,-2.9656,-2.9318,-2.9169,-2.9169,-2.9332,-2.9494,-2.9656,-2.8667,-2.8328,-2.8816,-2.9155,-2.9318,-2.9332,-2.9332,-2.8993,-2.8491,-2.9006,-2.8993,-2.9155,-2.9318,-2.9995,-2.9833,-2.9494,-2.9656,-2.9833,-2.967,-2.9833,-2.9995,-2.9995,-2.9995,-2.9995,-2.9995,-2.9995,-2.9995,-2.9995,-2.9995,-2.9995,-2.9995,-2.9995,-2.9995,-2.9995,-2.9995,-2.9995,-2.9995,-2.9713,-2.9227,-2.8657,-2.7986,-2.9238,-3.0749,-3.1129,-3.2035,-3.1314,-3.0577,-2.9838,-2.891,-2.9653,-3.0208,-2.8849,-2.7909,-2.7944,-2.8737,-3.0259,-3.1196,-3.134,-3.1143,-3.0774,-3.1143,-3.1682,-5.6065,-5.5591,-5.4816,-5.3848,-5.3152,-5.3082,-5.2825,-5.2311,-5.1773,-5.1372,-5.0926,-4.9922,-4.8566,-4.7125,-4.6122,-4.4276,-4.2538,-4.1797,-4.1369,-4.0769,-4.06,-4.0148,-3.9372,-3.8763,-3.8458,-3.8152,-3.8152,-3.8152,-3.7998,-3.7673,-3.7365,-3.7228,-3.6919,-3.6782,-3.6316,-3.5727,-3.4736,-3.422,-3.3327,-3.2584,-3.1943,-3.1479,-3.0845,-3.0581,-3.0142,-2.9995,-2.9995,-2.9995,-2.9995,-2.9995,-2.9995,-2.9995,-2.9833,-2.9494,-2.9332,-2.967,-2.9833,-2.9833,-2.9995,-2.9995,-2.9818,-2.9318,-2.9656,-2.9656,-2.9494,-2.9494,-2.9995,-2.9995,-2.9995,-2.9995,-2.9995,-2.9995,-2.9995,-2.9995,-2.9995,-2.9995,-2.9995,-2.9995,-2.9995,-2.9995,-2.9995,-2.9995,-2.9995,-2.9995,-2.9995,-2.9995,-2.9995,-2.9995,-2.9995,-2.9833,-2.9494,-2.8906,-2.816,-2.8831,-3.1341,-3.1169,-3.0907,-3.113,-3.0761,-3.022,-2.9653,-2.8725,-2.891,-2.9467,-2.891,-2.7956,-2.7793,-2.798,-2.8352,-2.9096,-2.9838,-3.0405,-3.0048,-2.9863,-3.0233,-5.7487,-5.6754,-5.6625,-5.5692,-5.4204,-5.4134,-5.369,-5.2942,-5.2755,-5.2297,-5.2011,-5.0794,-4.9444,-4.8076,-4.6332,-4.478,-4.3592,-4.2793,-4.2333,-4.1518,-4.1369,-4.092,-4.0299,-3.9675,-3.9391,-3.9087,-3.8916,-3.8763,-3.8458,-3.8016,-3.7798,-3.7751,-3.7494,-3.7375,-3.6939,-3.5756,-3.5017,-3.4319,-3.3,-3.1834,-3.1287,-3.0827,-3.0543,-3.0051,-2.9995,-2.9995,-2.9995,-2.9995,-2.9995,-2.9995,-2.9995,-2.9995,-2.9833,-2.9833,-2.9833,-2.9995,-2.9995,-2.9995,-2.9995,-2.9995,-2.9995,-2.9995,-2.9995,-2.9833,-2.9833,-2.9995,-2.9995,-2.9995,-2.9995,-2.9995,-2.9995,-2.9995,-2.9995,-2.9995,-2.9995,-2.9995,-2.9995,-2.9995,-2.9995,-2.9995,-2.9995,-2.9995,-2.9995,-2.9995,-2.9995,-2.9995,-2.9995,-2.9995,-2.9995,-2.967,-2.9638,-2.8949,-2.8273,-3.0719,-3.2935,-3.1668,-3.0946,-3.113,-3.113,-3.0761,-2.9096,-2.8352,-2.798,-2.8352,-2.8166,-2.7793,-2.7793,-2.7793,-2.8166,-2.8352,-2.9096,-2.985,-2.9294,-2.8923,-2.9108,-5.8387,-5.7439,-5.6754,-5.6072,-5.5209,-5.5163,-5.4999,-5.4742,-5.4041,-5.3493,-5.3157,-5.1637,-5.0337,-4.9054,-4.7912,-4.6851,-4.5553,-4.4622,-4.3063,-4.2174,-4.2094,-4.1648,-4.1219,-4.09,-4.075,-4.075,-4.0129,-3.9447,-3.899,-3.8647,-3.8431,-3.8482,-3.8395,-3.8253,-3.8353,-3.7338,-3.5528,-3.4094,-3.2722,-3.1538,-3.0404,-3.0371,-3.0265,-3.0037,-2.9995,-2.9995,-2.9995,-2.9995,-2.9995,-2.9995,-2.9995,-2.9995,-2.9995,-2.9995,-2.9995,-2.9995,-2.9995,-2.9995,-2.9995,-2.9995,-2.9995,-2.9995,-2.9995,-2.9995,-2.9995,-2.9995,-2.9995,-2.9995,-2.9995,-2.9995,-2.9995,-2.9995,-2.9995,-2.9995,-2.9995,-2.9995,-2.9995,-2.9995,-2.9995,-2.9995,-2.9995,-2.9995,-2.9995,-2.9995,-2.9995,-2.9995,-2.9995,-2.9995,-2.9995,-2.9867,-3.0204,-2.9979,-3.0727,-3.2838,-3.3132,-3.2232,-3.2049,-3.2232,-3.2218,-3.0749,-2.8725,-2.8725,-2.891,-2.8539,-2.7793,-2.7793,-2.7793,-2.7816,-2.784,-2.7805,-2.8436,-2.904,-2.8779,-2.8202,-2.8623,-5.9679,-5.8387,-5.7487,-5.6754,-5.6037,-5.5551,-5.542,-5.5303,-5.4882,-5.4542,-5.4004,-5.2391,-5.1072,-4.9783,-4.8319,-4.7163,-4.6162,-4.4867,-4.3687,-4.272,-4.239,-4.2094,-4.1816,-4.1816,-4.1797,-4.1667,-4.1089,-4.0472,-3.9952,-3.9655,-3.9341,-3.9284,-3.9032,-3.883,-3.7919,-3.6298,-3.4851,-3.3254,-3.2147,-3.1237,-3.0251,-3.0563,-3.0791,-3.0137,-2.9995,-2.9995,-3.0009,-3.0009,-2.9995,-2.9995,-2.9995,-2.9995,-2.9995,-2.9995,-2.9995,-2.9995,-2.9995,-2.9995,-2.9995,-2.9995,-2.9995,-2.9995,-2.9995,-2.9995,-2.9995,-2.9995,-2.9995,-2.9995,-2.9995,-2.9995,-2.9995,-2.9995,-2.9995,-2.9995,-2.9995,-2.9995,-2.9995,-2.9995,-2.9995,-2.9995,-2.9995,-2.9995,-2.9995,-2.9995,-2.9995,-2.9995,-2.9995,-2.9995,-2.9995,-3.0045,-3.0424,-3.1745,-3.3047,-3.3314,-3.3146,-3.3146,-3.2781,-3.2598,-3.2401,-3.0749,-2.8725,-2.9084,-2.964,-2.8725,-2.7793,-2.7793,-2.8239,-2.7842,-2.7799,-2.7917,-2.8204,-2.8427,-2.8567,-2.8889,-2.907,-6.1282,-5.9704,-5.9053,-5.8021,-5.6984,-5.6344,-5.5785,-5.542,-5.5396,-5.5172,-5.4591,-5.3019,-5.175,-5.0704,-4.8766,-4.7303,-4.666,-4.5123,-4.3829,-4.28,-4.2531,-4.245,-4.2712,-4.2752,-4.2712,-4.2663,-4.2122,-4.1832,-4.1364,-4.0766,-4.0302,-4.0196,-3.9792,-3.8904,-3.7602,-3.6139,-3.4039,-3.2367,-3.1883,-3.1143,-3.0549,-3.1161,-3.1303,-3.062,-3.0478,-3.0393,-3.0251,-3.0066,-2.9995,-2.9995,-2.9995,-2.9995,-2.9995,-2.9995,-2.9995,-2.9995,-2.9995,-2.9995,-2.9995,-2.9995,-2.9995,-2.9995,-2.9995,-2.9995,-2.9995,-2.9995,-2.9995,-2.9995,-2.9995,-2.9995,-2.9995,-2.9995,-2.9995,-2.9995,-2.9995,-2.9995,-2.9995,-2.9995,-2.9995,-2.9995,-2.9995,-2.9995,-2.9995,-2.9995,-2.9995,-2.9995,-2.9995,-2.9995,-2.9995,-2.9995,-3.1162,-3.2934,-3.3132,-3.2218,-3.2401,-3.2963,-3.2781,-3.2598,-3.2232,-3.0946,-2.9096,-2.891,-2.8898,-2.8539,-2.8062,-2.8391,-2.9137,-2.8728,-2.8244,-2.8346,-2.8521,-2.8755,-2.906,-2.9565,-2.9822,-6.282,-6.2101,-6.1921,-6.0419,-5.8299,-5.7987,-5.6901,-5.5692,-5.542,-5.542,-5.4885,-5.352,-5.2419,-5.2462,-4.9145,-4.8207,-4.7923,-4.5482,-4.4347,-4.3768,-4.3083,-4.2933,-4.3517,-4.3577,-4.3597,-4.3678,-4.4442,-4.3783,-4.2791,-4.2332,-4.1795,-4.1228,-4.0923,-4.0163,-3.8639,-3.7213,-3.5245,-3.3257,-3.2153,-3.1454,-3.1061,-3.1502,-3.1744,-3.1417,-3.1374,-3.1132,-3.0748,-3.0293,-3.0037,-3.0009,-2.9995,-3.0037,-2.9995,-2.9995,-2.9995,-2.9995,-3.0051,-3.0051,-2.9995,-3.0094,-3.008,-3.008,-3.0066,-2.9995,-3.0051,-3.0023,-2.9995,-2.9995,-2.9995,-2.9995,-2.9995,-2.9995,-2.9995,-2.9995,-2.9995,-2.9995,-2.9995,-2.9995,-2.9995,-2.9995,-2.9995,-2.9995,-2.9995,-2.9995,-2.9995,-2.9995,-2.9833,-2.9833,-2.9833,-2.955,-3.0584,-3.2642,-3.2401,-3.1301,-3.2035,-3.2781,-3.2415,-3.2232,-3.1682,-3.0577,-2.891,-2.8539,-2.8352,-2.904,-3.0504,-3.0848,-3.079,-2.9787,-2.8819,-2.8843,-2.9271,-2.9307,-2.9412,-3.0011,-3.0269,-6.3307,-6.2368,-6.1282,-6.0152,-5.9,-5.7756,-5.6878,-5.606,-5.5574,-5.5133,-5.4349,-5.2957,-5.1839,-5.108,-4.8689,-4.7661,-4.7337,-4.5379,-4.4347,-4.4225,-4.3507,-4.3678,-4.4301,-4.4503,-4.4503,-4.4563,-4.4885,-4.4693,-4.4103,-4.355,-4.2999,-4.2397,-4.1897,-4.0794,-3.9184,-3.7623,-3.5795,-3.3777,-3.2643,-3.1958,-3.1516,-3.2057,-3.2171,-3.1829,-3.1459,-3.1232,-3.0919,-3.0336,-3.0194,-3.0478,-3.0521,-3.0364,-3.0051,-2.9995,-2.9995,-3.0023,-3.035,-3.0364,-3.0194,-3.0691,-3.0848,-3.0635,-3.0922,-3.0743,-3.0507,-3.0179,-2.9995,-3.0023,-2.9995,-2.9995,-2.9995,-2.9995,-2.9995,-3.0009,-2.9995,-2.9995,-2.9995,-3.0023,-2.9995,-2.9995,-2.9995,-2.9995,-2.9995,-2.9995,-2.9995,-2.9833,-2.967,-2.9656,-2.9508,-2.8967,-2.9121,-3.0732,-3.113,-3.0564,-3.092,-3.1498,-3.1498,-3.1498,-3.0946,-2.9467,-2.8539,-2.8539,-2.8376,-2.8852,-3.1752,-3.3574,-3.3288,-3.2519,-3.0984,-2.9596,-2.9902,-3.0163,-3.0257,-3.0632,-3.0644,-6.3813,-6.2866,-6.1452,-6.05,-5.9803,-5.81,-5.7065,-5.6496,-5.5729,-5.4792,-5.3648,-5.2215,-5.0862,-4.9517,-4.7423,-4.6366,-4.5934,-4.4765,-4.4114,-4.3951,-4.4133,-4.4744,-4.5006,-4.5066,-4.4925,-4.4764,-4.5187,-4.527,-4.4724,-4.4296,-4.3709,-4.326,-4.2153,-4.0764,-3.8755,-3.7265,-3.5552,-3.3549,-3.2951,-3.2483,-3.2185,-3.254,-3.2583,-3.2213,-3.1602,-3.1218,-3.1118,-3.0706,-3.0734,-3.1132,-3.1161,-3.0962,-3.0568,-3.0606,-3.0521,-3.0507,-3.0834,-3.0947,-3.0763,-3.1303,-3.1573,-3.1232,-3.1934,-3.1949,-3.1175,-3.0374,-3.0149,-3.0421,-3.0108,-2.9995,-2.9995,-2.9995,-2.9995,-3.0023,-3.0393,-3.0592,-3.0492,-3.0236,-3.0165,-3.0364,-3.0179,-3.0051,-2.9833,-2.9494,-2.9332,-2.967,-2.9332,-2.883,-2.8518,-2.7983,-2.7488,-2.9034,-2.9653,-2.9442,-2.9628,-3.0208,-3.059,-3.0577,-2.9838,-2.8539,-2.8352,-2.8364,-2.8237,-2.8499,-3.1555,-3.2407,-3.2961,-3.4306,-3.2826,-3.0656,-3.0668,-3.038,-3.059,-3.0336,-3.0302,-6.4605,-6.4554,-6.4096,-6.262,-6.103,-5.959,-5.7934,-5.652,-5.5658,-5.4198,-5.2741,-5.1701,-5.0289,-4.8212,-4.6331,-4.5152,-4.4449,-4.4144,-4.3648,-4.3628,-4.4865,-4.5609,-4.5126,-4.5086,-4.4724,-4.4362,-4.5468,-4.5364,-4.4135,-4.4211,-4.391,-4.2237,-4.132,-3.9708,-3.76,-3.6274,-3.4637,-3.285,-3.2702,-3.2811,-3.2739,-3.2811,-3.2967,-3.3408,-3.2384,-3.1772,-3.1772,-3.1687,-3.1687,-3.173,-3.1744,-3.1686,-3.171,-3.1714,-3.1431,-3.1175,-3.1531,-3.1659,-3.1701,-3.1886,-3.1929,-3.2001,-3.276,-3.299,-3.1987,-3.096,-3.0733,-3.1488,-3.0891,-3.0222,-3.0151,-3.0037,-3.0066,-3.0151,-3.0947,-3.1502,-3.1573,-3.072,-3.0706,-3.1203,-3.0706,-2.9833,-2.9346,-2.8354,-2.8518,-2.9006,-2.8654,-2.7838,-2.7359,-2.679,-2.6294,-2.6355,-2.6768,-2.7034,-2.7956,-2.8539,-2.9282,-2.9282,-2.9096,-2.8352,-2.798,-2.8015,-2.7875,-2.9303,-3.1056,-3.102,-3.1731,-3.401,-3.3985,-3.15,-3.0279,-3.0314,-3.0003,-2.9602,-2.9421,-6.3967,-6.3889,-6.2797,-6.1936,-6.1162,-5.9129,-5.7463,-5.5993,-5.4718,-5.3008,-5.1172,-5.02,-4.9059,-4.7724,-4.6194,-4.5359,-4.5184,-4.4718,-4.41,-4.3698,-4.5488,-4.5891,-4.5167,-4.5086,-4.4845,-4.4784,-4.5247,-4.525,-4.445,-4.3262,-4.2242,-4.1372,-4.0055,-3.8579,-3.7016,-3.6317,-3.5602,-3.415,-3.3567,-3.3337,-3.3337,-3.3337,-3.3451,-3.3522,-3.2867,-3.2455,-3.2412,-3.2412,-3.2242,-3.1957,-3.2185,-3.2167,-3.1964,-3.1884,-3.1872,-3.1971,-3.2213,-3.2242,-3.1957,-3.254,-3.2853,-3.2673,-3.3198,-3.3213,-3.2673,-3.2428,-3.2362,-3.2981,-3.2498,-3.2,-3.1161,-3.0507,-3.0407,-3.1019,-3.1602,-3.19,-3.2114,-3.1787,-3.1715,-3.136,-3.0734,-2.8817,-2.7674,-2.669,-2.7674,-2.751,-2.6841,-2.6183,-2.5689,-2.5027,-2.5242,-2.5242,-2.5239,-2.5743,-2.6484,-2.7233,-2.798,-2.8352,-2.8551,-2.8166,-2.7793,-2.7641,-2.8108,-2.9506,-2.9614,-2.9519,-3.0302,-3.2763,-3.3343,-3.1476,-2.8996,-2.9441,-2.9762,-2.9239,-2.8305,-6.3258,-6.2864,-6.1872,-6.1443,-6.0959,-5.9129,-5.7373,-5.6098,-5.4426,-5.2302,-5.0219,-4.9167,-4.8129,-4.7041,-4.6157,-4.5673,-4.5578,-4.5809,-4.5408,-4.4885,-4.5851,-4.5931,-4.5167,-4.4784,-4.4664,-4.4664,-4.4664,-4.4487,-4.3901,-4.2228,-4.1012,-4.0434,-3.8773,-3.7413,-3.6464,-3.6026,-3.5518,-3.4752,-3.4056,-3.3692,-3.3678,-3.3493,-3.3493,-3.3564,-3.2882,-3.2583,-3.2754,-3.293,-3.2555,-3.2171,-3.2287,-3.2362,-3.2414,-3.2365,-3.254,-3.2811,-3.2981,-3.2825,-3.2569,-3.318,-3.3436,-3.3166,-3.3452,-3.3452,-3.3123,-3.3408,-3.3621,-3.365,-3.3664,-3.318,-3.2014,-3.1019,-3.1189,-3.2284,-3.2227,-3.2327,-3.2711,-3.2266,-3.1813,-3.0965,-2.9846,-2.8572,-2.7018,-2.5854,-2.6183,-2.5701,-2.5358,-2.453,-2.4043,-2.371,-2.3981,-2.4754,-2.4769,-2.5179,-2.5921,-2.6858,-2.7606,-2.8166,-2.8166,-2.7793,-2.7606,-2.7535,-2.8083,-2.8559,-2.8284,-2.8502,-2.926,-2.9908,-2.984,-2.8578,-2.7992,-2.8505,-2.9078,-2.8781,-2.787,-6.2468,-6.2068,-6.1586,-6.1247,-6.0789,-5.9474,-5.8238,-5.6618,-5.5116,-5.253,-4.9838,-4.9123,-4.7661,-4.6177,-4.6061,-4.5481,-4.5587,-4.6535,-4.6675,-4.5931,-4.6132,-4.573,-4.4925,-4.412,-4.3758,-4.3879,-4.3758,-4.3279,-4.251,-4.1382,-4.0451,-3.9438,-3.7147,-3.5843,-3.5501,-3.4644,-3.4106,-3.3754,-3.3479,-3.3579,-3.3607,-3.3109,-3.3109,-3.3493,-3.2512,-3.2171,-3.2916,-3.293,-3.2711,-3.2697,-3.2227,-3.2405,-3.3298,-3.3507,-3.3607,-3.3564,-3.3635,-3.365,-3.3607,-3.3621,-3.3664,-3.3579,-3.3635,-3.3579,-3.3564,-3.3635,-3.351,-3.3496,-3.3454,-3.3072,-3.2213,-3.1843,-3.2227,-3.3294,-3.2662,-3.2591,-3.2902,-3.1999,-3.0553,-2.9116,-2.8285,-2.8218,-2.8504,-2.6677,-2.4708,-2.4387,-2.4043,-2.3544,-2.2719,-2.2395,-2.3029,-2.4163,-2.4728,-2.4781,-2.5555,-2.6296,-2.7233,-2.7781,-2.7606,-2.7233,-2.6858,-2.6716,-2.7188,-2.6957,-2.6648,-2.7015,-2.7723,-2.8437,-2.7803,-2.7278,-2.7038,-2.7054,-2.7376,-2.7284,-2.6588,-6.2416,-6.1989,-6.1561,-6.1273,-6.0618,-5.9327,-5.7248,-5.4855,-5.3314,-5.115,-4.8597,-4.794,-4.7505,-4.7143,-4.702,-4.6737,-4.6052,-4.5891,-4.5448,-4.4643,-4.4603,-4.4442,-4.404,-4.3255,-4.3135,-4.3577,-4.3135,-4.2663,-4.2253,-4.0162,-3.8876,-3.8146,-3.5615,-3.4019,-3.3424,-3.3147,-3.2893,-3.2544,-3.2427,-3.264,-3.301,-3.2867,-3.3067,-3.3394,-3.2469,-3.2114,-3.2902,-3.293,-3.2759,-3.2327,-3.2723,-3.3075,-3.3152,-3.3451,-3.3692,-3.3692,-3.3678,-3.3692,-3.3692,-3.3692,-3.3678,-3.3678,-3.3678,-3.3692,-3.3692,-3.3692,-3.3132,-3.2767,-3.2949,-3.3048,-3.2283,-3.2502,-3.2526,-3.1725,-3.1383,-3.1369,-3.1845,-3.1029,-2.9898,-2.9181,-2.8405,-2.7713,-2.7018,-2.4542,-2.3544,-2.4055,-2.321,-2.2552,-2.206,-2.1933,-2.2562,-2.364,-2.46,-2.4749,-2.4906,-2.5313,-2.6108,-2.6671,-2.6671,-2.6097,-2.5722,-2.5555,-2.5561,-2.5329,-2.5415,-2.5712,-2.616,-2.6947,-2.67,-2.5973,-2.5743,-2.5743,-2.5482,-2.5508,-2.5656,-6.2416,-6.1989,-6.1417,-6.0669,-5.989,-5.8883,-5.6624,-5.3666,-5.2415,-5.045,-4.8257,-4.7651,-4.7487,-4.7495,-4.7058,-4.6454,-4.5911,-4.5327,-4.4583,-4.3798,-4.3738,-4.3557,-4.3235,-4.2672,-4.2732,-4.3114,-4.2652,-4.2242,-4.1648,-3.9031,-3.733,-3.6472,-3.44,-3.2848,-3.2114,-3.2161,-3.2142,-3.1958,-3.1815,-3.2,-3.2384,-3.2427,-3.2597,-3.2924,-3.2014,-3.1687,-3.2085,-3.2099,-3.1929,-3.1531,-3.2668,-3.3052,-3.2583,-3.3223,-3.355,-3.3266,-3.3095,-3.301,-3.301,-3.2995,-3.301,-3.301,-3.2653,-3.2446,-3.2474,-3.2103,-3.1497,-3.06,-3.1059,-3.1023,-3.0281,-3.1206,-3.1252,-2.9849,-2.9397,-2.9344,-2.9623,-2.9001,-2.8228,-2.8164,-2.7684,-2.6854,-2.5524,-2.4043,-2.321,-2.3532,-2.2719,-2.206,-2.1902,-2.1902,-2.2562,-2.365,-2.4414,-2.4739,-2.4374,-2.4415,-2.499,-2.5545,-2.5356,-2.4403,-2.4214,-2.4046,-2.4235,-2.4132,-2.38,-2.3907,-2.5288,-2.6005,-2.6015,-2.5145,-2.4807,-2.4685,-2.4037,-2.4238,-2.4496,-6.2416,-6.1989,-6.1247,-6.0036,-5.8362,-5.8164,-5.6258,-5.3273,-5.2282,-5.0728,-4.8778,-4.7852,-4.7601,-4.7359,-4.579,-4.5026,-4.5006,-4.4865,-4.4342,-4.3637,-4.3617,-4.3195,-4.243,-4.239,-4.2262,-4.2342,-4.2094,-4.1648,-4.0731,-3.8152,-3.642,-3.5419,-3.3474,-3.2069,-3.1547,-3.1498,-3.1468,-3.1545,-3.1602,-3.1715,-3.1772,-3.1744,-3.173,-3.1772,-3.1203,-3.0919,-3.1004,-3.0962,-3.0976,-3.0947,-3.1884,-3.228,-3.2043,-3.291,-3.3166,-3.2555,-3.2099,-3.1858,-3.19,-3.1929,-3.1915,-3.1714,-3.112,-3.0504,-3.0452,-2.9409,-2.8571,-2.7932,-2.7767,-2.7259,-2.668,-2.8087,-2.8718,-2.7737,-2.7241,-2.7228,-2.7601,-2.6299,-2.5684,-2.6057,-2.548,-2.4731,-2.4696,-2.4696,-2.4186,-2.3366,-2.2552,-2.1902,-2.1902,-2.1902,-2.2792,-2.4006,-2.4467,-2.427,-2.3275,-2.3549,-2.43,-2.431,-2.3339,-2.2149,-2.2339,-2.2339,-2.2709,-2.2776,-2.248,-2.3073,-2.4127,-2.4748,-2.4511,-2.432,-2.3827,-2.3597,-2.3025,-2.3118,-2.3468,-6.2416,-6.1989,-6.1417,-6.0207,-5.8164,-5.7007,-5.493,-5.2484,-5.1234,-4.9413,-4.7245,-4.6919,-4.6434,-4.571,-4.4623,-4.41,-4.4,-4.3416,-4.2974,-4.2793,-4.2772,-4.2632,-4.2282,-4.1816,-4.1518,-4.1369,-4.0392,-3.9467,-3.8708,-3.6265,-3.4844,-3.4026,-3.2505,-3.1345,-3.0845,-3.0548,-3.0322,-3.0492,-3.0492,-3.0706,-3.1061,-3.072,-3.0706,-3.1075,-3.0578,-3.0464,-3.0905,-3.0933,-3.0933,-3.0947,-3.1659,-3.2114,-3.2227,-3.2,-3.2057,-3.2341,-3.2043,-3.1815,-3.1815,-3.1815,-3.1643,-3.0968,-3.0449,-2.9743,-2.8718,-2.658,-2.5618,-2.6426,-2.4886,-2.4014,-2.4149,-2.5804,-2.6464,-2.5612,-2.5516,-2.5133,-2.513,-2.4763,-2.4766,-2.5384,-2.399,-2.321,-2.4364,-2.4696,-2.4364,-2.3521,-2.2552,-2.1902,-2.1902,-2.1944,-2.2447,-2.3546,-2.3221,-2.2497,-2.1853,-2.2227,-2.2374,-2.2009,-2.2329,-2.1759,-2.1949,-2.1949,-2.2139,-2.1886,-2.1791,-2.2282,-2.2909,-2.2889,-2.2586,-2.2728,-2.2928,-2.2938,-2.2301,-2.213,-2.2719,-6.2416,-6.1989,-6.1273,-5.9345,-5.671,-5.4809,-5.2753,-5.0416,-4.9292,-4.7693,-4.597,-4.5468,-4.4825,-4.3959,-4.3436,-4.3175,-4.3155,-4.2632,-4.239,-4.239,-4.2242,-4.2094,-4.2094,-4.1518,-4.092,-4.028,-3.9316,-3.8214,-3.6986,-3.5452,-3.4058,-3.2951,-3.1882,-3.0949,-3.0275,-2.998,-2.9995,-2.9995,-2.9995,-3.0179,-3.045,-3.0194,-3.0165,-3.0464,-3.0179,-3.0194,-3.0492,-3.0549,-3.0549,-3.0592,-3.1147,-3.1459,-3.1445,-3.1289,-3.1458,-3.1388,-3.1203,-3.1075,-3.0908,-3.0543,-3.0375,-2.9701,-2.9221,-2.8699,-2.7981,-2.5576,-2.4439,-2.5264,-2.3382,-2.2563,-2.3744,-2.4221,-2.4376,-2.4198,-2.3699,-2.3388,-2.3076,-2.3221,-2.3377,-2.3888,-2.2898,-2.2395,-2.3388,-2.4198,-2.4198,-2.3521,-2.2541,-2.1902,-2.1902,-2.1902,-2.2311,-2.2667,-2.2436,-2.1837,-2.1288,-2.0963,-2.0865,-2.0895,-2.1327,-2.1455,-2.1336,-2.1364,-2.1465,-2.0794,-2.1299,-2.1694,-2.1694,-2.1782,-2.1812,-2.194,-2.2149,-2.2339,-2.2329,-2.1949,-2.2008,-6.2416,-6.1821,-6.0635,-5.7966,-5.4656,-5.2274,-5.0107,-4.7952,-4.7058,-4.5956,-4.4704,-4.398,-4.3175,-4.245,-4.243,-4.243,-4.243,-4.239,-4.239,-4.2242,-4.1945,-4.1797,-4.1667,-4.1349,-4.0449,-3.9353,-3.8556,-3.714,-3.5419,-3.4811,-3.3569,-3.1882,-3.1417,-3.0803,-2.9995,-2.9995,-2.9995,-2.9995,-2.9995,-2.9995,-2.9995,-2.9995,-2.9995,-2.9995,-2.9995,-2.9995,-3.0037,-2.9995,-2.9995,-3.0037,-3.0549,-3.0592,-3.0165,-3.0677,-3.0763,-3.0094,-2.9861,-2.9656,-2.9346,-2.8816,-2.8531,-2.8477,-2.7753,-2.7286,-2.7095,-2.5615,-2.4732,-2.4743,-2.341,-2.3388,-2.4376,-2.3388,-2.2887,-2.3521,-2.3043,-2.2227,-2.2395,-2.2227,-2.206,-2.1902,-2.207,-2.1902,-2.2227,-2.3377,-2.3865,-2.3199,-2.2385,-2.1902,-2.1902,-2.1902,-2.1975,-2.1944,-2.1913,-2.1611,-2.0879,-2.0036,-2.0179,-2.0464,-2.1088,-2.096,-2.0574,-2.0776,-2.1299,-2.0583,-2.0886,-2.1391,-2.1476,-2.1707,-2.1626,-2.1523,-2.163,-2.1912,-2.1828,-2.1727,-2.1886,-6.2274,-6.1457,-5.9956,-5.7994,-5.5593,-5.1239,-4.825,-4.6575,-4.5643,-4.4376,-4.3034,-4.2793,-4.2571,-4.239,-4.239,-4.239,-4.239,-4.239,-4.2242,-4.1965,-4.1797,-4.1667,-4.1369,-4.06,-3.9997,-3.922,-3.7021,-3.528,-3.4042,-3.23,-3.1081,-3.0451,-3.0318,-3.0156,-2.9995,-2.9995,-2.9995,-2.9995,-2.9995,-2.9995,-2.9995,-2.9995,-2.9995,-2.9995,-2.9995,-2.9995,-2.9995,-2.9995,-2.9995,-2.9995,-3.0137,-3.0151,-3.0009,-2.9839,-2.9853,-2.9861,-2.9318,-2.8816,-2.8816,-2.864,-2.8328,-2.77,-2.7208,-2.6538,-2.5982,-2.561,-2.5593,-2.5719,-2.5866,-2.5701,-2.4838,-2.4186,-2.4198,-2.4364,-2.4198,-2.3997,-2.4032,-2.3366,-2.2698,-2.206,-2.1902,-2.1881,-2.207,-2.2395,-2.2552,-2.2385,-2.206,-2.1902,-2.1902,-2.1902,-2.1902,-2.1902,-2.1902,-2.131,-2.002,-2.0031,-2.0179,-2.0188,-2.029,-2.0087,-1.9948,-1.9874,-2.0161,-2.0914,-2.0611,-2.025,-2.0096,-2.0913,-2.135,-2.1223,-2.1513,-2.169,-2.1942,-2.1845,-2.1903,-6.1179,-6.0317,-5.8034,-5.5959,-5.3854,-5.0182,-4.732,-4.5234,-4.4199,-4.328,-4.241,-4.239,-4.239,-4.239,-4.239,-4.239,-4.239,-4.239,-4.2242,-4.2114,-4.1648,-4.1369,-4.107,-4.0449,-3.9675,-3.8745,-3.6695,-3.5313,-3.4058,-3.2171,-3.0934,-3.0641,-3.0156,-2.9995,-2.9995,-2.9995,-2.9995,-2.998,-2.9988,-2.9685,-2.9141,-2.9127,-2.9127,-2.9141,-2.971,-2.9995,-2.9995,-2.9995,-2.9995,-2.9995,-2.9995,-2.9995,-2.9995,-2.9228,-2.9032,-2.8934,-2.8263,-2.7837,-2.7507,-2.7507,-2.7203,-2.6606,-2.6434,-2.5782,-2.5141,-2.5397,-2.5528,-2.545,-2.6688,-2.6739,-2.49,-2.4552,-2.4342,-2.3531,-2.3658,-2.3994,-2.3866,-2.2811,-2.2055,-2.1976,-2.1208,-2.1106,-2.184,-2.1902,-2.1902,-2.1902,-2.1902,-2.1902,-2.1902,-2.1556,-2.1545,-2.1892,-2.1219,-2.0367,-1.9719,-1.992,-2.0068,-2.0167,-2.0389,-2.0396,-1.985,-1.9531,-2.0074,-2.0963,-2.0307,-1.9821,-2.0531,-2.0772,-2.0827,-2.0934,-2.1692,-2.1759,-2.1978,-2.2041,-2.1598,-5.9571,-5.8784,-5.5529,-5.2935,-5.0628,-4.8787,-4.6492,-4.3964,-4.2695,-4.2008,-4.2008,-4.2008,-4.2008,-4.2008,-4.2008,-4.2008,-4.2028,-4.2028,-4.1861,-4.1734,-4.0996,-4.057,-4.0402,-3.9636,-3.8697,-3.7619,-3.6687,-3.5475,-3.3923,-3.2197,-3.1178,-3.0962,-3.0174,-2.9895,-2.998,-2.9995,-2.9952,-2.9852,-2.9722,-2.9363,-2.8387,-2.8387,-2.8316,-2.8203,-2.934,-2.9923,-2.9753,-2.9895,-2.9923,-2.9578,-2.9564,-2.9479,-2.9309,-2.8372,-2.7938,-2.7685,-2.7075,-2.6718,-2.6259,-2.6246,-2.5953,-2.5671,-2.5671,-2.5325,-2.4621,-2.4865,-2.4992,-2.4927,-2.6,-2.6191,-2.4871,-2.4238,-2.3464,-2.2325,-2.2652,-2.2776,-2.2663,-2.1436,-2.0992,-2.1788,-2.0606,-2.0253,-2.1715,-2.1902,-2.1902,-2.1892,-2.1788,-2.1767,-2.1569,-2.0891,-2.0547,-2.0833,-2.0111,-1.956,-1.9822,-1.9691,-1.9916,-2.0188,-2.0892,-2.0872,-2.0029,-2.0029,-2.0236,-2.0922,-2.0483,-2.0425,-2.1576,-2.0665,-2.0657,-2.1529,-2.1903,-2.1785,-2.1559,-2.1364,-2.0782,-5.7502,-5.5449,-5.3402,-5.0901,-4.8187,-4.6049,-4.4522,-4.3444,-4.1531,0.0,0.0,-4.0157,-4.0157,-4.0177,-4.0157,-4.0177,-4.0177,-4.0177,-3.9614,-3.8784,-3.8376,-3.7497,-3.6486,-3.5868,-3.543,-3.4844,-3.3368,-3.2325,-3.1591,-2.9958,-2.9165,-2.9327,-2.9212,-2.9468,-2.9966,-2.9995,-2.9724,-2.9241,-2.9013,-2.9141,-2.9653,-2.9653,-2.917,-2.8146,-2.934,-2.9511,-2.8515,-2.944,-2.9352,-2.8053,-2.7983,-2.7521,-2.6263,-2.6082,-2.6038,-2.6031,-2.6018,-2.5825,-2.5825,-2.5825,-2.5671,-2.5671,-2.5671,-2.5464,-2.482,-2.3312,-2.304,-2.494,-2.4666,-2.4396,-2.402,-2.2704,-2.1988,-2.2513,-2.2727,-2.1943,-2.0304,-2.0668,-2.1205,-2.1777,-2.0899,-2.0853,-2.1684,-2.1829,-2.1902,-2.184,-2.1373,-2.0993,-2.0779,-1.9697,-1.84,-1.8108,-1.8236,-1.9096,-2.0664,-2.0862,-2.0684,-2.0516,-2.0179,-1.985,-1.9672,-2.0525,-2.1377,-2.1515,-2.1576,-2.1566,-2.1902,-2.1357,-2.1699,-2.194,-2.1961,-2.1611,-2.0701,-1.9696,-1.8691,-5.5539,-5.3348,-5.1032,-4.8621,0.0,-4.438,-4.3119,-4.2241,-4.0635,-3.9833,-3.9674,-3.9674,-3.9674,-3.9674,-3.9674,-3.9576,-3.9457,-3.9457,-3.9019,-3.8299,-3.7595,-3.6619,-3.5616,-3.4895,-3.4135,-3.3698,-3.282,-3.2117,-3.1376,-3.0184,-2.9461,-2.9159,-2.8727,-2.8572,-2.8572,-2.8885,-2.8899,-2.8587,-2.7781,-2.7612,-2.8075,-2.8075,-2.7804,-2.7235,-2.8387,0.0,0.0,0.0,0.0,0.0,0.0,0.0,0.0,-2.3751,0.0,-2.4659,-2.2471,-2.081,-2.0303,-2.0543,-2.1316,-2.2531,-2.2798,-2.2541,-2.211,-2.2558,-2.2236,-2.1025,-2.2761,-2.3052,-2.1312,-2.1564,-2.1738,-2.1285,-2.1319,-2.054,-1.8672,-1.8924,-2.0188,-2.1466,-2.0041,-1.8886,-1.9338,-2.0062,-2.0698,-2.0698,-2.0182,-1.9931,-2.0001,-1.8002,-1.6785,-1.7101,-1.6876,-1.7178,-1.8891,-1.9681,-2.0019,-1.9775,-1.8661,-1.7725,-1.8066,-1.8819,-1.9766,-2.0671,-2.1549,-2.1048,-1.9534,-1.9111,-1.9932,-2.1443,-2.1209,-2.0083,-1.8271,-1.7438,-1.6759,-5.2934,-5.0989,-4.8523,-4.6276,-4.437,-4.2904,-4.1645,-4.0571,-3.9621,-3.9211,-3.9211,-3.9211,-3.9191,-3.9211,-3.9211,-3.9074,-3.8702,-3.8722,-3.8406,-3.7814,-3.682,-3.5978,-3.5289,-3.415,-3.3288,-3.2532,-3.2276,-3.1856,-3.0979,-3.0244,-2.9581,-2.897,-2.8248,-2.7747,-2.7392,0.0,0.0,0.0,-2.6809,-2.6482,-2.6581,-2.6581,-2.6482,-2.6268,-2.7463,0.0,-2.779,-2.8003,-2.7852,-2.7325,-2.7147,0.0,0.0,0.0,0.0,0.0,0.0,0.0,0.0,0.0,0.0,0.0,-1.8867,-1.8804,-1.9076,-2.1878,-2.2187,-1.8539,-2.1198,-2.1888,-1.8846,-2.0793,-2.1637,-2.0289,-2.0165,-1.9569,-1.7795,-1.7952,-1.8762,-2.084,-1.883,-1.7085,-1.7159,-1.8099,-1.9015,-1.8868,-1.876,-1.855,-1.8672,-1.6252,-1.5305,-1.6539,-1.5687,-1.5175,-1.6087,-1.7798,-1.879,-1.8522,-1.6654,-1.5833,-1.6474,-1.6571,-1.7034,-1.9077,-1.997,-1.9323,-1.6155,-1.5874,-1.7328,-1.9902,-1.9492,-1.8039,-1.5853,-1.5377,-1.5424,-4.9164,-4.7318,-4.6096,-4.4534,-4.2517,-4.0405,-3.919,-3.846,-3.7962,-3.7812,-3.7812,-3.7551,-3.7401,-3.7401,-3.7401,-3.727,-3.6897,-3.6502,-3.5821,-3.5003,-3.4486,-3.3659,-3.2726,-3.2059,-3.1233,-3.0524,-2.9408,-2.8566,-2.7987,-2.7465,-2.7329,-2.7425,-2.7292,-2.7534,-2.7932,-2.6979,-2.6197,-2.5671,-2.6581,-2.7321,-2.7875,-2.789,-2.7349,-2.6354,-2.7463,-2.7619,-2.6567,-2.7548,-2.7456,-2.5964,-2.5608,-2.517,-2.4716,-2.3581,-2.1656,0.0,-1.8238,0.0,0.0,0.0,0.0,0.0,0.0,0.0,0.0,-2.0961,-2.2871,-2.2964,-2.1651,-2.0581,-2.0154,-2.0344,-2.0538,-2.0816,-2.0872,-2.0581,-1.9997,-1.9705,-1.9065,-1.7654,-1.7801,-1.7677,-1.7066,-1.714,-1.7233,-1.7298,-1.7244,-1.6893,-1.5551,-1.4943,-1.4729,-1.4817,-1.4761,-1.4611,-1.5112,-1.6191,-1.6875,-1.6248,-1.5327,-1.4833,-1.4967,-1.4944,-1.5637,-1.7705,-1.7078,-1.5614,-1.4952,-1.4849,-1.5048,-1.565,-1.6132,-1.5964,-1.5072,-1.4737,-1.4879,-4.8455,-4.6652,-4.5159,-4.2791,-3.9981,-3.8433,-3.7656,-3.7313,-3.662,-3.6394,-3.6271,-3.5982,-3.5734,-3.561,-3.563,-3.5486,-3.5131,-3.5006,-3.4358,-3.36,-3.2707,-3.1401,-3.0064,-2.9029,-2.819,-2.7462,-2.7081,-2.7122,-2.7325,-2.7088,-2.6936,-2.7356,-2.694,-2.6067,-2.4723,-2.5657,-2.6098,-2.5827,-2.6368,-2.6795,-2.7065,-2.7065,-2.6809,-2.6268,-2.6795,-2.6809,-2.6254,-2.678,-2.6519,-2.5401,-2.5218,-2.4919,-2.4438,-2.111,-1.8225,0.0,0.0,0.0,0.0,0.0,0.0,0.0,0.0,0.0,0.0,0.0,-1.7287,-1.3733,-1.6875,-1.9715,-2.125,-1.978,-1.8565,-1.8368,-1.7835,-1.7997,-1.9631,-1.8282,-1.7455,-1.8158,-1.7805,-1.7371,-1.6918,-1.6631,-1.6186,-1.5731,-1.5727,-1.5468,-1.4721,-1.454,-1.454,-1.454,-1.454,-1.454,-1.454,-1.5084,-1.5369,-1.5053,-1.4745,-1.454,-1.454,-1.454,-1.4935,-1.5845,-1.5297,-1.4574,-1.4611,-1.454,-1.454,-1.4579,-1.48,-1.4871,-1.4603,-1.454,-1.4603,-4.6314,-4.4856,-4.2648,-4.033,-3.7825,-3.6306,-3.5752,-3.5921,-3.4979,-3.4566,-3.4566,-3.4291,-3.3574,-3.2874,-3.2444,-3.2235,-3.2338,-3.2695,-3.2728,-3.2457,-3.1419,-3.0246,-2.8951,-2.7677,-2.6684,-2.5825,-2.5869,-2.6255,-2.685,-2.6479,-2.6173,-2.5975,-2.5277,-2.3894,-2.1966,-2.4051,-2.5472,-2.6226,-2.6226,-2.6226,-2.6226,-2.6226,-2.6226,-2.6226,-2.6084,-2.6084,-2.6084,-2.5942,-2.5589,-2.4871,-2.4851,-2.4371,-2.3477,-1.8922,0.0,0.0,0.0,0.0,0.0,0.0,0.0,0.0,0.0,-1.0701,-0.8219,0.0,-1.0247,0.0,-1.2399,-1.8531,-2.1229,-1.9085,0.0,0.0,-1.5374,-1.5118,-1.6555,-1.6345,-1.6715,-1.8557,-1.7475,-1.6406,-1.5937,-1.5665,-1.5302,-1.4697,-1.4445,-1.4358,-1.4311,-1.4421,-1.454,-1.454,-1.454,-1.454,-1.454,-1.454,-1.4571,-1.454,-1.4548,-1.454,-1.454,-1.454,-1.454,-1.454,-1.454,-1.454,-1.4548,-1.454,-1.454,-1.454,-1.454,-1.454,-1.454,-1.454,-1.4548,-4.0409,-3.9591,-3.681,-3.6062,-3.6466,-3.3674,-3.3016,-3.3732,-3.2709,-3.2161,-3.2161,-3.2141,-3.0681,-2.8208,-2.673,0.0,-2.7588,-2.8808,-2.9848,-3.0903,-3.1057,-3.1032,-3.0907,-2.976,-2.862,-2.7228,-2.6597,-2.6124,-2.5428,-2.4769,-2.3702,-2.2255,-2.1503,-2.1448,-2.1779,-2.2023,-2.3465,-2.6169,-2.6211,-2.6226,-2.6226,-2.6226,-2.6226,-2.6226,-2.5942,-2.5644,-2.5644,-2.536,-2.4958,-2.4451,-2.4198,-2.3438,-2.2321,0.0,0.0,0.0,0.0,0.0,0.0,0.0,0.0,0.0,0.0,0.0,0.0,0.0,0.0,-0.3783,-1.0866,0.0,-1.926,-1.818,0.0,0.0,0.0,-1.3634,-0.983,-1.5027,-1.8382,-1.7287,0.0,0.0,-1.3116,-1.3892,-1.4689,-1.454,-1.4169,-1.3822,-1.3624,-1.4145,-1.454,-1.454,-1.454,-1.454,-1.4485,-1.4453,-1.4445,-1.4524,-1.454,-1.4516,-1.454,-1.454,-1.454,-1.454,-1.454,-1.454,-1.454,-1.4633,-1.454,-1.4524,-1.454,-1.454,-1.4492,-1.4492,-1.4492,-3.6167,-2.9788,-2.8048,-2.8633,-3.034,-2.8592,-2.9295,-3.1513,-3.0603,-2.9699,-2.9185,-2.8456,-2.6611,-2.3863,-2.2474,0.0,0.0,0.0,-2.5129,-2.6646,-2.6744,-2.7118,-2.7758,-2.6962,-2.638,-2.5983,-2.5786,-2.5979,-2.6551,-2.5382,-2.1768,-1.5936,0.0,-1.7337,-1.6259,-1.9465,-2.2078,-2.3907,-2.5074,-2.5842,-2.6211,-2.6226,-2.6084,-2.5928,-2.5156,-2.4823,-2.4823,-2.4328,-2.3225,-2.1565,-2.2193,-1.9812,0.0,0.0,0.0,0.0,0.0,0.0,0.0,0.0,0.0,0.0,0.0,-0.6834,-0.4845,0.0,0.0,0.0,-0.7843,-1.1761,-1.5413,-1.4897,0.0,0.0,0.0,0.0,0.0,0.0,0.0,-1.6066,-1.3277,-1.1387,-1.1866,-1.3064,-1.4067,-1.3924,-1.304,-1.2669,-1.3411,0.0,-1.454,-1.454,-1.454,-1.4406,-1.4131,-1.3569,-1.3593,-1.4406,-1.4208,-1.4203,-1.4445,-1.454,-1.454,-1.454,-1.454,-1.454,-1.454,-1.4588,-1.4534,-1.4661,-1.454,-1.4545,-1.4139,-1.4027,-1.3969,-3.1002,0.0,0.0,0.0,0.0,-2.4351,-2.5523,-2.8289,-2.7005,-2.5809,-2.4917,-2.3784,0.0,0.0,0.0,0.0,0.0,0.0,-2.1477,-2.3189,-2.4149,-2.5061,-2.5897,-2.5136,-2.4928,-2.4924,-2.494,-2.5151,-2.5271,-2.3379,-1.8824,-1.1793,0.0,0.0,0.0,0.0,-2.0061,-2.2049,-2.3964,-2.523,-2.5546,-2.5561,-2.5408,-2.499,-2.4123,-2.3674,-2.366,-2.2457,-2.0809,-1.8709,-1.7964,0.0,0.0,0.0,0.0,0.0,0.0,0.0,0.0,0.0,0.0,0.0,0.0,0.0,0.0,0.0,0.0,0.0,0.0,0.0,-1.1995,-1.1904,-1.1059,0.0,0.0,0.0,0.0,0.0,0.0,0.0,0.0,0.0,-1.0877,-1.1903,-1.2551,0.0,0.0,-1.1809,-1.2787,-1.3514,-1.4027,-1.4224,-1.4402,0.0,-1.3019,-1.2391,-1.2345,-1.3481,-1.3703,-1.3514,-1.3414,-1.4106,-1.4219,-1.3223,-1.3878,-1.4256,-1.3545,-1.3348,-1.3502,-1.3863,-1.3578,-1.3143,-1.2888,-1.2996,-1.2983,0.0,0.0,0.0,0.0,-2.2958,0.0,0.0,0.0,-2.1298,-1.995,0.0,-1.8071,0.0,0.0,0.0,0.0,-1.1902,-1.6551,0.0,0.0,-2.4378,-2.63,-2.6369,-2.5579,-2.5013,-2.4744,-2.4552,-2.3156,-2.048,-1.7331,0.0,0.0,0.0,0.0,0.0,0.0,-1.7044,-2.0537,-2.3068,-2.4245,-2.4009,-2.4009,-2.3877,-2.3466,-2.2503,-2.2053,-2.1959,-1.9589,-1.7635,-1.6309,-1.108,0.0,0.0,0.0,0.0,0.0,0.0,0.0,0.0,0.0,0.0,0.0,0.0,0.0,0.0,0.0,0.0,0.0,0.0,0.0,0.0,-0.9772,0.0,0.0,0.0,0.0,0.0,0.0,0.0,0.0,0.0,-0.8249,-1.0096,-1.0096,-1.0238,-1.1382,0.0,0.0,0.0,0.0,-1.278,-1.3458,-1.3692,-1.312,-1.1393,-1.0779,-1.0745,-1.1492,0.0,0.0,-1.0998,-1.2757,-1.3254,-1.0172,-1.2365,-1.3695,-1.0953,-1.0538,-1.0925,-1.1953,-1.0937,-0.9991,-1.0263,-1.1098,-1.1599,0.0,0.0,0.0,0.0,0.0,0.0,0.0,0.0,0.0,-1.606,-1.5133,-1.4143,0.0,0.0,0.0,0.0,0.0,0.0,0.0,0.0,-1.7736,-1.947,-2.0251,-2.1071,-2.1066,-2.0354,-1.9376,-1.7191,0.0,0.0,0.0,0.0,0.0,0.0,0.0,0.0,-1.499,-1.7564,-2.0821,-2.2699,-2.2972,-2.2875,-2.2625,-2.2123,-2.1669,-2.0409,-1.8387,-1.6893,-1.54,0.0,0.0,0.0,0.0,0.0,0.0,0.0,0.0,0.0,0.0,0.0,0.0,0.0,0.0,0.0,0.0,0.0,0.0,0.0,0.0,0.0,0.0,0.0,-0.8508,0.0,0.0,0.0,0.0,0.0,0.0,0.0,0.0,0.0,-0.7523,-0.8588,-0.9796,-1.1256,-1.1059,-1.0767,-1.0656,0.0,0.0,0.0,0.0,0.0,0.0,0.0,-1.0296,-1.1809,-1.2942,-1.2179,-0.8028,-0.6806,-0.7538,-1.0717,0.0,0.0,-0.9614,-0.9284,-0.853,-0.6218,-0.6632,-0.7786,-0.866,-0.8789,-0.8597,0.0,0.0,0.0,0.0,0.0,0.0,0.0,0.0,0.0,-1.2464,-1.1467,0.0,0.0,0.0,0.0,0.0,0.0,0.0,0.0,0.0,0.0,0.0,-1.646,-1.7674,0.0,0.0,0.0,0.0,0.0,0.0,0.0,0.0,0.0,0.0,0.0,0.0,-1.3551,-1.5403,-1.9096,-2.1303,-2.1595,-2.1373,-2.1017,-2.0674,-2.0436,-1.9021,-1.6106,0.0,0.0,0.0,0.0,0.0,0.0,0.0,0.0,0.0,0.0,0.0,0.0,0.0,0.0,0.0,0.0,0.0,0.0,0.0,0.0,0.0,0.0,0.0,0.0,0.0,-0.8376,0.0,0.0,0.0,0.0,0.0,0.0,0.0,0.0,0.0,0.0,-0.7712,-0.9346,-1.0893,-1.0453,-1.0125,-1.0281,-1.0305,-1.0832,0.0,0.0,0.0,0.0,0.0,0.0,0.0,0.0,0.0,0.0,0.0,0.0,0.0,0.0,-0.7346,-0.6654,-0.66,-0.584,-0.3059,0.0,0.0,0.0,0.0,0.0,0.0,0.0,0.0,0.0,0.0,0.0,0.0,0.0,0.0,0.0,-0.8099,0.0,0.0,-0.5163,0.0,0.0,0.0,0.0,0.0,0.0,0.0,0.0,0.0,0.0,0.0,0.0,0.0,0.0,0.0,0.0,0.0,0.0,0.0,0.0,0.0,0.0,-1.2786,-1.399,-1.8035,-1.9981,-1.966,-1.9325,-1.9114,-1.8902,-1.8789,-1.7818,-1.5598,0.0,0.0,0.0,0.0,0.0,0.0,0.0,0.0,0.0,0.0,0.0,0.0,0.0,0.0,0.0,0.0,0.0,0.0,0.0,0.0,0.0,0.0,0.0,0.0,0.0,0.0,-0.6567,-0.7577,-0.822,0.0,0.0,0.0,0.0,0.0,0.0,0.0,0.0,0.0,-1.0102,-1.0009,-0.9898,-1.0266,-1.0328,-1.0356,-1.0199,-0.9214,-0.8216,-0.7664,-0.7251,-0.695,0.0,0.0,0.0,0.0,0.0,0.0,0.0,0.0,0.0,0.0,0.0,0.0,0.0,0.0,0.0,0.0,0.0,0.0,0.0,0.0,0.0,0.0,0.0,0.0,0.0,0.0,0.0,0.0,0.0,0.0,0.0,0.0,0.0,0.0,0.0,0.0,0.0,0.0,0.0,0.0,0.0,0.0,0.0,0.0,0.0,0.0,0.0,0.0,0.0,0.0,0.0,0.0,0.0,0.0,-1.2132,-1.3311,-1.7158,-1.9049,-1.893,-1.8527,-1.8226,-1.8134,-1.7819,-1.6637,0.0,0.0,0.0,0.0,0.0,0.0,0.0,0.0,0.0,0.0,0.0,0.0,0.0,0.0,0.0,0.0,0.0,0.0,0.0,0.0,0.0,0.0,0.0,0.0,0.0,0.0,0.0,0.0,-0.895,-0.89,-0.772,0.0,0.0,0.0,0.0,0.0,0.0,0.0,0.0,0.0,0.0,-1.0205,-1.0362,-1.0787,-1.0886,-1.0347,-1.0007,-0.9828,-0.9982,-0.7548,-0.5881,-0.6075,0.0,0.0,0.0,0.0,0.0,0.0,0.0,0.0,0.0,0.0,0.0,0.0,0.0,0.0,0.0,0.0,0.0,0.0,0.0,0.0,0.0,0.0,0.0,0.0,0.0,0.0,0.0,0.0,0.0,0.0,0.0,0.0,0.0,0.0,0.0,0.0,0.0,0.0,0.0,0.0,0.0,0.0,0.0,0.0,0.0,0.0,0.0,0.0,0.0,0.0,0.0,0.0,0.0,-1.1797,-1.2914,-1.6524,-1.8284,-1.8196,-1.7803,-1.7613,-1.7613,-1.7306,-1.6005,0.0,0.0,0.0,0.0,0.0,0.0,0.0,0.0,0.0,0.0,0.0,0.0,0.0,0.0,0.0,0.0,0.0,0.0,0.0,0.0,0.0,0.0,0.0,0.0,0.0,0.0,0.0,0.0,-0.8275,-0.8744,-0.8156,0.0,0.0,0.0,0.0,0.0,0.0,0.0,0.0,0.0,0.0,-1.0051,-1.0386,-1.104,0.0,0.0,-1.012,-1.0948,-1.0521,-0.8595,-0.6621,-0.5025,-0.4594,0.0,0.0,0.0,0.0,0.0,0.0,0.0,0.0,0.0,0.0,0.0,0.0,0.0,0.0,0.0,0.0,0.0,0.0,0.0,0.0,0.0,0.0,0.0,0.0,0.0,0.0,0.0,0.0,0.0,0.0,0.0,0.0,0.0,0.0,0.0,0.0,0.0,0.0,0.0,0.0,0.0,0.0,0.0,0.0,0.0,0.0,0.0,0.0,0.0,0.0,0.0,0.0,-1.1725,-1.2753,-1.6191,-1.7939,-1.763,-1.7424,-1.7231,-1.7231,-1.7231,-1.5773,0.0,0.0,0.0,0.0,0.0,0.0,0.0,0.0,0.0,0.0,0.0,0.0,0.0,0.0,0.0,0.0,0.0,0.0,0.0,0.0,0.0,0.0,0.0,0.0,0.0,0.0,0.0,0.0,0.0,0.0,0.0,0.0,0.0,0.0,0.0,0.0,0.0,0.0,0.0,0.0,0.0,-0.9486,-1.0336,-1.1019,-1.0293,0.0,-0.9981,-1.1758,-0.9647,-0.9963,-0.8753,-0.3979,0.0,0.0,0.0,0.0,0.0,0.0,0.0,0.0,0.0,0.0,0.0,0.0,0.0,0.0,0.0,0.0,0.0,0.0,0.0,0.0,0.0,0.0,0.0,0.0,0.0,0.0,0.0,0.0,0.0,0.0,0.0,0.0,0.0,0.0,0.0,0.0,0.0,0.0,0.0,0.0,0.0,0.0,0.0,0.0,0.0,0.0,0.0,0.0,0.0,0.0,0.0,0.0,0.0,0.0,-1.3717,-1.7477,-1.9457,-1.9348,-1.9129,-1.8923,-1.8717,-1.851,0.0,0.0,0.0,0.0,0.0,0.0,0.0,0.0,0.0,0.0,0.0,0.0,0.0,0.0,0.0,0.0,0.0,0.0,0.0,0.0,0.0,0.0,0.0,0.0,0.0,0.0,0.0,-0.346,0.0,0.0,0.0,0.0,0.0,0.0,0.0,0.0,0.0,0.0,0.0,0.0,0.0,0.0,-1.0066,-1.1633,-1.1217,-0.9721,0.0,0.0,-1.1544,-0.9022,-1.0429,-1.0588,0.0,0.0,0.0,0.0,0.0,0.0,0.0,0.0,0.0,0.0,0.0,0.0,0.0,0.0,0.0,0.0,0.0,0.0,0.0,0.0,0.0,0.0,0.0,0.0,0.0,0.0,0.0,0.0,0.0,0.0,0.0,0.0,0.0,0.0,0.0,0.0,0.0,0.0,0.0,0.0,0.0,0.0,0.0,0.0,0.0,0.0,0.0,0.0,0.0,0.0,0.0,0.0,0.0,0.0,-1.1388,-1.3699,-1.6719,-1.864,-1.9535,-1.9365,-1.9266,-1.9041,-1.8928,-1.6845,0.0,0.0,0.0,0.0,0.0,0.0,0.0,0.0,0.0,0.0,0.0,0.0,0.0,0.0,0.0,0.0,0.0,0.0,0.0,0.0,0.0,0.0,0.0,0.0,0.0,0.0,0.0,0.0,0.0,0.0,0.0,0.0,0.0,0.0,0.0,0.0,0.0,0.0,0.0,0.0,0.0,0.0,-1.132,-1.1169,0.0,0.0,0.0,-0.8497,-0.744,0.0,0.0,0.0,0.0,0.0,0.0,0.0,0.0,0.0,0.0,0.0,0.0,0.0,0.0,0.0,0.0,0.0,0.0,0.0,0.0,0.0,0.0,0.0,0.0,0.0,0.0,0.0,0.0,0.0,0.0,0.0,0.0,0.0,0.0,0.0,0.0,0.0,0.0,0.0,0.0,0.0,0.0,0.0,0.0,0.0,0.0,0.0,0.0,0.0,0.0,0.0,0.0,0.0,0.0,0.0,0.0,0.0,-1.3343,-1.5469,-1.7364,-1.9019,-1.9137,-1.9124,-1.901,-1.9023,-1.7023,0.0,0.0,0.0,0.0,0.0,0.0,0.0,0.0,0.0,0.0,0.0,0.0,0.0,0.0,0.0,0.0,0.0,0.0,0.0,0.0,0.0,0.0,0.0,0.0,0.0,0.0,0.0,0.0,0.0,0.0,0.0,0.0,0.0,0.0,0.0,0.0,0.0,0.0,0.0,0.0,0.0,-1.0051,-1.0281,-1.0638,-0.9914,0.0,0.0,-0.4406,-0.5704,-0.496,0.0,0.0,0.0,0.0,0.0,0.0,0.0,0.0,0.0,0.0,0.0,0.0,0.0,0.0,0.0,0.0,0.0,0.0,0.0,0.0,0.0,0.0,0.0,0.0,0.0,0.0,0.0,0.0,0.0,0.0,0.0,0.0,0.0,0.0,0.0,0.0,0.0,0.0,0.0,0.0,0.0,0.0,0.0,0.0,0.0,0.0,0.0,0.0,0.0,0.0,0.0,0.0,0.0,0.0,0.0,0.0,-1.4326,-1.8078,-2.0183,-2.0501,-2.0541,-2.042,-2.0192,-1.9694,-1.7377,0.0,0.0,0.0,0.0,0.0,0.0,0.0,0.0,0.0,0.0,0.0,0.0,0.0,0.0,0.0,0.0,0.0,0.0,0.0,0.0,0.0,0.0,0.0,0.0,0.0,0.0,0.0,0.0,0.0,0.0,0.0,0.0,0.0,0.0,0.0,0.0,0.0,0.0,0.0,0.0,0.0,-0.9254,-1.018,-0.9001,0.0,0.0,0.0,0.0,-0.5745,-0.7722,0.0,0.0,0.0,0.0,0.0,0.0,0.0,0.0,0.0,0.0,0.0,0.0,0.0,0.0,0.0,0.0,0.0,0.0,0.0,0.0,0.0,0.0,0.0,0.0,0.0,0.0,0.0,0.0,0.0,0.0,0.0,0.0,0.0,0.0,0.0,0.0,0.0,0.0,0.0,0.0,0.0,0.0,0.0,0.0,0.0,0.0,0.0,0.0,0.0,0.0,0.0,0.0,0.0,0.0,0.0,0.0,-1.5973,-1.8174,-1.9748,-2.0723,-2.0775,-2.0516,-2.0024,-1.9653,-1.7367,0.0,0.0,0.0,0.0,0.0,0.0,0.0,0.0,0.0,0.0,0.0,0.0,0.0,0.0,0.0,0.0,0.0,0.0,0.0,0.0,0.0,0.0,0.0,0.0,0.0,0.0,0.0,0.0,0.0,0.0,0.0,0.0,0.0,0.0,0.0,0.0,0.0,0.0,0.0,0.0,-0.7784,-0.8762,-1.0169,0.0,0.0,0.0,0.0,0.0,0.0,-0.5844,-0.6014,0.0,0.0,0.0,0.0,0.0,0.0,0.0,0.0,0.0,0.0,0.0,0.0,0.0,0.0,0.0,0.0,0.0,0.0,0.0,0.0,0.0,0.0,0.0,0.0,0.0,0.0,0.0,0.0,0.0,0.0,0.0,0.0,0.0,0.0,0.0,0.0,0.0,0.0,0.0,0.0,0.0,0.0,0.0,0.0,0.0,0.0,0.0,0.0,0.0,0.0,0.0,0.0,0.0,0.0,0.0,-1.6881,-1.7144,-1.8314,-2.0574,-2.0639,-2.0283,-1.9653,-1.9455,-1.6914,-1.2074,0.0,0.0,0.0,0.0,0.0,0.0,0.0,0.0,0.0,0.0,0.0,0.0,0.0,0.0,0.0,0.0,0.0,0.0,0.0,0.0,0.0,0.0,0.0,0.0,0.0,0.0,0.0,0.0,0.0,0.0,0.0,0.0,0.0,0.0,0.0,0.0,0.0,0.0,0.0,-0.7055,-0.797,0.0,0.0,0.0,0.0,0.0,0.0,0.0,0.0,-0.368,0.0,0.0,0.0,0.0,0.0,0.0,0.0,0.0,0.0,0.0,0.0,0.0,0.0,0.0,0.0,0.0,0.0,0.0,0.0,0.0,0.0,0.0,0.0,0.0,0.0,0.0,0.0,0.0,0.0,0.0,0.0,0.0,0.0,0.0,0.0,0.0,0.0,0.0,0.0,0.0,0.0,0.0,0.0,0.0,0.0,0.0,0.0,0.0,0.0,0.0,0.0,0.0,0.0,0.0,0.0,0.0,-1.6058,-1.841,-2.0535,-2.0639,-2.0529,-2.0393,-1.9326,-1.617,-1.0703,0.0,0.0,0.0,0.0,0.0,0.0,0.0,0.0,0.0,0.0,0.0,0.0,0.0,0.0,0.0,0.0,0.0,0.0,0.0,0.0,0.0,0.0,0.0,0.0,0.0,0.0,0.0,0.0,0.0,0.0,0.0,0.0,0.0,0.0,0.0,0.0,0.0,0.0,-0.4391,-0.5549,0.0,0.0,0.0,0.0,0.0,0.0,0.0,0.0,-0.3457,0.0,0.0,0.0,0.0,0.0,0.0,0.0,0.0,0.0,0.0,0.0,0.0,0.0,0.0,0.0,0.0,0.0,0.0,0.0,0.0,0.0,0.0,0.0,0.0,0.0,0.0,0.0,0.0,0.0,0.0,0.0,0.0,0.0,0.0,0.0,0.0,0.0,0.0,0.0,0.0,0.0,0.0,0.0,0.0,0.0,0.0,0.0,0.0,0.0,0.0,0.0,0.0,0.0,0.0,0.0,0.0,0.0,0.0,-1.8121,-1.9555,-1.9667,-1.9308,-1.8615,-1.6804,-1.4008,0.0,0.0,0.0,0.0,0.0,0.0,0.0,0.0,0.0,0.0,0.0,0.0,0.0,0.0,0.0,0.0,0.0,0.0,0.0,0.0,0.0,0.0,0.0,0.0,0.0,0.0,0.0,0.0,0.0,0.0,0.0,0.0,0.0,0.0,0.0,0.0,0.0,0.0,0.0,0.0,0.0,0.0,0.0,0.0,0.0,0.0,0.0,0.0,0.0,0.0,0.0,0.0,0.0,0.0,0.0,0.0,0.0,0.0,0.0,0.0,0.0,0.0,0.0,0.0,0.0,0.0,0.0,0.0,0.0,0.0,0.0,0.0,0.0,0.0,0.0,0.0,0.0,0.0,0.0,0.0,0.0,0.0,0.0,0.0,0.0,0.0,0.0,0.0,0.0,0.0,0.0,0.0,0.0,0.0,0.0,0.0,0.0,0.0,0.0,0.0,0.0,0.0,0.0,0.0,0.0,0.0,0.0,0.0,-1.7073,-1.847,-1.8364,-1.792,-1.6812,-1.4236,-1.19,0.0,0.0,0.0,0.0,0.0,0.0,0.0,0.0,0.0,0.0,0.0,0.0,0.0,0.0,0.0,0.0,0.0,0.0,0.0,0.0,0.0,0.0,0.0,0.0,0.0,0.0,0.0,0.0,0.0,0.0,0.0,0.0,0.0,0.0,0.0,0.0,0.0,0.0,0.0,0.0,0.0,0.0,0.0,0.0,0.0,0.0,0.0,0.0,-0.1357,0.0,0.0,0.0,0.0,0.0,0.0,0.0,0.0,0.0,0.0,0.0,0.0,0.0,0.0,0.0,0.0,0.0,0.0,0.0,0.0,0.0,0.0,0.0,0.0,0.0,0.0,0.0,0.0,0.0,0.0,0.0,0.0,0.0,0.0,0.0,0.0,0.0,0.0,0.0,0.0,0.0,0.0,0.0,0.0,0.0,0.0,0.0,0.0,0.0,0.0,0.0,0.0,0.0,0.0,0.0,0.0,0.0,0.0,0.0,-1.4727,-1.719,-1.696,-1.6748,-1.6419,-1.339,-1.0913,0.0,0.0,0.0,0.0,0.0,0.0,0.0,0.0,0.0,0.0,0.0,0.0,0.0,0.0,0.0,0.0,0.0,0.0,0.0,0.0,0.0,0.0,0.0,0.0,0.0,0.0,0.0,0.0,0.0,0.0,0.0,0.0,0.0,0.0,0.0,0.0,0.0,0.0,0.0,0.0,0.0,0.0,0.0,0.0,0.0,0.0,0.0,0.0,0.0,0.0,0.0,0.0,0.0,0.0,0.0,0.0,0.0,0.0,0.0,0.0,0.0,0.0,0.0,0.0,0.0,0.0,0.0,0.0,0.0,0.0,0.0,0.0,0.0,0.0,0.0,0.0,0.0,0.0,0.0,0.0,0.0,0.0,0.0,0.0,0.0,0.0,0.0,0.0,0.0,0.0,0.0,0.0,0.0,0.0,0.0,0.0,0.0,0.0,0.0,0.0,0.0,0.0,0.0,0.0,0.0,0.0,0.0,0.0,-1.293,-1.4937,-1.5581,-1.4896,-1.2959,-1.0584,-0.8873,0.0,0.0,0.0,0.0,0.0,0.0,0.0,0.0,0.0,0.0,0.0,0.0,0.0,0.0,0.0,0.0,0.0,0.0,0.0,0.0,0.0,0.0,0.0,0.0,0.0,0.0,0.0,0.0,0.0,0.0,0.0,0.0,0.0,0.0,0.0,0.0,0.0,0.0,0.0,0.0,0.0,0.0,0.0,0.0,0.0,0.0,0.0,0.0,0.0,0.0,0.0,0.0,0.0,0.0,0.0,0.0,0.0,0.0,0.0,0.0,0.0,0.0,0.0,0.0,0.0,0.0,0.0,0.0,0.0,0.0,0.0,0.0,0.0,0.0,0.0,0.0,0.0,0.0,0.0,0.0,0.0,0.0,0.0,0.0,0.0,0.0,0.0,0.0,0.0,0.0,0.0,0.0,0.0,0.0,0.0,0.0,0.0,0.0,0.0,0.0,0.0,0.0,0.0,0.0,0.0,0.0,0.0,0.0,0.0,-1.2378,-1.3921,-1.3295,-1.0573,-0.865,-0.7159,0.0,0.0,0.0,0.0,0.0,0.0,0.0,0.0,0.0,0.0,0.0,0.0,0.0,0.0,0.0,0.0,0.0,0.0,0.0,0.0,0.0,0.0,0.0,0.0,0.0,0.0,0.0,0.0,0.0,0.0,0.0,0.0,0.0,0.0,0.0,0.0,0.0,0.0,0.0,0.0,0.0,0.0,0.0,0.0,0.0,0.0,0.0,0.0,0.0,0.0,0.0,0.0,0.0,0.0,0.0,0.0,0.0,0.0,0.0,0.0,0.0,0.0,0.0,0.0,0.0,0.0,0.0,0.0,0.0,0.0,0.0,0.0,0.0,0.0,0.0,0.0,0.0,0.0,0.0,0.0,0.0,0.0,0.0,0.0,0.0,0.0,0.0,0.0,0.0,0.0,0.0,0.0,0.0,0.0,0.0,0.0,0.0,0.0,0.0,0.0,0.0,0.0,0.0,0.0,0.0,0.0,0.0,0.0,0.0,-0.9588,-1.182,-1.2233,-1.0809,-0.8681,-0.6183,0.0,0.0,0.0,0.0,0.0,0.0,0.0,0.0,0.0,0.0,0.0,0.0,0.0,0.0,0.0,0.0,0.0,0.0,0.0,0.0,0.0,0.0,0.0,0.0,0.0,0.0,0.0,0.0,0.0,0.0,0.0,0.0,0.0,0.0,0.0,0.0,0.0,0.0,0.0,0.0,0.0,0.0,0.0,0.0,0.0,0.0,0.0,0.0,0.0,0.0,0.0,0.0,0.0,0.0,0.0,0.0,0.0,0.0,0.0,0.0,0.0,0.0,0.0,0.0,0.0,0.0,0.0,0.0,0.0,0.0,0.0,0.0,0.0,0.0,0.0,0.0,0.0,0.0,0.0,0.0,0.0,0.0,0.0,0.0,0.0,0.0,0.0,0.0,0.0,0.0,0.0,0.0,0.0,0.0,0.0,0.0,0.0,0.0,0.0,0.0,0.0,0.0,0.0,0.0,0.0,0.0,0.0,0.0,0.0,-0.6023,-0.8502,-0.9431,-0.8401,-0.6801,-0.5557,-0.4625,0.0,0.0,0.0,0.0,0.0,0.0,0.0,0.0,0.0,0.0,0.0,0.0,0.0,0.0,0.0,0.0,0.0,0.0,0.0,0.0,0.0,0.0,0.0,0.0,0.0,0.0,0.0,0.0,0.0,0.0,0.0,0.0,0.0,0.0,0.0,0.0,0.0,0.0,0.0,0.0,0.0,0.0,0.0,0.0,0.0,0.0,0.0,0.0,0.0,0.0,0.0,0.0,0.0,0.0,0.0,0.0,0.0,0.0,0.0,0.0,0.0,0.0,0.0,0.0,0.0,0.0,0.0,0.0,0.0,0.0,0.0,0.0,0.0,0.0,0.0,0.0,0.0,0.0,0.0,0.0,0.0,0.0,0.0,0.0,0.0,0.0,0.0,0.0,0.0,0.0,0.0,0.0,0.0,0.0,0.0,0.0,0.0,0.0,0.0,0.0,0.0,0.0,0.0,0.0,0.0,0.0,0.0,0.0,-0.4793,-0.7127,-0.787,-0.6773,-0.5682,-0.4923,0.0,0.0,0.0,0.0,0.0,0.0,0.0,0.0,0.0,0.0,0.0,0.0,0.0,0.0,0.0,0.0,0.0,0.0,0.0,0.0,0.0,0.0,0.0,0.0,0.0,0.0,0.0,0.0,0.0,0.0,0.0,0.0,0.0,0.0,0.0,0.0,0.0,0.0,0.0,0.0,0.0,0.0,0.0,0.0,0.0,0.0,0.0,0.0,0.0,0.0,0.0,0.0,0.0,0.0,0.0,0.0,0.0,0.0,0.0,0.0,0.0,0.0,0.0,0.0,0.0,0.0,0.0,0.0,0.0,0.0,0.0,0.0,0.0,0.0,0.0,0.0,0.0,0.0,0.0,0.0,0.0,0.0,0.0,0.0,0.0,0.0,0.0,0.0,0.0,0.0,0.0,0.0,0.0,0.0,0.0,0.0,0.0,0.0,0.0,0.0,0.0,0.0,0.0,0.0,0.0,0.0,0.0,0.0,-0.4405,-0.6799,-0.7999,-0.7889,-0.6637,-0.5691,-0.4258,0.0,0.0,0.0,0.0,0.0,0.0,0.0,0.0,0.0,0.0,0.0,0.0,0.0,0.0,0.0,0.0,0.0,0.0,0.0,0.0,0.0,0.0,0.0,0.0,0.0,0.0,0.0,0.0,0.0,0.0,0.0,0.0,0.0,0.0,0.0,0.0,0.0,0.0,0.0,0.0,0.0,0.0,0.0,0.0,0.0,0.0,0.0,0.0,0.0,0.0,0.0,0.0,0.0,0.0,0.0,0.0,0.0,0.0,0.0,0.0,0.0,0.0,0.0,0.0,0.0,0.0,0.0,0.0,0.0,0.0,0.0,0.0,0.0,0.0,0.0,0.0,0.0,0.0,0.0,0.0,0.0,0.0,0.0,0.0,0.0,0.0,0.0,0.0,0.0,0.0,0.0,0.0,0.0,0.0,0.0,0.0,0.0,0.0,0.0,0.0,0.0,0.0,0.0,0.0,0.0,0.0,0.0,0.0,0.0,-0.4329,0.0,-0.5724,0.0,-0.4856,-0.3915,0.0,0.0,0.0,0.0,0.0,0.0,0.0,0.0,0.0,0.0,0.0,0.0,0.0,0.0,0.0,0.0,0.0,0.0,0.0,0.0,0.0,0.0,0.0,0.0,0.0,0.0,0.0,0.0,0.0,0.0,0.0,0.0,0.0,0.0,0.0,0.0,0.0,0.0,0.0,0.0,0.0,0.0,0.0,0.0,0.0,0.0,0.0,0.0,0.0,0.0,0.0,0.0,0.0,0.0,0.0,0.0,0.0,0.0,0.0,0.0,0.0,0.0,0.0,0.0,0.0,0.0,0.0,0.0,0.0,0.0,0.0,0.0,0.0,0.0,0.0,0.0,0.0,0.0,0.0,0.0,0.0,0.0,0.0,0.0,0.0,0.0,0.0,0.0,0.0,0.0,0.0,0.0,0.0,0.0,0.0,0.0,0.0,0.0,0.0,0.0,0.0,0.0,0.0,0.0,0.0,0.0,0.0,0.0,0.0,-0.4053,-0.3866,-0.4525,-0.5925,-0.4573,-0.3996,0.0,0.0,0.0,0.0,0.0,0.0,0.0,0.0,0.0,0.0,0.0,0.0,0.0,0.0,0.0,0.0,0.0,0.0,0.0,0.0,0.0,0.0,0.0,0.0,0.0,0.0,0.0,0.0,0.0,0.0,0.0,0.0,0.0,0.0,0.0,0.0,0.0,0.0,0.0,0.0,0.0,0.0,0.0,0.0,0.0,0.0,0.0,0.0,0.0,0.0,0.0,0.0,0.0,0.0,0.0,0.0,0.0,0.0,0.0,0.0,0.0,0.0,0.0,0.0,0.0,0.0,0.0,0.0,0.0,0.0,0.0,0.0,0.0,0.0,0.0,0.0,0.0,0.0,0.0,0.0,0.0,0.0,0.0,0.0,0.0,0.0,0.0,0.0,0.0,0.0,0.0,0.0,0.0,0.0,0.0,0.0,0.0,0.0,0.0,0.0,0.0,0.0,0.0,0.0,0.0,0.0,0.0,0.0,0.0,-0.5567,-0.4769,-0.4484,-0.4804,-0.48,-0.4365,0.0,0.0,0.0,0.0,0.0,0.0,0.0,0.0,0.0,0.0,0.0,0.0,0.0,0.0,0.0,0.0,0.0,0.0,0.0,0.0,0.0,0.0,0.0,0.0,0.0,0.0,0.0,0.0,0.0,0.0,0.0,0.0,0.0,0.0,0.0,0.0,0.0,0.0,0.0,0.0,0.0,0.0,0.0,0.0,0.0,0.0,0.0,0.0,0.0,0.0,0.0,0.0,0.0,0.0,0.0,0.0,0.0,0.0,0.0,0.0,0.0,0.0,0.0,0.0,0.0,0.0,0.0,0.0,0.0,0.0,0.0,0.0,0.0,0.0,0.0,0.0,0.0,0.0,0.0,0.0,0.0,0.0,0.0,0.0,0.0,0.0,0.0,0.0,0.0,0.0,0.0,0.0,0.0,0.0,0.0,0.0,0.0,0.0,0.0,0.0,0.0,0.0,0.0,0.0,0.0,0.0,0.0,0.0,0.0,0.0,-0.4723,-0.4751,-0.404,-0.3819,-0.3825,-0.4002,0.0,0.0,0.0,0.0,0.0,0.0,0.0,0.0,0.0,0.0,0.0,0.0,0.0,0.0,0.0,0.0,0.0,0.0,0.0,0.0,0.0,0.0,0.0,0.0,0.0,0.0,0.0,0.0,0.0,0.0,0.0,0.0,0.0,0.0,0.0,0.0,0.0,0.0,0.0,0.0,0.0,0.0,0.0,0.0,0.0,0.0,0.0,0.0,0.0,0.0,0.0,0.0,0.0,0.0,0.0,0.0,0.0,0.0,0.0,0.0,0.0,0.0,0.0,0.0,0.0,0.0,0.0,0.0,0.0,0.0,0.0,0.0,0.0,0.0,0.0,0.0,0.0,0.0,0.0,0.0,0.0,0.0,0.0,0.0,0.0,0.0,0.0,0.0,0.0,0.0,0.0,0.0,0.0,0.0,0.0,0.0,0.0,0.0,0.0,0.0,0.0,0.0,0.0,0.0,0.0,0.0,0.0,0.0,0.0,0.0,-0.476,-0.3964,-0.3784,-0.3759,0.0,0.0,0.0,0.0,0.0,0.0,0.0,0.0,0.0,0.0,0.0,0.0,0.0,0.0,0.0,0.0,0.0,0.0,0.0,0.0,0.0,0.0,0.0,0.0,0.0,0.0,0.0,0.0,0.0,0.0,0.0,0.0,0.0,0.0,0.0,0.0,0.0,0.0,0.0,0.0,0.0,0.0,0.0,0.0,0.0,0.0,0.0,0.0,0.0,0.0,0.0,0.0,0.0,0.0,0.0,0.0,0.0,0.0,0.0,0.0,0.0,0.0,0.0,0.0,0.0,0.0,0.0,0.0,0.0,0.0,0.0,0.0,0.0,0.0,0.0,0.0,0.0,0.0,0.0,0.0,0.0,0.0,0.0,0.0,0.0,0.0,0.0,0.0,0.0,0.0,0.0,0.0,0.0,0.0,0.0,0.0,0.0,0.0,0.0,0.0,0.0,0.0,0.0,0.0,0.0,0.0,0.0,0.0,0.0,0.0,0.0,-0.4653,-0.427,-0.4373,0.0,-0.3408,0.0,0.0,0.0,0.0,0.0,0.0,0.0,0.0,0.0,0.0,0.0,0.0,0.0,0.0,0.0,0.0,0.0,0.0,0.0,0.0,0.0,0.0,0.0,0.0,0.0,0.0,0.0,0.0,0.0,0.0,0.0,0.0,0.0,0.0,0.0,0.0,0.0,0.0,0.0,0.0,0.0,0.0,0.0,0.0,0.0,0.0,0.0,0.0,0.0,0.0,0.0,0.0,0.0,0.0,0.0,0.0,0.0,0.0,0.0,0.0,0.0,0.0,0.0,0.0,0.0,0.0,0.0,0.0,0.0,0.0,0.0,0.0,0.0,0.0,0.0,0.0,0.0,0.0,0.0,0.0,0.0,0.0,0.0,0.0,0.0,0.0,0.0,0.0,0.0,0.0,0.0,0.0,0.0,0.0,0.0,0.0,0.0,0.0,0.0,0.0,0.0,0.0,0.0,0.0,0.0,0.0,0.0,0.0,0.0,0.0,0.0,0.0,-0.5053,-0.4805,-0.3118,0.0,0.0,0.0,0.0,0.0,0.0,0.0,0.0,0.0,0.0,0.0,0.0,0.0,0.0,0.0,0.0,0.0,0.0,0.0,0.0,0.0,0.0,0.0,0.0,0.0,0.0,0.0,0.0,0.0,0.0,0.0,0.0,0.0,0.0,0.0,0.0,0.0,0.0,0.0,0.0,0.0,0.0,0.0,0.0,0.0,0.0,0.0,0.0,0.0,0.0,0.0,0.0,0.0,0.0,0.0,0.0,0.0,0.0,0.0,0.0,0.0,0.0,0.0,0.0,0.0,0.0,0.0,0.0,0.0,0.0,0.0,0.0,0.0,0.0,0.0,0.0,0.0,0.0,0.0,0.0,0.0,0.0,0.0,0.0,0.0,0.0,0.0,0.0,0.0,0.0,0.0,0.0,0.0,0.0,0.0,0.0,0.0,0.0,0.0,0.0,0.0,0.0,0.0,0.0,0.0,0.0,0.0,0.0,0.0,0.0,-0.5757,-0.3863,-0.4847,-0.4584,-0.2847,0.0,0.0,0.0,0.0,0.0,0.0,0.0,0.0,0.0,0.0,0.0,0.0,0.0,0.0,0.0,0.0,0.0,0.0,0.0,0.0,0.0,0.0,0.0,0.0,0.0,0.0,0.0,0.0,0.0,0.0,0.0,0.0,0.0,0.0,0.0,0.0,0.0,0.0,0.0,0.0,0.0,0.0,0.0,0.0,0.0,0.0,0.0,0.0,0.0,0.0,0.0,0.0,0.0,0.0,0.0,0.0,0.0,0.0,0.0,0.0,0.0,0.0,0.0,0.0,0.0,0.0,0.0,0.0,0.0,0.0,0.0,0.0,0.0,0.0,0.0,0.0,0.0,0.0,0.0,0.0,0.0,0.0,0.0,0.0,0.0,0.0,0.0,0.0,0.0,0.0,0.0,0.0,0.0,0.0,0.0,0.0,0.0,0.0,0.0,0.0,0.0,0.0,0.0,0.0,0.0,0.0,0.0,0.0,0.0,0.0,0.0,0.0,0.0,0.0,-0.2967,0.0,0.0,0.0,0.0,0.0,0.0,0.0,0.0,0.0,0.0,0.0,0.0,0.0,0.0,0.0,0.0,0.0,0.0,0.0,0.0,0.0,0.0,0.0,0.0,0.0,0.0,0.0,0.0,0.0,0.0,0.0,0.0,0.0,0.0,0.0,0.0,0.0,0.0,0.0,0.0,0.0,0.0,0.0,0.0,0.0,0.0,0.0,0.0,0.0,0.0,0.0,0.0,0.0,0.0,0.0,0.0,0.0,0.0,0.0,0.0,0.0,0.0,0.0,0.0,0.0,0.0,0.0,0.0,0.0,0.0,0.0,0.0,0.0,0.0,0.0,0.0,0.0,0.0,0.0,0.0,0.0,0.0,0.0,0.0,0.0,0.0,0.0,0.0,0.0,0.0,0.0,0.0,0.0,0.0,0.0,0.0,0.0,0.0,0.0,0.0,0.0,0.0,0.0,0.0,0.0,0.0,0.0,0.0,0.0,0.0,0.0,0.0,0.0,0.0,0.0,0.0,0.0,0.0,0.0,0.0,0.0,0.0,0.0,0.0,0.0,0.0,0.0,0.0,0.0,0.0,0.0,0.0,0.0,0.0,0.0,0.0,0.0,0.0,0.0,0.0,0.0,0.0,0.0,0.0,0.0,0.0,0.0,0.0,0.0,0.0,0.0,0.0,0.0,0.0,0.0,0.0,0.0,0.0,0.0,0.0,0.0,0.0,0.0,0.0,0.0,0.0,0.0,0.0,0.0,0.0,0.0,0.0,0.0,0.0,0.0,0.0,0.0,0.0,0.0,0.0,0.0,0.0,0.0,0.0,0.0,0.0,0.0,0.0,0.0,0.0,0.0,0.0,0.0,0.0,0.0,0.0,0.0,0.0,0.0,0.0,0.0,0.0,0.0,0.0,0.0,0.0,0.0,0.0,0.0,0.0,0.0,0.0,0.0,0.0,0.0,0.0,0.0,0.0,0.0,0.0,0.0,0.0,0.0,0.0,0.0,0.0,0.0,0.0,0.0,0.0,0.0,0.0,0.0,0.0,0.0,0.0,0.0,0.0,0.0,0.0,0.0,0.0,0.0,0.0,0.0,0.0,0.0,0.0,0.0,0.0,0.0,0.0,0.0,0.0,0.0,0.0,0.0,0.0,0.0,0.0,0.0,0.0,0.0,0.0,0.0,0.0,0.0,0.0,0.0,0.0,0.0,0.0,0.0,0.0,0.0,0.0,0.0,0.0,0.0,0.0,0.0,0.0,0.0,0.0,0.0,0.0,0.0,0.0,0.0,0.0,0.0,0.0,0.0,0.0,0.0,0.0,0.0,0.0,0.0,0.0,0.0,0.0,0.0,0.0,0.0,0.0,0.0,0.0,0.0,0.0,0.0,0.0,0.0,0.0,0.0,0.0,0.0,0.0,0.0,0.0,0.0,0.0,0.0,0.0,0.0,0.0,0.0,0.0,0.0,0.0,0.0,0.0,0.0,0.0,0.0,0.0,0.0,0.0,0.0,0.0,0.0,0.0,0.0,0.0,0.0,0.0,0.0,0.0,0.0,0.0,0.0,0.0,0.0,0.0,0.0,0.0,0.0,0.0,0.0,0.0,0.0,0.0,0.0,0.0,0.0,0.0,0.0,0.0,0.0,0.0,0.0,0.0,0.0,0.0,0.0,0.0,0.0,0.0,0.0,0.0,0.0,0.0,0.0,0.0,0.0,0.0,0.0,0.0,0.0,0.0,0.0,0.0,0.0,0.0,0.0,0.0,0.0,0.0,0.0,0.0,0.0,0.0,0.0,0.0,0.0,0.0,0.0,0.0,0.0,0.0,0.0,0.0,0.0,0.0,0.0,0.0,0.0,0.0,0.0,0.0,0.0,0.0,0.0,0.0,0.0,0.0,0.0,0.0,0.0,0.0,0.0,0.0,0.0,0.0,0.0,0.0,0.0,0.0,0.0,0.0,0.0,0.0,0.0,0.0,0.0,0.0,0.0,0.0,0.0,0.0,0.0,0.0,0.0,0.0,0.0,0.0,0.0,0.0,0.0,0.0,0.0,0.0,0.0,0.0,0.0,0.0,0.0,0.0,0.0,0.0,0.0,0.0,0.0,0.0,0.0,0.0,0.0,0.0,0.0,0.0,0.0,0.0,0.0,0.0,0.0,0.0,0.0,0.0,0.0,0.0,0.0,0.0,0.0,0.0,0.0,0.0,0.0,0.0,0.0,0.0,0.0,0.0,0.0,0.0,0.0,0.0,0.0,0.0,0.0,0.0,0.0,0.0,0.0,0.0,0.0,0.0,0.0,0.0,0.0,0.0,0.0,0.0,0.0,0.0,0.0,0.0,0.0,0.0,0.0,0.0,0.0,0.0,0.0,0.0,0.0,0.0,0.0,0.0,0.0,0.0,0.0,0.0,0.0,0.0,0.0,0.0,0.0,0.0,0.0,0.0,0.0,0.0,0.0,0.0,0.0,0.0,0.0,0.0,0.0,0.0,0.0,0.0,0.0,0.0,0.0,0.0,0.0,0.0,0.0,0.0,0.0,0.0,0.0,0.0,0.0,0.0,0.0,0.0,0.0,0.0,0.0,0.0,0.0,0.0,0.0,0.0,0.0,0.0,0.0,0.0,0.0,0.0,0.0,0.0,0.0,0.0,0.0,0.0,0.0,0.0,0.0,0.0,0.0,0.0,0.0,0.0,0.0,0.0,0.0,0.0,0.0,0.0,0.0,0.0,0.0,0.0,0.0,0.0,0.0,0.0,0.0,0.0,0.0,0.0,0.0,0.0,0.0,0.0,0.0,0.0,0.0,0.0,0.0,0.0,0.0,0.0,0.0,0.0,0.0,0.0,0.0,0.0,0.0,0.0,0.0,0.0,0.0,0.0,0.0,0.0,0.0,0.0,0.0,0.0,0.0,0.0,0.0,0.0,0.0,0.0,0.0,0.0,0.0,0.0,0.0,0.0,0.0,0.0,0.0,0.0,0.0,0.0,0.0,0.0,0.0,0.0,0.0,0.0,0.0,0.0,0.0,0.0,0.0,0.0,0.0,0.0,0.0,0.0,0.0,0.0,0.0,0.0,0.0,0.0,0.0,0.0,0.0,0.0,0.0,0.0,0.0,0.0,0.0,0.0,0.0,0.0,0.0,0.0,0.0,0.0,0.0,0.0,0.0,0.0,0.0,0.0,0.0,0.0,0.0,0.0,0.0,0.0,0.0,0.0,0.0,0.0,0.0,0.0,0.0,0.0,0.0,0.0,0.0,0.0,0.0,0.0,0.0,0.0,0.0,0.0,0.0,0.0,0.0,0.0,0.0,0.0,0.0,0.0,0.0,0.0,0.0,0.0,0.0,0.0,0.0,0.0,0.0,0.0,0.0,0.0,0.0,0.0,0.0,0.0,0.0,0.0,0.0,0.0,0.0,0.0,0.0,0.0,0.0,0.0,0.0,0.0,0.0,0.0,0.0,0.0,0.0,0.0,0.0,0.0,0.0,0.0,0.0,0.0,0.0,0.0,0.0,0.0,0.0,0.0,0.0,0.0,0.0,0.0,0.0,0.0,0.0,0.0,0.0,0.0,0.0,0.0,0.0,0.0,0.0,0.0,0.0,0.0,0.0,0.0,0.0,0.0,0.0,0.0,0.0,0.0,0.0,0.0,0.0,0.0,0.0,0.0,0.0,0.0,0.0,0.0,0.0,0.0,0.0,0.0,0.0,0.0,0.0,0.0,0.0,0.0,0.0,0.0,0.0,0.0,0.0,0.0,0.0,0.0,0.0,0.0,0.0,0.0,0.0,0.0,0.0,0.0,0.0,0.0,0.0,0.0,0.0,0.0,0.0,0.0,0.0,0.0,0.0,0.0,0.0,0.0,0.0,0.0,0.0,0.0,0.0,0.0,0.0,0.0,0.0,0.0,0.0,0.0,0.0,0.0,0.0,0.0,0.0,0.0,0.0,0.0,0.0,0.0,0.0,0.0,0.0,0.0,0.0,0.0,0.0,0.0,0.0,0.0,0.0,0.0,0.0,0.0,0.0,0.0,0.0,0.0,0.0,0.0,0.0,0.0,0.0,0.0,0.0,0.0,0.0,0.0,0.0,0.0,0.0,0.0,0.0,0.0,0.0,0.0,0.0,0.0,0.0,0.0,0.0,0.0,0.0,0.0,0.0,0.0,0.0,0.0,0.0,0.0,0.0,0.0,0.0,0.0,0.0,0.0,0.0,0.0,0.0,0.0,0.0,0.0,0.0,0.0,0.0,0.0,0.0,0.0,0.0,0.0,0.0,0.0,0.0,0.0,0.0,0.0,0.0,0.0,0.0,0.0,0.0,0.0,0.0,0.0,0.0,0.0,0.0,0.0,0.0,0.0,0.0,0.0,0.0,0.0,0.0,0.0]}]]]